GFSWCAN_sfc_thetae_000.txt.gz
Theta_e
306 306 306 306 306 307 307 307 307 307 307 307 307 308 308 307 307 309 306 307 303 292 296 301 300 296 295 292 287 292 291 288 288 285 281 282 273 281 280 284 281 280 276 274 278 278 275 289 291 286 291 293 294 294
306 306 305 306 306 306 306 306 306 306 306 306 307 307 307 307 307 308 305 307 305 299 297 302 304 303 301 300 295 291 292 291 289 286 285 282 279 282 282 282 286 282 285 284 286 282 289 293 295 295 296 294 292 291
305 306 305 305 305 306 306 306 306 306 305 305 306 306 307 307 307 308 304 303 300 290 296 299 298 304 309 305 305 294 287 295 292 293 286 284 280 283 285 285 282 290 292 287 288 290 294 297 297 297 296 295 293 293
304 304 305 304 305 305 305 305 305 305 305 305 305 306 306 306 307 306 303 302 300 293 286 292 300 300 305 307 304 304 301 299 295 291 286 285 286 293 286 291 289 291 293 290 289 294 294 294 294 295 294 295 294 293
303 303 303 304 304 304 305 304 304 305 305 305 306 305 305 306 306 305 304 305 305 300 288 290 297 301 303 303 302 301 301 298 293 289 286 287 288 289 287 287 287 293 291 286 288 294 295 296 296 297 294 293 293 292
303 303 302 303 304 303 304 304 304 304 304 305 305 306 306 305 306 305 299 302 304 307 292 287 294 293 297 300 299 297 299 297 295 294 288 292 296 291 286 287 292 295 297 298 295 299 298 296 294 293 291 290 290 290
302 302 302 302 302 303 303 303 303 303 303 304 304 305 305 305 308 304 298 299 304 302 289 287 287 288 293 296 294 295 296 294 295 294 290 290 291 295 286 288 293 295 296 297 297 297 291 291 290 292 291 291 290 289
302 301 301 302 302 302 302 303 303 303 303 304 304 304 305 305 305 302 302 305 306 298 292 287 288 286 293 287 287 292 288 291 294 294 290 287 289 287 286 292 293 294 295 293 292 292 291 293 292 290 289 287 285 284
301 301 301 301 301 301 301 302 303 303 304 304 304 304 303 301 296 298 303 303 302 298 289 286 286 286 294 289 288 285 288 286 290 286 287 289 286 286 290 288 288 289 289 289 290 289 289 286 285 285 285 284 283 283
301 300 300 300 301 301 301 302 303 303 304 304 301 296 288 292 302 302 298 293 292 289 290 286 289 287 294 286 286 287 285 285 284 285 288 285 285 291 288 289 289 288 289 289 285 285 284 284 284 284 284 284 283 283
301 301 300 300 301 301 301 302 303 303 302 297 291 288 296 302 296 291 286 287 287 286 286 287 287 287 291 286 286 286 284 284 276 277 283 281 279 284 285 285 286 286 286 286 286 286 286 286 285 285 284 283 282 282
302 301 300 300 301 301 300 301 301 299 297 297 296 298 296 293 288 288 285 284 285 282 285 285 286 289 287 292 286 285 282 282 276 280 279 273 279 284 285 285 285 286 285 285 286 286 286 286 285 284 283 283 282 281
301 300 300 300 301 301 300 301 301 301 299 295 291 288 289 286 283 283 278 282 282 284 285 285 285 285 286 287 284 282 276 275 277 274 273 276 281 282 283 284 285 285 284 282 283 283 283 283 282 280 280 281 279 280
300 300 300 300 300 299 300 299 299 297 293 286 283 283 282 280 282 282 282 277 280 285 285 285 284 283 282 281 279 273 275 275 275 269 270 275 281 282 282 283 283 283 279 279 282 282 280 279 279 279 277 278 276 278
300 300 300 300 298 299 299 298 297 294 289 283 281 277 280 280 282 285 285 285 285 287 285 284 282 280 278 275 277 273 274 272 273 270 271 276 281 282 282 283 282 280 278 278 282 280 278 278 277 279 280 278 277 277
300 299 297 299 299 299 298 296 294 290 283 281 279 274 280 282 281 283 285 285 287 285 283 280 274 273 272 271 269 272 270 268 270 269 274 278 282 282 283 281 282 282 281 282 282 281 280 277 277 281 281 279 278 277
299 294 299 298 298 296 296 291 288 283 279 275 273 282 275 274 276 278 285 285 287 284 279 275 269 270 272 266 268 272 268 270 271 274 276 280 282 282 282 282 280 280 281 281 281 280 280 280 277 275 276 281 280 279
294 298 299 299 295 293 289 285 281 279 276 276 275 274 282 277 276 280 281 280 285 282 279 277 275 267 264 265 267 270 272 272 274 275 278 280 282 282 282 281 282 282 282 281 279 279 278 276 277 280 280 281 281 280
297 297 298 296 293 285 282 282 282 275 274 273 274 276 274 275 280 278 277 279 284 284 281 274 266 268 270 271 269 266 265 269 275 278 279 281 281 281 281 282 282 282 281 280 280 281 281 280 280 281 281 280 282 284
298 297 296 295 292 282 278 277 281 277 274 276 274 275 274 274 277 279 282 278 277 282 281 276 273 272 272 274 276 275 276 277 275 276 279 278 280 281 281 282 282 282 281 280 278 275 278 279 279 279 279 284 284 284
294 294 294 290 283 282 279 275 274 275 276 275 274 274 271 277 278 278 279 283 280 278 274 276 272 277 279 279 278 279 279 279 279 277 278 279 280 280 281 281 280 278 274 272 275 281 282 282 283 283 285 284 284 285
292 294 287 287 279 276 277 276 275 275 273 271 271 272 266 265 273 277 280 279 278 276 278 278 281 280 280 280 281 281 281 281 281 280 278 279 279 278 277 278 272 274 273 274 276 278 282 283 284 285 285 284 284 285
291 287 281 278 275 271 273 276 270 273 268 268 269 268 265 264 268 278 276 279 276 279 279 279 281 282 282 282 281 282 282 281 280 280 280 280 280 278 274 275 273 274 274 277 276 277 282 283 284 285 285 284 284 283
289 281 277 274 271 270 276 274 273 270 267 265 265 267 266 265 269 273 270 267 276 276 277 281 279 278 278 278 278 280 281 280 280 279 277 275 276 278 275 276 273 273 276 278 278 282 281 282 285 284 284 282 282 281
278 277 273 273 275 272 271 264 266 274 273 264 265 263 265 265 265 263 265 269 267 268 273 274 274 277 275 273 274 277 277 279 277 276 279 276 274 270 273 273 274 275 273 270 272 275 281 283 283 282 283 282 281 281
268 276 274 270 273 266 265 266 270 269 259 261 267 263 258 260 262 265 269 269 266 268 267 268 269 270 273 277 276 276 279 275 274 273 279 276 276 275 273 271 273 274 272 279 281 282 282 281 281 281 281 281 281 281
268 274 278 276 273 270 263 261 264 261 259 263 262 260 261 262 262 269 272 272 274 274 275 275 276 277 278 279 278 278 275 273 276 278 274 274 275 276 275 273 278 280 280 281 279 281 280 280 280 280 281 281 281 282
269 269 271 272 273 269 262 259 261 263 264 268 264 263 265 266 268 272 276 277 275 275 275 276 276 277 277 277 275 271 276 276 275 269 272 278 278 279 276 273 278 281 279 280 281 282 281 282 281 280 280 280 280 282
276 272 270 270 264 263 266 268 267 270 273 271 268 265 268 272 272 272 273 272 270 272 273 272 274 268 272 272 274 282 279 279 280 278 277 276 270 275 276 273 276 280 281 280 281 281 280 275 274 274 275 277 280 281
274 273 268 265 267 269 272 275 269 267 269 271 272 273 272 271 267 269 269 270 273 274 276 276 278 277 278 278 280 279 276 276 277 278 276 271 270 269 269 270 270 274 277 279 280 279 279 267 268 269 272 273 272 272
267 270 271 269 267 267 270 262 259 261 261 266 265 271 276 269 268 264 268 265 266 267 268 267 268 269 269 270 271 272 274 272 272 270 270 270 270 270 269 268 267 267 271 273 276 277 271 267 264 262 266 273 270 268
272 267 266 263 265 265 260 266 260 261 262 261 272 260 262 263 259 263 268 266 266 266 266 267 266 267 270 272 272 272 272 271 271 270 270 270 269 268 266 264 262 263 263 265 267 264 264 263 262 262 261 264 264 264
261 259 262 258 262 263 260 262 260 262 257 256 258 258 257 261 262 266 269 269 268 267 266 267 269 270 271 271 270 270 270 270 270 269 268 269 266 264 262 260 258 258 258 259 259 259 260 259 259 259 259 260 260 260

GFSWCAN_sfc_thetae_003.txt.gz
Theta_e
306 305 306 306 306 306 306 307 307 307 307 306 307 307 307 306 307 310 307 306 303 293 298 302 301 297 296 295 292 294 294 292 290 286 286 286 284 286 286 287 285 285 283 281 281 280 279 292 292 290 294 295 296 296
305 306 305 305 305 306 306 306 306 306 306 306 306 306 307 307 307 308 307 306 305 301 300 305 308 306 304 301 297 293 296 293 294 288 286 286 284 282 285 285 289 285 289 287 287 287 293 294 296 298 297 295 294 293
304 305 305 304 305 305 306 306 305 305 305 305 305 306 307 307 307 308 305 304 301 292 298 301 301 305 309 307 306 297 292 298 295 296 290 287 286 287 284 284 287 291 293 290 289 294 294 297 298 298 296 296 294 295
303 303 304 304 304 304 305 305 305 305 305 305 305 305 306 306 306 306 305 302 300 293 287 295 301 302 307 309 308 306 301 299 297 294 287 286 286 293 287 292 291 294 294 291 290 295 296 296 298 299 295 296 294 295
303 303 303 303 304 304 304 305 304 304 305 306 304 305 305 306 306 306 305 306 305 302 290 291 299 302 303 306 306 304 302 299 295 290 287 288 291 291 289 288 287 295 294 290 290 296 296 296 298 298 294 293 293 291
302 302 302 303 302 303 304 304 304 304 304 304 305 305 306 305 306 305 300 304 306 306 292 289 296 295 298 302 302 301 302 299 298 294 289 294 298 294 286 285 294 297 299 299 296 297 295 295 295 294 292 291 291 291
302 302 302 302 302 302 303 303 304 304 304 304 304 305 305 305 309 304 299 301 304 303 290 288 288 291 295 296 295 296 297 297 298 295 290 291 293 295 286 287 294 297 298 297 297 295 290 291 290 292 292 291 291 290
302 301 301 302 302 302 302 302 303 303 304 304 304 304 304 305 305 303 304 305 304 299 294 287 287 288 294 289 288 293 290 293 295 295 290 290 291 289 287 293 293 293 294 293 292 294 293 291 290 290 290 290 288 287
301 300 301 301 301 302 302 302 303 303 304 304 304 305 304 301 297 300 303 304 303 299 290 286 286 286 293 290 289 288 290 287 291 286 287 290 287 286 289 288 289 290 291 289 290 288 289 289 289 289 289 288 287 286
301 300 300 301 301 301 301 302 303 303 304 304 302 298 289 293 302 303 299 294 291 291 291 286 289 288 294 288 287 288 286 286 285 287 288 285 286 289 288 290 291 290 290 290 287 286 287 287 287 287 287 288 287 286
301 301 300 301 301 301 301 302 303 303 302 297 291 288 296 302 297 292 286 287 287 286 287 287 287 287 291 287 286 286 285 285 281 282 284 283 283 285 287 287 288 288 289 289 289 289 288 287 286 286 286 287 286 285
302 301 300 301 301 301 302 302 302 299 297 298 296 298 296 294 288 286 285 284 285 284 286 286 286 289 287 292 286 284 283 282 276 282 282 279 283 286 287 288 288 288 287 287 287 286 286 285 286 285 285 285 284 284
301 301 301 301 300 301 301 301 301 301 299 296 292 288 290 286 284 284 281 283 283 285 286 286 285 286 286 287 284 282 279 278 280 278 277 280 284 284 285 286 287 287 286 284 286 286 286 285 285 282 282 283 282 282
300 300 300 301 300 300 301 301 301 297 294 287 286 283 283 282 283 279 279 280 283 286 286 286 283 284 282 282 280 278 277 277 275 273 274 279 283 283 284 285 285 285 280 280 283 284 282 281 281 281 279 279 279 280
300 300 300 299 299 300 300 300 299 297 288 283 283 280 281 281 284 285 285 286 285 287 286 284 283 283 279 278 278 276 276 274 275 275 277 281 283 284 284 284 284 282 279 280 284 283 280 280 279 281 282 281 282 279
300 299 296 299 299 300 299 298 296 291 284 282 279 278 281 280 282 285 285 285 287 285 284 282 278 279 277 276 274 272 272 271 276 276 279 281 283 284 284 283 283 283 283 283 283 282 282 280 279 282 282 281 280 279
300 294 299 299 297 296 296 291 289 283 281 277 275 279 277 278 281 283 285 286 288 285 279 278 276 276 275 272 272 274 272 276 277 278 279 281 283 284 284 283 281 281 282 283 283 283 282 282 279 279 280 283 283 282
295 298 299 298 295 294 290 286 283 281 277 277 276 279 280 280 278 278 284 285 286 283 280 278 277 271 271 271 272 275 276 277 277 279 281 282 284 284 284 283 284 284 284 283 282 281 281 279 280 282 282 283 282 284
297 297 298 297 294 286 283 283 283 276 274 275 277 279 279 280 280 280 281 283 285 284 280 277 272 273 274 275 276 274 274 275 279 281 281 283 283 283 282 283 282 283 283 282 283 283 283 281 281 282 283 283 283 284
297 296 295 294 292 283 280 278 282 278 275 277 277 279 276 277 280 281 282 284 285 285 282 279 276 277 276 278 278 279 279 279 278 279 281 281 283 282 282 283 284 284 284 283 281 277 280 282 283 284 283 283 283 283
294 294 293 290 284 282 280 277 276 277 277 276 275 275 274 279 279 279 280 284 282 280 278 279 278 280 281 281 281 282 281 281 280 280 281 281 283 282 283 283 283 282 281 281 279 280 277 282 283 284 283 283 284 285
291 293 287 285 279 278 277 277 276 276 274 273 272 273 268 268 276 278 281 280 279 279 280 279 281 281 281 281 282 282 283 283 283 282 279 280 280 281 280 281 280 281 280 280 280 280 281 282 284 284 283 284 285 285
291 287 281 277 275 272 274 277 271 273 269 269 270 269 266 266 270 278 276 279 279 280 281 281 282 283 282 283 281 282 282 282 281 281 281 281 281 281 281 281 280 279 279 281 281 281 280 283 284 284 284 285 284 284
287 279 274 271 269 270 278 270 274 273 269 268 266 269 267 268 273 274 273 271 276 277 278 281 281 280 280 279 279 281 282 282 281 280 280 279 280 281 281 281 280 279 280 282 280 280 282 283 281 284 283 282 282 282
277 276 273 271 272 271 266 272 273 275 272 272 269 268 265 267 265 268 270 271 271 272 274 274 275 279 278 277 277 279 278 280 280 279 282 279 280 278 280 280 278 279 280 279 279 279 280 283 284 283 281 281 280 281
270 276 268 265 266 267 264 269 271 271 266 266 269 264 261 263 263 267 270 272 270 272 271 272 274 275 276 278 279 279 281 279 279 278 281 280 279 279 279 278 278 280 281 280 280 281 281 281 281 281 281 282 281 281
270 273 276 275 272 269 263 263 266 262 266 266 263 261 262 263 263 270 273 274 276 276 277 277 278 278 280 281 279 279 278 277 278 280 279 278 279 279 279 280 280 282 283 282 282 281 280 280 280 281 281 281 281 280
269 268 268 273 272 267 262 259 261 265 266 269 265 264 266 266 269 274 275 276 274 276 277 276 276 277 277 278 278 277 277 279 280 279 277 279 280 278 278 278 279 279 281 281 282 282 281 281 280 279 279 280 279 281
273 269 270 273 271 271 266 269 270 271 273 270 267 265 268 272 271 270 272 271 272 275 275 275 277 275 277 280 281 281 281 280 279 278 279 279 277 276 273 274 274 275 277 279 280 281 282 280 279 278 277 277 277 276
273 269 266 266 266 268 271 273 270 268 269 271 271 272 272 268 269 268 268 267 267 267 269 270 272 272 272 271 271 273 273 273 273 273 274 274 271 270 271 271 271 271 272 274 276 278 280 275 273 273 272 274 271 271
267 272 269 268 266 268 267 260 259 260 261 265 262 270 272 267 267 265 267 264 263 263 266 265 266 268 268 268 269 270 272 272 272 272 271 271 270 269 269 268 268 268 268 269 275 275 273 270 268 267 267 267 266 265
273 271 269 267 266 263 261 265 259 260 259 260 264 258 261 263 259 264 267 266 265 265 266 266 266 267 270 272 271 271 270 269 268 268 269 269 268 267 266 265 264 264 264 265 265 266 265 265 264 264 264 263 263 262
269 269 269 266 266 264 259 260 260 263 259 257 256 257 257 259 257 262 265 266 266 264 263 264 267 270 269 268 268 268 268 267 267 266 266 265 264 262 262 261 261 261 262 262 262 262 262 262 261 261 260 260 260 260

GFSWCAN_sfc_thetae_006.txt.gz
Theta_e
306 306 306 306 306 306 306 306 307 307 308 307 307 307 307 307 307 317 316 315 314 307 306 307 306 305 304 307 304 304 304 303 300 292 289 292 289 294 292 293 291 290 290 287 287 283 282 297 297 291 298 299 297 297
305 306 305 305 305 305 306 306 306 306 307 307 307 307 307 307 307 311 317 314 314 313 309 312 313 311 311 310 307 306 304 304 306 298 293 291 287 287 292 289 296 290 294 292 291 293 300 302 299 301 299 297 299 297
304 304 305 304 304 305 305 305 305 306 306 306 306 307 307 307 307 311 317 315 315 308 309 311 309 312 315 313 316 308 306 306 305 306 302 294 288 297 287 291 294 297 299 294 294 297 299 302 303 303 301 298 297 297
303 303 303 304 304 304 304 305 305 305 305 305 306 306 306 307 307 309 316 312 313 304 290 305 307 308 312 315 315 314 310 307 307 308 292 289 291 301 292 298 296 299 299 295 295 299 300 300 301 300 299 297 296 297
302 302 302 303 303 304 304 304 304 304 304 303 305 305 306 307 307 315 317 315 315 313 298 304 306 307 309 313 313 313 311 309 304 296 289 292 300 298 296 294 295 301 298 293 291 298 299 297 298 300 298 296 295 293
302 302 302 302 302 303 303 303 304 304 304 305 305 306 307 306 307 318 312 315 315 316 305 296 306 303 306 309 311 310 311 309 308 300 294 300 304 302 288 288 297 302 303 302 298 298 298 298 297 298 295 294 294 293
302 302 302 302 302 302 303 303 303 304 304 304 305 305 306 305 317 312 309 310 308 316 300 296 298 300 301 304 304 306 307 308 305 302 297 300 302 300 289 288 298 300 299 299 299 297 294 296 295 295 293 293 294 294
302 301 301 301 302 302 302 302 303 304 304 304 304 304 305 305 306 309 312 307 310 306 302 292 291 296 300 297 294 297 296 300 301 300 294 297 297 297 289 297 297 295 295 295 296 298 297 296 294 293 294 294 292 291
301 301 300 301 301 302 302 303 303 303 304 304 304 304 305 304 300 303 303 306 310 308 296 289 289 289 299 293 293 294 297 291 296 289 291 294 290 288 294 295 292 293 294 293 295 295 294 292 292 292 291 290 289 289
300 301 300 300 300 301 302 302 303 303 304 304 304 300 290 296 303 304 302 300 296 294 295 290 299 294 299 291 289 291 292 289 287 288 291 286 287 291 291 294 294 294 295 294 291 289 290 289 288 288 289 289 289 289
301 301 300 301 301 301 302 302 303 303 303 299 292 289 297 302 299 295 289 289 289 286 289 288 289 289 293 291 289 289 286 287 285 288 288 287 288 291 293 294 295 295 295 293 292 290 290 289 288 288 289 289 289 288
301 301 301 301 301 301 302 302 302 300 298 298 297 299 297 294 289 288 286 285 286 286 287 287 288 290 288 293 289 286 286 286 283 289 284 283 290 291 292 292 293 293 292 289 289 289 289 289 290 289 289 288 288 288
298 300 300 301 301 301 302 302 301 301 300 299 293 287 288 286 285 285 283 285 285 288 288 287 286 289 288 289 285 287 284 284 288 282 283 288 290 292 292 293 292 292 290 288 289 290 290 290 290 288 287 287 286 287
298 299 300 301 300 301 301 301 300 299 296 290 287 284 286 284 286 287 288 288 288 289 289 288 286 288 285 284 285 283 282 284 280 278 281 287 289 289 289 290 289 288 288 287 288 289 289 287 287 287 285 285 284 284
298 299 300 300 300 300 300 298 298 298 293 287 289 283 284 285 287 287 288 289 288 290 289 287 286 289 284 282 283 281 279 278 281 282 286 289 288 288 288 287 288 288 287 286 288 288 286 286 286 286 287 287 287 285
299 300 300 300 299 299 298 298 297 294 289 286 285 283 284 285 284 285 286 286 288 287 287 289 285 284 282 283 280 280 279 278 282 287 289 288 287 288 288 289 288 288 287 287 287 287 287 286 285 287 287 286 285 285
298 296 299 299 297 295 295 294 294 286 285 285 283 285 285 286 287 287 288 287 289 287 285 285 282 281 281 280 279 281 280 284 287 287 288 287 287 288 289 288 287 286 286 287 287 288 287 288 287 285 285 287 287 288
295 298 299 298 297 295 292 292 288 286 282 283 284 284 285 285 285 286 288 288 288 286 285 284 282 279 279 278 280 284 285 287 287 287 287 288 288 289 289 288 288 287 287 287 287 287 287 285 286 288 287 287 285 286
298 298 298 298 297 294 289 287 287 283 282 283 283 284 285 285 284 284 286 287 289 289 286 285 282 280 281 282 285 286 287 287 287 287 287 288 288 287 287 287 286 286 287 287 288 288 289 288 288 288 287 287 284 285
298 296 295 294 295 291 285 285 288 285 283 283 283 284 284 283 283 284 286 288 288 288 285 283 283 285 285 287 287 288 288 288 286 285 285 287 288 287 287 287 288 289 288 288 288 286 287 288 290 289 289 287 285 285
292 293 293 293 289 288 286 284 284 285 284 284 282 285 281 283 282 283 283 286 285 285 283 286 287 289 288 287 288 288 287 287 286 286 286 285 288 288 287 288 288 288 287 288 288 288 285 287 289 288 287 285 285 286
290 293 289 288 285 284 283 284 285 284 284 283 283 284 282 281 280 281 284 282 282 285 287 287 288 288 287 286 287 288 288 287 287 287 285 286 286 287 288 288 288 288 288 288 288 288 288 289 288 287 286 285 285 286
291 289 285 285 282 282 279 284 282 281 280 280 281 280 280 281 280 281 279 281 283 287 288 288 288 288 287 288 287 287 287 286 287 288 288 288 288 289 288 288 289 286 286 288 289 288 287 286 286 286 286 285 285 284
289 284 281 280 281 277 282 279 281 280 280 278 279 275 276 279 278 277 276 279 284 286 285 286 287 286 287 284 285 286 287 288 288 288 289 287 287 288 289 289 289 288 287 288 288 287 287 285 285 285 285 284 284 283
283 279 280 276 279 276 276 276 277 278 275 276 274 275 276 277 276 275 275 281 284 285 286 285 284 285 285 287 287 287 286 287 287 286 289 289 288 287 287 289 289 288 288 284 284 285 285 285 285 285 284 283 283 283
275 278 277 276 276 276 276 273 274 275 275 273 275 275 275 277 275 276 279 284 285 286 286 287 288 286 285 286 285 286 288 288 287 285 287 288 287 285 284 284 284 286 287 286 284 283 284 283 283 282 282 282 282 281
274 275 279 280 279 276 274 274 275 275 272 273 276 273 275 273 274 279 283 282 283 282 283 284 283 283 283 284 285 286 286 286 285 285 286 285 285 284 283 282 282 284 285 285 284 284 282 282 282 282 282 282 282 281
278 279 274 277 277 278 275 275 274 274 277 278 277 273 274 276 277 280 279 278 278 280 282 282 282 280 281 282 282 282 281 283 283 284 284 284 283 283 281 281 281 279 282 283 283 283 283 282 282 281 281 281 281 281
279 279 279 274 274 275 277 277 278 280 281 279 278 278 279 279 274 274 274 274 276 277 276 275 276 277 279 279 280 279 278 278 276 276 277 279 282 277 277 277 278 278 279 279 280 280 281 281 280 280 280 280 279 279
278 280 277 274 273 275 281 282 282 281 281 282 282 280 278 273 271 273 273 272 271 271 272 272 272 273 272 272 273 276 276 275 274 273 272 272 272 274 274 274 274 275 275 276 277 279 279 279 278 278 277 276 275 274
279 279 278 278 277 281 280 275 276 276 278 281 280 281 281 270 270 271 270 271 271 271 270 270 271 272 272 271 271 271 271 272 271 271 271 272 272 272 271 271 272 272 273 274 275 276 275 275 274 273 271 270 269 269
278 277 277 274 278 277 276 276 277 277 279 277 279 274 272 272 267 268 268 269 269 267 266 267 268 269 271 271 271 271 269 270 269 268 268 268 269 268 269 269 269 270 271 272 272 272 271 271 270 269 269 267 266 265
274 274 274 274 275 276 274 273 274 273 274 274 272 271 269 268 263 266 269 269 268 267 266 267 268 269 271 270 269 269 269 269 268 267 266 265 264 264 265 266 266 267 268 269 269 269 268 267 266 265 264 263 263 262

GFSWCAN_sfc_thetae_009.txt.gz
Theta_e
306 306 307 306 306 307 307 307 307 308 308 308 308 308 307 307 308 318 321 322 320 312 310 311 311 310 310 310 306 309 306 307 306 292 293 296 291 297 295 296 293 291 290 286 289 285 283 300 299 293 300 303 302 299
305 306 306 305 305 305 306 306 306 307 308 307 308 308 308 307 307 310 321 320 321 318 313 317 316 316 316 315 311 311 307 307 308 303 298 297 289 291 294 291 299 292 296 294 294 294 302 303 302 305 304 301 300 298
304 304 305 305 305 305 305 305 306 306 307 307 307 309 308 308 308 311 323 322 322 316 314 313 311 316 317 318 321 310 312 310 310 314 306 298 288 299 288 294 299 299 302 298 296 299 300 301 304 304 303 301 299 298
303 303 303 304 305 304 305 305 305 305 306 306 307 307 308 307 308 309 321 320 320 311 294 310 312 313 316 319 318 318 314 315 314 312 296 292 292 304 296 300 299 301 301 298 298 301 301 303 302 302 301 301 300 300
302 302 302 303 303 304 304 304 304 304 305 305 305 305 306 308 308 319 322 320 320 316 302 308 311 311 314 316 315 315 314 312 310 300 291 294 305 304 302 298 298 302 300 297 295 301 300 300 302 302 301 299 298 296
302 302 302 302 302 303 304 303 304 304 303 304 306 306 307 307 308 321 314 321 320 320 310 299 311 308 311 313 314 313 313 312 311 305 296 305 308 304 289 292 300 303 304 305 302 304 302 301 300 301 299 297 297 295
302 302 302 302 302 302 303 303 303 303 304 305 305 305 306 306 318 314 311 313 309 322 307 298 303 305 306 311 312 311 312 311 309 305 301 302 305 304 294 292 299 302 304 303 303 301 295 297 297 298 297 296 296 296
301 301 301 301 302 302 302 303 303 303 304 304 304 305 305 305 307 312 317 310 313 315 310 296 295 300 305 302 300 305 303 304 305 305 299 299 303 300 292 299 302 303 301 299 298 299 298 299 298 296 296 295 292 291
300 301 301 301 301 301 301 302 303 303 304 304 304 304 308 307 306 312 304 309 318 313 302 290 290 290 304 298 298 298 300 292 301 293 295 298 294 291 297 299 300 299 298 295 298 298 298 295 294 293 292 291 290 290
301 301 301 301 301 301 301 302 303 303 303 303 304 301 292 298 304 305 311 306 301 303 304 292 302 293 301 294 291 292 294 291 288 291 292 286 288 297 300 300 300 299 300 300 295 293 293 291 290 290 290 291 291 290
301 301 301 301 301 301 303 302 303 303 303 299 293 289 298 302 301 297 291 291 293 289 293 296 297 294 300 292 290 292 288 288 286 289 288 289 289 295 299 297 298 299 299 298 296 294 291 290 290 290 290 291 290 290
300 301 301 301 301 301 302 302 302 302 300 298 298 300 298 294 290 291 287 286 287 289 289 288 291 296 292 296 288 286 286 286 285 293 287 284 293 296 296 297 297 298 296 293 292 290 291 291 291 291 291 290 290 290
299 299 301 301 301 301 302 301 300 301 302 298 291 287 287 285 284 284 283 285 285 286 287 287 286 288 288 290 286 287 285 286 291 284 284 291 295 295 297 296 295 295 293 290 290 291 291 291 291 290 289 290 288 289
298 299 301 301 300 301 301 301 300 300 299 288 285 284 285 285 286 287 288 287 288 289 288 287 286 286 287 286 287 285 285 288 282 281 284 293 293 295 296 296 294 292 289 288 289 290 290 290 290 290 287 287 286 287
298 299 301 301 300 299 298 299 299 300 294 288 288 284 284 286 287 286 287 288 289 291 290 291 290 292 287 285 287 284 281 281 283 285 290 293 294 294 292 291 290 289 288 288 290 289 288 288 288 289 290 290 289 287
298 300 302 300 300 299 298 298 298 296 292 289 287 285 286 286 285 285 286 286 290 290 292 292 287 286 284 286 282 282 282 281 286 290 293 292 290 290 290 291 290 290 289 289 289 289 289 288 287 289 290 288 287 286
298 299 300 298 297 296 297 296 294 288 288 287 285 289 287 288 287 286 289 289 292 289 286 288 283 283 284 283 282 286 284 288 290 291 291 290 289 290 291 291 289 289 289 289 289 289 289 290 289 288 286 290 290 289
298 301 299 298 300 298 293 296 292 290 285 288 287 286 287 288 287 288 289 290 289 287 287 286 286 282 282 281 283 289 289 291 291 290 289 290 290 291 291 291 291 291 289 289 290 289 289 288 288 289 290 290 290 290
300 302 299 298 299 294 290 290 292 286 286 287 286 288 287 286 287 288 288 288 290 290 288 287 284 283 283 285 287 289 291 290 289 290 290 291 290 289 289 289 289 289 289 289 289 290 290 290 291 291 291 290 290 290
297 297 296 295 296 294 287 288 292 288 286 287 287 287 286 286 286 286 287 288 289 289 286 285 286 288 289 290 291 291 291 291 290 288 288 289 290 289 289 289 289 290 290 290 290 288 290 291 291 291 292 291 289 287
293 293 293 295 295 293 290 289 287 288 287 286 286 288 284 285 284 284 285 289 287 287 285 289 291 292 292 292 292 292 291 290 288 288 288 287 290 290 289 290 291 291 290 290 291 291 290 291 291 292 289 287 287 288
291 292 287 290 288 288 287 289 288 289 288 286 286 289 284 282 282 283 286 284 284 288 290 290 291 291 290 290 290 291 290 290 290 289 286 287 288 289 289 290 290 290 291 291 291 290 291 292 293 292 288 285 287 288
291 289 286 286 284 285 281 289 285 284 282 282 285 282 282 283 284 285 282 285 287 290 291 291 291 291 290 290 289 290 290 289 289 289 290 290 290 292 291 291 292 290 289 290 292 292 291 289 289 286 286 286 286 286
290 285 283 282 284 280 284 281 285 283 284 282 282 279 280 283 282 281 280 284 287 290 288 288 289 288 289 288 288 288 289 290 290 290 291 290 289 289 291 290 291 293 292 292 291 289 289 286 286 286 286 285 285 284
283 280 282 278 282 280 279 279 280 281 279 280 278 279 279 282 280 279 279 285 288 288 288 289 289 288 287 288 288 289 290 290 289 288 291 291 291 291 290 290 290 291 292 287 285 285 285 286 285 285 285 284 283 283
278 279 280 280 279 280 280 277 278 278 279 278 279 280 281 280 277 278 281 286 287 286 284 285 286 287 287 288 287 287 288 289 288 286 288 290 289 288 286 284 285 288 291 289 286 284 285 285 284 284 283 283 283 283
277 278 281 283 283 281 279 280 281 280 277 277 279 278 279 275 276 281 285 283 284 283 285 285 284 284 284 284 285 284 283 283 283 282 284 284 284 285 284 283 283 284 284 285 284 284 284 283 283 283 283 283 284 283
281 282 277 280 281 283 279 279 278 278 280 282 282 277 276 278 279 281 280 280 280 282 283 283 282 281 281 280 281 280 280 280 281 283 285 286 285 280 280 280 281 280 281 282 282 282 283 283 282 283 282 282 282 283
281 283 281 276 278 280 280 280 281 283 285 283 281 280 282 279 277 277 277 278 279 279 278 277 278 279 279 279 280 279 277 276 274 273 273 275 276 277 277 277 277 278 278 278 279 280 281 281 280 280 280 280 280 280
279 284 280 277 276 278 283 286 285 285 286 287 286 283 279 275 274 276 275 276 274 274 275 275 275 275 274 274 274 276 276 275 273 271 270 271 272 275 275 275 274 275 275 276 277 278 279 280 280 280 277 277 275 275
282 282 280 280 280 284 283 282 282 282 283 284 286 283 278 273 272 273 272 273 274 273 273 272 273 273 272 272 272 271 271 274 272 271 271 271 272 272 272 271 273 273 273 274 275 275 275 276 276 275 273 272 271 271
281 279 279 277 280 281 282 281 282 281 283 281 282 279 276 275 271 270 271 272 272 270 269 270 270 270 272 273 273 273 271 272 271 270 269 268 269 269 269 269 270 271 271 271 273 273 272 272 272 271 271 269 268 267
278 278 278 277 278 277 280 279 279 278 279 278 276 276 273 273 267 270 272 272 270 269 269 269 270 271 272 272 272 271 271 271 271 270 269 267 266 266 266 268 266 266 268 270 270 270 269 269 268 268 266 265 264 263

GFSWCAN_sfc_thetae_012.txt.gz
Theta_e
307 307 307 306 306 307 307 308 308 309 309 310 308 308 308 307 308 316 322 324 322 314 312 314 314 313 311 311 307 309 306 308 307 292 293 297 292 297 296 296 291 288 288 286 289 285 283 301 299 293 300 304 302 301
306 306 306 306 306 306 306 307 307 308 308 309 310 308 308 308 307 310 321 322 324 319 314 319 317 318 315 314 314 313 307 308 308 302 300 300 289 291 293 292 299 293 297 295 294 293 302 305 301 304 304 301 300 300
303 305 305 306 305 306 305 306 306 307 308 308 309 309 308 308 308 311 322 323 324 319 314 313 311 316 319 319 323 311 316 312 311 315 303 296 287 298 288 294 298 299 302 299 298 299 300 302 304 305 304 302 301 300
302 303 304 305 306 305 305 305 305 306 307 307 308 309 308 308 308 309 321 322 321 311 292 311 316 314 317 319 318 320 317 318 317 310 295 291 289 304 297 298 299 300 301 299 298 301 302 303 303 302 301 302 301 301
302 302 302 303 304 305 305 304 304 304 305 304 305 305 306 309 308 317 323 321 321 317 300 310 312 314 315 317 316 316 317 314 311 298 290 292 305 305 302 300 298 301 298 296 295 302 302 301 302 302 300 300 300 296
302 302 302 302 302 303 304 304 304 304 303 304 305 306 307 307 307 321 313 321 320 322 309 297 312 309 312 314 314 313 314 314 311 304 296 304 309 305 291 292 300 302 303 304 301 305 304 303 301 301 300 299 297 296
301 301 302 302 302 302 303 303 303 303 303 304 305 305 305 306 318 313 309 311 308 320 306 297 302 307 308 312 312 312 313 312 310 309 302 302 305 304 291 290 299 302 303 304 305 303 298 299 297 299 298 297 296 295
301 301 301 301 301 301 302 303 303 304 304 304 305 305 305 304 307 312 315 311 311 316 311 297 296 301 307 305 301 306 302 305 306 304 300 300 304 297 291 299 301 302 303 302 301 301 300 300 299 298 297 295 291 291
301 301 300 301 301 301 301 302 303 303 304 304 305 305 311 311 310 314 305 307 320 313 303 290 290 289 305 297 297 299 301 291 302 291 295 298 294 290 297 299 300 302 300 298 299 299 299 298 296 294 292 291 290 290
301 300 300 301 301 301 302 301 302 303 304 304 305 301 293 298 304 305 311 309 306 309 305 292 302 294 301 294 291 293 292 291 288 292 294 287 290 298 301 302 303 301 301 300 297 295 295 293 291 290 290 291 290 289
301 301 301 301 301 301 302 302 303 303 304 300 293 290 298 302 304 300 295 295 296 290 296 296 299 294 301 292 289 293 288 289 286 289 289 287 287 294 300 301 300 301 301 300 299 298 294 292 290 290 291 291 289 289
301 301 301 301 301 301 301 302 302 303 300 298 298 299 298 294 289 290 287 288 288 291 291 288 291 297 294 300 293 288 287 286 285 292 286 285 293 298 299 297 298 299 299 296 294 292 291 291 291 291 291 290 289 288
299 301 301 300 301 302 301 301 301 301 301 297 291 288 289 285 284 284 283 285 286 286 287 287 286 289 289 291 286 286 284 285 289 286 284 289 295 296 297 297 297 295 292 292 291 291 291 290 290 289 287 288 286 287
298 300 301 300 300 301 301 300 300 301 297 288 285 284 285 284 285 285 285 285 286 287 287 287 286 287 286 285 285 284 286 288 283 282 283 292 294 295 297 297 295 291 285 287 289 290 288 289 288 287 286 285 284 285
298 300 301 300 299 299 298 298 299 301 296 288 287 284 285 286 286 286 285 287 287 289 287 286 286 288 285 284 285 285 282 281 283 284 288 292 293 293 292 293 289 287 285 287 290 288 285 285 286 287 288 288 288 285
299 298 301 300 299 299 299 300 298 298 294 290 288 285 286 286 285 285 285 285 290 288 290 290 285 285 284 285 283 283 282 281 286 290 293 291 290 290 290 290 290 290 289 289 289 288 287 285 284 288 289 287 286 285
297 299 300 299 297 297 298 297 293 288 289 285 286 289 287 287 286 286 288 288 292 288 285 287 284 281 285 283 282 285 284 287 291 291 290 290 289 290 290 290 287 288 289 289 289 288 288 288 287 287 286 288 288 288
299 301 299 299 300 298 295 296 291 290 285 288 287 287 288 288 287 287 289 291 290 288 289 285 287 283 282 281 283 288 290 292 291 290 290 290 291 291 290 290 290 290 289 288 287 288 288 286 287 288 288 289 289 288
298 301 299 298 299 295 289 290 293 286 286 288 287 288 288 287 288 289 288 289 290 290 289 288 284 283 285 287 289 290 292 291 289 289 290 291 290 289 288 288 288 288 288 288 288 289 289 289 289 289 290 290 289 290
296 296 296 295 296 292 288 289 294 288 286 288 288 287 286 285 286 286 287 287 289 288 285 284 286 290 290 291 292 293 293 293 291 289 288 290 291 290 290 290 289 289 289 289 289 287 290 290 291 291 290 290 289 288
294 293 293 295 295 294 291 289 288 289 288 286 287 288 283 286 285 286 286 289 286 286 285 290 293 293 293 292 293 293 291 291 289 290 288 287 290 290 289 290 290 290 290 290 290 289 288 289 290 291 288 287 286 286
291 293 288 288 287 287 288 291 288 290 287 286 286 288 283 282 282 284 286 284 285 288 290 291 291 293 292 291 292 292 291 290 291 290 287 287 288 289 289 291 290 289 290 289 289 288 289 290 290 290 287 286 286 286
291 289 287 285 284 285 283 290 285 286 282 282 285 282 282 282 284 285 282 285 287 291 292 292 292 292 291 292 290 291 291 290 289 290 290 291 291 291 291 290 290 288 288 289 290 289 289 287 288 286 286 285 285 285
289 285 284 283 284 280 286 282 286 284 285 283 282 280 281 282 283 282 281 285 288 290 289 288 289 289 290 289 288 289 290 290 289 290 291 290 288 289 290 289 290 290 289 290 289 288 287 286 285 285 285 285 284 284
283 281 283 279 283 281 280 280 281 282 279 281 280 280 280 282 280 280 280 285 286 284 285 288 289 289 287 289 289 289 289 288 287 286 288 289 288 288 287 288 288 289 289 287 286 286 285 285 285 285 285 284 283 283
279 281 281 281 281 281 280 278 279 280 280 279 280 281 282 281 278 278 282 283 283 282 283 283 285 286 286 286 284 283 283 284 282 280 283 283 282 281 280 281 282 283 281 282 282 282 283 284 284 284 283 283 283 283
278 279 282 284 284 282 281 282 283 281 278 278 280 278 278 275 276 281 282 280 280 281 282 283 282 281 280 281 281 281 281 280 279 278 281 282 283 280 278 277 276 278 280 281 281 280 280 280 282 282 282 283 283 283
281 282 278 281 282 283 280 280 279 278 280 283 282 277 277 278 278 279 278 279 280 281 282 282 280 279 279 278 279 279 278 278 279 280 281 282 282 279 277 278 278 277 278 278 278 278 279 279 279 280 280 279 281 281
280 283 282 277 280 281 281 281 281 283 285 284 281 280 281 277 276 277 276 278 279 279 277 276 277 278 278 279 280 278 276 274 271 269 269 271 272 273 275 275 275 275 275 275 276 277 277 278 279 279 279 279 278 278
279 283 281 279 278 280 282 286 284 284 287 286 287 282 278 274 274 277 276 276 274 274 275 276 275 274 274 273 273 274 276 274 272 269 267 267 268 271 272 272 271 272 273 273 273 274 276 277 277 279 276 275 273 274
282 282 280 281 280 282 282 282 283 283 283 284 284 282 276 272 272 273 273 275 275 274 273 272 273 273 272 271 271 270 269 272 272 271 270 270 269 269 269 269 269 270 270 270 271 272 273 273 274 274 272 270 269 269
281 280 279 278 280 282 282 281 281 281 283 281 281 278 277 276 271 271 272 273 272 270 270 270 269 269 271 272 273 273 271 271 271 271 270 269 268 268 268 267 268 268 267 267 269 271 271 270 270 269 268 267 266 265
279 279 279 278 279 278 281 280 279 279 279 279 278 277 273 273 269 270 273 273 271 270 269 269 270 271 272 271 270 272 270 271 270 270 270 268 267 266 266 266 267 266 264 264 267 269 268 267 266 265 264 263 262 261

GFSWCAN_sfc_thetae_015.txt.gz
Theta_e
308 307 306 306 306 307 307 308 308 308 309 309 308 307 307 307 307 314 314 316 315 302 305 310 311 306 305 304 293 300 296 296 289 287 283 284 282 285 286 291 286 282 279 281 284 280 276 298 296 287 292 298 298 296
307 306 306 305 306 306 307 307 307 308 308 310 308 307 308 307 308 310 313 317 318 311 307 313 311 311 309 309 305 303 298 302 299 290 287 288 286 288 285 281 294 285 288 285 286 284 294 298 296 299 299 297 296 296
306 305 305 305 306 306 306 306 306 307 308 308 309 307 307 308 308 309 314 315 316 304 305 306 306 312 315 313 314 301 301 307 304 305 294 293 283 290 281 285 286 294 298 287 289 295 297 297 301 301 300 298 298 300
303 304 305 305 305 306 305 305 305 306 307 307 309 305 305 307 308 309 314 315 311 302 289 301 311 309 313 314 314 313 310 310 308 299 291 289 284 296 286 289 287 292 296 293 289 296 297 299 299 298 298 300 300 299
302 302 303 304 305 306 305 304 304 305 304 304 304 305 305 305 307 312 315 314 314 308 292 294 308 310 312 312 311 312 310 307 299 292 288 287 287 290 287 287 286 297 293 288 286 296 296 296 298 300 300 299 300 299
302 302 302 302 303 304 305 304 304 302 303 304 305 306 306 305 306 313 307 313 310 314 298 289 305 305 308 309 308 307 308 306 303 293 288 295 303 293 286 284 296 300 301 300 295 301 300 299 299 301 299 299 299 294
301 301 301 302 302 302 303 304 303 302 302 304 305 306 306 306 310 306 303 306 305 310 294 290 294 301 303 306 304 305 307 303 302 295 292 289 293 297 287 287 296 300 300 300 301 298 295 297 296 299 297 296 295 293
301 301 301 301 302 302 302 303 304 304 303 303 304 305 306 305 305 307 309 308 306 307 299 290 291 291 303 292 292 299 293 297 300 296 294 289 292 288 286 295 299 301 301 299 298 299 298 298 298 297 296 291 288 287
300 300 301 301 301 301 301 302 303 304 304 304 305 306 309 306 300 306 305 305 312 305 292 287 287 286 299 293 292 291 295 288 295 288 290 293 288 288 293 296 298 298 297 296 297 298 298 297 297 292 289 288 287 286
300 300 300 300 301 302 302 302 303 304 304 304 306 302 293 297 303 304 306 297 294 294 296 289 294 289 295 289 288 288 287 287 286 288 292 286 287 293 296 298 298 298 298 299 295 294 296 291 288 287 287 288 287 286
301 301 301 301 301 301 302 302 303 303 304 300 293 290 297 302 302 296 290 291 291 288 292 292 291 290 294 287 287 288 286 286 284 284 286 284 285 290 295 296 298 300 300 299 296 293 291 289 287 287 287 286 285 284
301 301 301 301 301 301 302 302 303 301 298 298 297 299 297 293 289 289 287 287 287 287 288 288 289 292 290 295 287 286 286 285 282 288 285 282 285 293 294 295 296 297 294 292 292 290 290 290 289 286 285 284 285 284
300 300 301 301 301 301 301 301 300 300 300 296 292 287 290 285 284 284 283 284 285 285 287 286 286 286 288 289 285 285 284 283 286 284 281 282 292 294 294 289 289 289 288 289 289 289 288 288 287 284 283 284 280 284
299 300 300 300 301 300 299 300 301 300 295 288 286 283 284 283 284 283 284 284 285 285 285 286 285 285 285 285 285 283 284 284 281 278 276 286 291 293 293 290 288 286 284 285 285 286 284 284 283 282 280 280 277 281
299 300 300 299 299 299 299 299 299 298 292 286 286 282 283 284 285 285 285 285 286 288 286 285 285 286 284 283 284 282 280 279 281 281 283 286 288 289 287 287 285 283 282 283 285 284 281 280 281 283 283 283 283 279
298 299 299 299 299 299 299 299 295 295 286 287 285 283 284 285 284 285 285 285 288 286 287 286 284 284 282 283 281 281 280 279 282 284 286 286 286 286 286 286 286 286 285 285 285 285 284 281 279 284 283 282 281 282
298 297 299 298 298 298 299 295 291 287 285 285 284 286 286 285 285 285 286 286 290 286 284 285 282 279 282 280 280 283 281 284 284 284 284 286 286 286 286 286 284 285 286 285 285 285 284 284 281 281 282 285 284 284
296 298 299 299 299 298 295 294 288 285 282 285 284 285 285 285 285 285 286 287 286 284 284 282 284 280 279 278 279 283 283 284 284 284 284 286 286 286 287 285 287 285 284 284 282 284 284 280 283 283 284 285 284 283
297 298 298 298 296 292 287 287 289 283 283 285 284 285 284 285 285 286 286 286 287 286 285 282 280 279 279 281 283 283 283 283 283 284 285 286 286 285 285 285 285 284 284 284 284 283 283 285 284 284 284 283 283 283
296 296 296 297 296 287 285 283 288 282 283 283 285 284 283 283 284 285 285 286 286 285 281 279 280 282 282 283 284 284 284 284 283 282 282 284 284 285 284 284 283 284 284 285 284 281 282 283 283 283 282 280 278 279
295 293 294 294 290 291 285 285 285 285 282 283 284 284 281 283 283 284 285 285 285 280 278 280 280 283 286 285 284 284 285 285 283 282 281 281 282 282 282 283 284 282 281 280 279 281 278 281 284 283 279 281 283 282
291 293 287 289 285 285 283 284 283 282 283 280 283 282 281 280 280 281 283 281 280 280 283 281 283 283 284 285 285 286 286 285 285 283 281 280 280 280 281 281 280 278 280 280 282 283 282 283 280 278 282 285 286 285
291 289 286 285 283 283 281 284 283 283 278 281 283 280 279 280 281 282 280 281 280 284 284 285 286 286 285 285 285 285 285 284 281 281 282 281 281 280 280 282 280 277 280 282 281 280 282 279 278 275 277 284 285 285
290 285 284 283 283 280 283 281 281 279 282 280 279 277 279 280 277 277 273 275 280 283 283 284 283 282 282 283 282 282 282 283 282 282 283 282 281 281 282 282 281 281 281 282 282 282 284 284 279 283 283 283 283 280
282 280 281 279 280 277 278 278 279 275 271 274 272 273 272 274 272 269 271 277 280 279 282 281 283 283 281 281 280 280 280 279 278 277 279 278 277 276 277 278 278 278 278 277 278 277 278 279 280 280 281 282 280 276
276 279 278 279 278 279 278 273 276 274 273 274 275 276 274 271 268 268 277 279 279 279 279 279 277 279 278 279 277 277 278 278 276 274 276 277 277 276 274 273 273 273 274 276 275 274 273 274 275 276 278 280 279 279
276 278 281 282 282 281 279 280 280 278 275 273 274 272 270 266 266 275 278 278 278 279 281 280 279 278 277 277 277 279 276 275 273 275 276 278 275 274 272 270 270 271 273 273 272 272 272 273 274 274 275 277 278 279
280 280 276 279 279 279 275 275 273 272 274 278 275 269 268 268 272 276 276 278 278 280 280 278 277 276 277 275 277 272 269 269 270 270 273 276 273 270 269 269 270 271 269 271 270 271 271 272 272 274 275 276 277 274
279 281 279 273 274 275 274 273 274 278 280 277 272 271 273 274 273 275 275 276 277 276 273 272 272 272 271 270 273 271 265 264 264 260 258 258 263 264 268 268 267 266 267 268 269 271 271 272 273 273 274 273 273 269
277 281 276 273 271 274 279 280 281 282 279 280 278 275 273 272 272 272 273 271 270 270 271 272 270 264 263 262 262 264 269 264 260 260 258 258 263 265 266 265 265 265 266 266 265 266 269 271 272 274 271 269 269 266
280 281 279 279 278 280 280 281 281 281 281 282 280 276 269 268 268 269 269 271 270 265 265 263 263 263 260 261 263 260 260 260 263 265 262 261 261 258 261 263 263 264 265 263 263 264 265 268 270 268 266 265 265 263
280 278 277 275 277 279 281 279 279 279 274 278 277 275 272 268 263 264 264 267 263 261 262 260 260 262 261 264 262 263 268 265 262 260 261 262 260 260 260 261 263 263 260 259 261 262 266 266 265 264 264 262 261 260
276 273 273 269 269 269 274 269 269 268 268 268 271 269 266 263 260 263 267 268 262 260 259 259 259 260 264 261 259 263 260 258 260 268 265 265 262 260 259 261 263 262 258 259 261 264 262 263 261 260 259 258 257 257

GFSWCAN_sfc_thetae_018.txt.gz
Theta_e
307 307 306 306 306 306 307 307 307 307 307 306 306 306 306 307 307 313 310 313 309 299 302 308 308 302 303 299 292 298 295 293 288 283 280 284 278 284 284 288 285 282 279 278 278 271 275 294 294 287 290 295 296 294
306 306 305 305 305 306 307 306 307 307 308 306 306 306 306 307 307 312 308 314 314 306 304 309 309 309 308 306 302 299 295 296 294 288 286 288 280 286 283 281 292 284 286 283 285 284 292 295 295 295 298 296 295 294
306 305 305 305 305 306 306 306 306 306 307 307 305 303 304 307 308 312 310 311 309 298 301 303 304 310 312 311 310 299 297 305 301 298 291 286 281 286 282 285 286 292 295 286 288 293 294 296 297 299 298 296 297 297
305 305 305 305 305 305 305 305 305 306 306 305 304 304 304 304 307 311 309 310 305 297 288 298 310 307 312 312 312 310 307 306 301 296 288 287 282 292 283 286 285 290 294 291 287 293 295 297 297 297 297 297 298 300
304 304 304 304 304 304 304 304 304 302 304 305 305 305 306 305 305 311 310 308 310 302 291 292 305 308 310 310 310 309 307 303 296 289 286 286 285 288 286 285 285 295 292 287 287 293 294 295 296 298 297 298 299 299
302 302 303 304 304 304 304 303 302 302 303 305 306 306 306 306 307 311 303 309 307 308 294 287 300 301 304 308 307 307 305 303 298 292 288 291 299 289 286 287 293 298 300 298 295 299 299 298 298 299 299 300 300 294
301 302 302 302 303 304 304 303 302 302 303 303 305 305 305 304 307 304 299 305 305 306 292 289 289 298 301 303 299 300 301 300 299 291 288 288 290 294 286 285 294 298 300 299 300 298 294 295 295 299 301 296 292 289
301 301 301 301 302 302 303 304 303 303 303 304 306 306 306 305 306 305 306 305 305 302 295 287 286 289 300 290 290 296 291 296 296 294 292 289 290 287 287 294 297 299 300 299 298 297 296 297 297 296 294 289 288 286
300 300 301 301 301 301 302 303 304 304 304 305 305 306 305 303 298 304 303 303 308 302 290 286 286 285 296 292 290 288 293 286 292 289 289 292 287 288 292 294 296 298 296 296 296 297 298 297 296 290 289 288 286 285
300 300 300 300 301 301 301 303 303 304 304 304 303 298 295 297 303 304 301 295 294 294 293 287 291 288 294 287 287 287 286 287 286 287 292 286 287 293 293 296 297 297 297 297 295 294 295 289 288 288 287 287 287 285
300 301 300 301 301 301 302 302 303 304 304 300 294 290 297 302 299 294 290 290 290 288 291 291 290 288 291 287 287 286 286 285 284 282 285 280 284 288 293 294 296 297 297 295 296 295 291 289 288 287 286 285 285 284
301 301 300 300 301 301 301 302 302 300 298 298 297 299 297 293 289 289 287 287 287 287 287 287 288 292 289 292 287 286 285 285 281 287 285 282 286 291 290 290 290 291 291 290 291 290 289 288 287 285 283 283 283 283
300 300 301 300 300 300 301 300 300 300 299 297 292 288 290 286 285 286 286 285 285 285 286 286 286 286 288 289 286 285 284 283 286 284 282 284 292 290 288 288 288 289 288 288 288 289 288 287 286 284 282 283 279 282
299 299 300 300 299 299 299 300 300 299 295 288 286 283 285 282 283 283 284 285 285 285 285 285 285 285 285 285 285 283 284 284 281 278 276 285 290 291 289 288 287 286 283 285 285 285 285 284 283 281 280 279 276 280
298 300 299 299 299 299 299 299 299 295 288 286 284 281 280 283 285 285 285 285 285 287 286 285 285 286 284 283 283 282 280 279 280 280 283 285 288 288 285 286 284 283 283 284 284 283 281 280 280 282 282 281 282 278
298 299 297 298 298 299 299 296 294 290 285 286 285 283 284 284 284 285 285 285 287 286 286 286 284 283 281 282 280 280 279 278 281 284 284 285 286 286 286 287 286 286 285 285 285 285 284 279 277 282 282 281 278 277
299 294 299 298 298 299 298 292 287 286 285 284 283 286 285 284 284 285 285 285 289 286 283 284 276 277 282 280 279 283 280 283 285 285 285 285 285 285 285 286 284 285 285 285 285 284 283 283 279 279 280 284 283 283
295 296 299 299 298 296 292 292 286 284 282 284 283 284 284 285 285 285 285 286 285 284 283 281 283 279 278 277 279 283 283 284 284 284 284 285 286 285 286 284 285 284 283 283 281 283 283 279 282 282 283 284 283 282
296 297 298 298 296 287 287 284 287 281 283 284 284 284 284 284 284 285 285 286 283 282 281 279 277 277 278 280 281 282 281 281 282 283 284 285 285 285 285 285 284 284 284 284 284 282 282 284 283 283 283 281 280 279
296 296 296 297 295 282 284 280 284 281 279 280 284 283 282 282 283 285 285 285 285 284 280 274 276 277 279 280 280 280 280 281 281 280 281 283 283 284 284 283 282 283 283 284 283 279 282 282 283 283 281 280 283 285
294 293 293 293 289 287 280 282 284 284 284 283 283 283 281 282 282 283 284 284 278 275 277 279 277 280 282 281 280 280 282 283 281 279 279 279 280 280 281 282 282 281 279 279 276 280 277 279 282 282 280 282 281 282
290 293 287 288 285 284 279 284 282 279 283 282 283 282 280 279 280 281 283 278 280 278 281 279 281 281 282 284 284 284 284 283 283 281 280 279 280 280 280 280 280 276 277 276 280 281 280 281 281 282 282 279 276 283
291 289 286 284 277 279 276 285 280 280 277 280 282 279 278 279 281 282 279 281 278 282 282 283 284 285 283 283 282 281 282 282 280 280 280 279 279 278 277 277 276 274 276 278 279 278 277 277 279 280 282 282 282 282
290 284 281 274 280 276 279 276 280 281 280 279 278 276 278 279 279 276 269 276 282 281 280 280 281 281 281 280 278 278 278 279 278 277 277 276 275 276 276 276 276 275 275 275 275 274 274 274 274 275 276 277 279 279
281 273 275 269 279 277 271 271 275 276 276 277 276 275 271 272 267 265 267 276 279 279 278 277 279 280 280 278 278 278 278 276 275 274 275 275 271 271 273 274 274 272 272 270 270 270 270 270 271 271 273 273 274 276
271 272 270 269 270 276 275 270 272 272 272 273 272 275 270 268 271 266 275 277 277 277 277 278 277 276 277 277 276 275 274 275 274 272 274 274 272 268 266 266 267 267 269 268 269 267 267 268 268 269 269 270 272 275
269 269 277 281 280 281 278 277 279 277 274 273 272 271 268 266 263 275 277 277 277 278 278 278 278 277 276 275 275 272 271 271 270 271 273 272 270 269 267 265 265 266 267 266 267 266 266 266 267 267 268 270 272 273
277 274 271 277 279 280 277 276 276 276 276 278 276 271 270 268 270 273 275 277 278 277 276 276 275 274 274 272 270 267 267 266 266 268 271 268 266 264 263 261 262 267 263 262 265 265 264 265 266 267 269 270 271 269
278 281 279 276 275 274 275 275 274 278 281 275 269 267 271 272 271 273 273 274 275 275 271 270 269 269 269 269 265 263 261 262 260 257 254 253 255 258 260 258 257 260 261 262 264 265 265 266 266 268 271 269 267 266
277 279 274 271 272 274 277 279 279 280 279 277 274 273 271 269 270 271 270 269 269 268 269 267 263 262 256 256 256 260 262 256 256 256 253 254 258 261 257 258 261 260 261 262 261 261 262 262 264 267 266 266 264 263
279 279 278 277 276 278 278 280 280 281 281 281 276 271 268 266 266 266 267 266 264 263 263 259 258 255 258 259 258 255 257 260 260 259 257 258 257 253 255 257 257 257 260 260 258 258 260 260 262 262 261 261 260 260
278 276 276 274 273 277 280 278 275 276 268 277 272 271 268 262 258 262 263 262 259 257 255 253 255 258 258 259 258 256 258 256 256 258 260 259 255 254 255 256 256 257 258 254 254 257 260 258 258 257 257 257 257 257
265 261 262 260 264 264 268 264 262 263 265 267 268 263 261 261 259 262 263 258 258 255 255 254 253 254 257 256 255 254 255 253 254 260 260 262 258 256 255 253 253 250 250 250 252 255 253 253 253 256 255 255 255 255

GFSWCAN_sfc_thetae_021.txt.gz
Theta_e
306 306 306 303 304 305 306 307 306 306 308 306 306 306 306 307 309 310 309 310 306 297 301 306 306 301 300 297 291 296 294 292 285 282 279 280 276 284 283 286 285 282 281 277 278 272 276 292 292 287 290 291 296 295
306 305 305 305 305 306 306 306 306 306 306 307 302 303 304 306 308 310 308 312 310 303 303 307 307 307 306 303 300 296 296 294 293 286 281 283 278 286 281 280 289 283 285 283 284 284 291 293 292 294 295 295 295 294
305 305 305 305 305 305 305 305 306 306 304 302 303 304 304 305 309 311 309 308 305 297 300 303 303 309 311 309 308 297 294 300 297 294 289 287 279 283 281 283 284 290 292 285 286 291 292 293 295 296 296 295 295 296
305 304 305 305 305 305 305 305 304 303 303 304 304 305 304 306 309 310 308 307 301 295 288 296 308 305 310 311 310 307 305 301 298 293 286 286 281 290 282 286 285 289 292 289 286 291 293 296 296 297 297 296 297 298
304 304 304 304 304 304 304 302 302 303 304 304 305 305 305 307 308 310 307 305 307 300 290 291 303 306 306 309 308 307 305 300 294 289 286 286 284 287 286 285 285 292 291 285 286 292 293 293 296 297 296 295 297 297
304 303 303 304 303 304 302 301 302 303 304 305 305 305 304 307 310 306 299 307 306 304 294 288 298 300 303 306 305 305 304 300 296 292 287 289 294 288 286 287 293 296 297 295 293 295 295 295 295 297 297 298 298 292
303 303 303 303 303 303 301 301 302 303 303 305 304 305 304 306 306 301 295 303 304 303 292 289 287 296 299 301 297 299 299 298 297 292 287 288 290 293 287 285 293 296 297 298 298 296 292 294 294 298 299 295 291 289
301 302 302 303 303 303 302 302 301 302 303 305 306 304 304 306 306 304 304 303 303 298 293 286 285 288 298 290 290 295 291 294 294 292 291 290 289 288 286 293 295 298 298 296 297 296 296 296 297 295 290 288 287 286
301 301 301 301 302 303 303 303 303 302 304 305 305 305 304 302 299 303 303 302 304 299 289 286 284 284 294 291 290 289 292 287 292 288 288 289 287 285 291 293 294 295 295 295 295 295 295 294 289 289 289 288 286 285
300 300 300 300 301 302 302 303 303 302 304 304 302 296 288 298 303 302 299 293 292 294 291 286 290 287 294 287 287 287 286 288 286 286 292 286 287 291 292 293 295 296 296 296 292 291 289 288 288 289 289 289 287 286
301 301 301 301 301 302 302 303 303 304 303 297 296 290 297 301 297 292 289 287 291 288 291 289 289 288 292 287 286 285 285 285 284 283 286 283 284 287 290 291 291 292 292 292 293 291 291 289 287 286 285 286 285 284
301 300 300 300 301 301 302 302 302 300 297 297 296 298 294 290 287 287 286 287 287 286 287 287 288 292 289 291 288 286 284 285 281 286 285 282 284 286 287 287 289 289 289 288 289 288 288 287 287 285 284 283 283 283
300 300 300 300 300 301 301 301 301 300 300 298 293 289 291 286 286 286 284 284 285 285 286 286 286 286 288 289 286 285 284 283 285 284 282 284 288 288 288 290 290 291 289 289 289 289 288 286 285 284 283 284 281 283
299 299 299 299 299 299 299 300 300 298 295 289 287 284 285 283 283 283 284 285 285 285 285 285 285 285 285 285 285 283 284 284 281 277 275 284 287 287 286 285 285 284 283 287 286 285 284 283 283 281 281 280 279 281
299 299 299 298 299 299 299 298 298 296 290 286 284 280 280 283 284 285 285 285 285 286 286 285 285 286 284 283 283 281 280 278 279 276 283 284 285 286 285 286 286 285 284 284 283 283 280 279 280 281 282 281 281 276
299 298 297 298 299 299 298 295 292 290 284 286 285 283 284 284 284 285 285 285 287 285 286 286 284 282 281 282 278 277 277 276 279 283 284 285 286 286 286 287 288 287 285 284 284 284 283 279 278 282 281 280 276 275
298 295 298 298 298 298 297 290 286 285 282 285 283 285 285 285 284 285 285 285 288 286 283 283 274 276 281 277 278 282 279 282 284 286 285 287 286 285 285 285 283 285 285 284 283 283 283 283 278 278 280 283 283 282
294 297 298 298 296 293 290 288 282 282 281 284 283 283 284 285 285 285 285 285 282 284 282 280 282 277 275 275 277 282 284 286 285 285 285 286 285 285 285 283 284 283 283 284 282 283 283 278 281 282 283 283 282 281
294 294 297 297 295 286 284 284 284 282 282 283 283 283 284 283 284 285 285 283 281 281 281 278 274 275 277 280 279 280 280 280 281 282 283 284 284 284 284 284 284 283 283 283 283 281 281 283 282 281 282 281 280 280
296 295 295 296 294 282 282 280 284 281 279 282 283 282 282 282 283 285 285 285 281 278 276 274 276 277 278 279 280 279 279 280 280 278 279 280 281 282 281 281 280 281 281 281 281 278 280 280 281 281 281 280 281 282
291 291 292 293 287 284 281 282 283 284 284 282 283 282 281 282 282 282 283 282 275 273 276 278 275 278 281 280 279 279 281 282 280 278 278 278 279 281 280 280 280 279 277 277 279 279 279 278 279 280 279 280 281 282
289 293 285 288 284 281 279 283 283 283 283 282 282 282 279 279 279 281 282 278 278 277 280 278 280 280 283 282 280 281 282 282 281 280 279 278 278 277 277 278 276 274 277 277 277 276 275 276 276 275 275 275 277 278
290 288 286 285 275 279 274 285 280 282 279 279 281 279 278 279 280 282 278 281 281 282 280 281 283 283 281 280 279 279 279 279 277 277 277 277 277 274 274 275 274 272 271 272 274 273 271 269 271 270 271 272 272 273
290 283 280 278 279 269 272 275 279 278 275 276 278 276 277 278 279 277 269 276 281 280 279 279 280 280 280 279 277 276 276 277 277 275 275 274 274 274 274 273 271 269 269 270 270 266 267 266 266 268 268 268 268 269
280 277 279 270 279 269 266 266 272 274 270 276 276 275 275 276 266 271 266 277 278 278 278 279 281 280 278 277 277 276 275 275 274 273 273 272 268 268 269 270 270 268 267 264 263 265 264 264 265 265 265 266 266 266
273 272 275 268 269 272 268 266 270 270 268 272 274 276 273 273 272 267 275 276 276 277 276 277 277 276 276 277 275 273 272 273 273 271 271 270 268 263 260 261 262 263 266 261 262 261 262 263 263 262 264 264 265 267
272 266 275 280 278 277 274 274 277 277 272 274 273 273 274 272 271 273 276 276 277 276 278 278 278 276 275 272 271 270 269 268 267 270 269 268 267 266 262 257 259 263 265 262 259 259 260 260 260 261 262 264 266 266
276 273 272 274 277 279 275 276 276 276 277 278 277 273 272 270 270 272 274 276 275 276 274 274 273 272 271 269 268 266 266 265 269 268 267 265 263 259 258 257 258 264 258 256 255 258 259 260 260 261 262 264 263 264
277 278 278 276 276 273 276 276 276 279 280 277 270 271 269 270 268 270 271 272 273 271 269 268 267 268 267 266 263 262 260 259 258 255 253 251 253 256 258 254 254 255 254 255 259 263 263 263 263 264 265 265 261 260
275 279 272 271 271 272 275 277 277 279 279 274 273 271 269 267 268 269 269 268 266 265 264 262 259 261 253 254 254 258 259 256 255 255 252 252 256 257 252 253 254 254 254 252 256 257 258 256 256 255 256 256 258 258
277 277 276 275 275 276 277 279 280 280 280 277 273 269 266 264 264 266 265 263 263 260 259 256 257 251 255 254 252 252 254 254 252 255 256 254 253 251 252 253 252 251 251 251 250 250 251 251 249 249 250 251 252 253
277 275 274 273 272 275 268 271 272 264 273 275 269 267 261 257 255 260 262 258 256 255 252 250 253 255 255 256 253 252 255 253 252 252 253 254 253 251 251 252 249 248 247 247 247 249 248 247 247 247 247 248 248 249
260 259 260 258 262 265 266 260 259 261 265 269 262 261 257 259 258 260 261 256 256 254 253 252 251 251 253 253 253 252 252 251 251 257 257 259 254 254 250 248 246 246 246 246 246 246 247 247 246 246 246 246 247 248

GFSWCAN_sfc_thetae_024.txt.gz
Theta_e
306 306 304 304 304 306 306 306 306 306 306 305 304 305 307 309 309 313 307 308 304 297 300 304 304 299 298 296 291 295 293 292 285 283 280 279 277 283 283 285 284 282 280 275 276 270 276 290 292 286 290 289 293 293
305 304 303 304 305 305 306 306 306 306 302 303 303 304 306 308 309 311 310 310 308 303 302 305 306 305 304 301 298 295 295 293 293 285 279 279 278 282 281 280 287 282 285 281 283 283 289 291 292 293 292 292 293 293
304 303 304 305 305 305 305 305 304 303 303 303 304 305 306 307 310 311 309 305 303 297 300 301 301 307 309 307 305 296 292 298 294 292 285 282 279 282 280 282 282 288 290 283 286 289 290 291 293 294 294 294 295 295
304 304 305 304 304 304 304 303 302 303 303 304 304 305 307 307 308 309 306 304 299 294 288 296 306 304 308 309 308 304 301 298 295 291 285 283 280 287 280 284 283 288 290 287 285 290 290 293 294 294 295 296 296 297
304 304 304 304 304 303 302 302 302 303 304 304 304 306 308 307 308 308 305 304 304 299 290 291 301 303 305 308 305 304 302 298 294 288 286 285 283 285 285 286 284 291 289 285 284 291 291 292 294 296 296 296 296 296
304 303 303 303 302 302 302 302 302 303 303 304 304 305 306 307 306 302 298 304 306 301 294 288 296 298 301 303 303 302 302 297 295 291 287 288 292 288 286 286 291 293 294 293 292 293 293 293 295 296 295 295 296 292
303 303 303 302 302 302 302 302 302 303 304 304 304 305 305 306 306 298 294 301 303 300 292 289 288 295 297 298 296 297 298 296 295 292 287 287 289 290 286 281 293 295 296 296 296 295 292 293 294 296 297 292 290 288
303 303 303 302 302 301 301 301 302 303 304 305 304 305 305 305 305 302 303 303 303 296 292 285 284 288 296 290 290 296 291 294 294 292 290 288 290 287 286 291 294 296 297 296 296 295 293 294 295 288 288 288 288 288
301 302 302 302 302 302 302 301 302 303 305 304 304 304 304 301 300 301 303 302 302 298 287 285 283 282 294 291 289 290 292 289 292 288 288 290 286 286 288 289 291 293 293 294 293 294 293 289 287 288 289 289 287 285
300 300 301 301 302 302 302 301 301 304 303 303 302 297 289 298 302 302 298 293 292 291 293 286 289 287 294 287 287 287 287 288 287 285 292 286 286 290 286 287 288 290 293 294 290 287 287 287 288 287 288 288 286 286
301 301 301 301 302 302 302 302 303 303 303 298 293 291 297 300 297 290 287 286 291 288 290 289 288 288 292 288 287 285 286 285 285 284 286 284 284 284 286 287 288 289 289 289 289 289 289 288 286 285 285 286 286 284
300 300 300 301 301 302 302 302 302 299 296 296 296 296 293 290 288 286 285 286 287 284 287 288 288 291 288 289 287 286 285 285 282 285 285 281 283 287 288 289 289 289 288 288 288 287 288 288 288 286 284 283 283 283
299 299 300 300 300 301 301 300 300 300 299 295 291 287 289 285 286 286 284 285 285 285 286 286 286 286 288 289 286 286 284 283 285 283 282 283 287 287 288 289 287 288 288 288 287 288 287 285 285 284 283 283 281 283
299 299 299 299 299 299 299 300 300 298 297 289 287 286 285 283 283 283 284 285 284 285 285 285 285 285 285 286 285 284 284 284 281 278 276 283 285 285 284 284 285 285 284 285 284 284 283 283 282 281 280 279 278 280
299 298 298 298 299 299 298 298 298 296 291 286 286 281 281 283 284 284 285 285 285 286 285 285 285 286 284 283 283 282 279 277 275 273 282 284 285 285 285 287 286 287 282 282 282 282 277 277 278 280 280 280 281 275
299 298 296 298 298 298 297 295 293 292 287 286 284 282 283 284 283 285 285 285 287 285 286 286 284 278 278 282 279 279 277 273 278 283 285 285 285 286 286 287 286 287 285 284 284 284 282 278 276 282 280 278 275 274
298 294 297 298 298 296 296 290 287 284 282 284 283 285 285 285 284 285 285 285 288 285 284 283 277 276 282 277 278 281 275 281 285 285 285 286 285 285 286 285 283 284 284 283 283 283 283 282 278 279 280 283 282 282
292 292 297 298 295 292 288 286 283 283 282 283 283 283 284 285 285 285 285 285 284 284 282 278 282 274 272 272 274 279 284 282 283 283 284 287 285 284 284 283 283 283 283 283 281 282 281 279 280 280 281 281 280 280
293 294 296 296 293 285 284 283 284 282 282 283 283 283 283 283 284 284 285 284 279 279 279 276 273 273 274 278 276 280 284 284 282 283 282 283 283 283 283 282 283 282 282 281 281 280 280 280 280 279 279 279 278 279
294 295 294 294 292 282 282 280 283 281 281 283 283 282 282 282 283 284 284 281 280 276 276 274 275 276 277 279 279 279 280 280 280 277 277 279 280 281 280 280 279 280 279 280 280 279 278 278 278 277 276 276 276 276
290 290 291 289 284 283 282 280 283 283 283 282 282 282 280 282 282 282 283 283 278 274 276 277 274 277 280 280 280 279 281 281 279 277 277 278 279 279 278 278 277 277 275 274 272 275 275 274 274 273 270 270 271 272
288 291 284 285 280 279 279 283 283 283 282 282 281 282 279 278 279 281 282 281 278 277 279 279 282 283 281 279 279 280 280 280 280 279 278 276 275 275 275 275 274 272 272 270 272 269 268 271 270 269 267 268 269 270
289 285 282 279 275 274 275 284 277 282 279 279 280 277 277 278 280 282 278 281 281 282 282 282 282 282 280 280 279 278 278 277 275 275 275 275 275 275 273 271 269 266 266 268 269 269 267 264 266 264 265 266 266 266
287 281 280 279 279 270 272 270 277 274 271 273 271 270 274 277 279 276 275 277 281 281 280 281 281 279 279 278 275 274 276 277 274 273 273 273 272 272 272 270 268 266 266 266 265 262 263 260 260 263 262 262 262 263
272 271 277 274 278 268 263 263 270 272 266 267 271 269 274 273 269 273 270 276 277 277 278 280 280 279 277 276 275 273 273 275 273 271 271 270 268 268 267 268 267 266 265 260 259 258 258 258 257 258 260 259 261 262
272 270 275 270 265 271 265 264 263 266 267 269 270 272 270 271 270 270 274 275 276 276 275 274 276 275 274 275 273 271 271 271 273 269 268 268 266 262 260 258 258 260 263 256 254 254 257 258 257 257 257 259 260 262
268 266 274 280 279 277 271 269 273 271 270 272 272 271 274 272 268 272 275 275 275 275 275 275 277 276 272 271 270 269 268 268 269 268 268 267 266 265 259 254 256 260 262 259 253 250 253 256 256 257 258 259 260 260
273 272 271 271 273 276 275 273 273 274 275 278 276 273 272 270 269 271 272 275 274 273 272 271 271 270 268 267 266 265 266 267 267 266 265 263 262 257 256 255 256 261 255 251 250 252 252 256 258 259 259 259 257 254
274 276 275 271 271 273 275 275 276 278 279 278 274 271 268 268 267 268 270 271 272 270 268 267 266 266 266 265 262 261 259 256 256 254 252 251 251 255 255 251 251 251 250 251 255 260 260 260 259 256 252 253 254 253
271 274 269 266 268 269 274 273 272 275 276 274 273 270 268 267 267 269 269 268 266 263 261 260 259 260 256 254 253 256 254 251 252 253 251 250 254 256 250 249 250 251 249 246 249 250 254 250 252 249 249 249 248 247
276 276 272 267 267 270 271 276 278 277 276 270 270 268 265 263 263 265 263 261 260 258 258 254 253 249 251 251 250 250 252 252 250 252 253 251 252 250 249 249 248 246 244 244 244 244 245 245 244 244 245 246 247 246
275 273 271 267 267 266 266 265 268 267 272 273 267 262 257 257 255 260 260 258 255 254 251 248 251 253 252 251 249 249 253 251 251 250 250 251 251 251 249 249 245 244 244 244 244 244 244 244 244 243 243 244 245 245
259 258 260 260 264 265 264 259 257 260 267 266 259 257 257 258 257 259 260 256 255 253 252 251 251 249 250 251 251 250 250 249 250 255 256 259 257 257 250 245 244 244 245 244 243 243 244 245 244 244 243 243 243 243

GFSWCAN_sfc_thetae_027.txt.gz
Theta_e
306 305 304 304 304 304 305 306 306 305 305 305 305 306 306 308 308 313 308 310 306 299 303 306 305 299 299 299 295 298 297 296 290 288 288 286 286 287 287 288 287 287 284 283 279 280 282 292 295 292 296 296 296 297
304 304 304 304 305 305 305 305 304 303 303 304 305 306 306 308 308 311 309 311 308 304 304 307 308 308 308 304 300 297 299 296 296 290 286 285 285 285 285 286 290 286 290 289 287 289 294 294 297 298 297 296 297 298
303 303 304 305 304 305 304 304 302 303 303 304 305 307 308 308 309 310 311 307 304 300 302 304 304 308 309 308 308 299 296 300 296 296 290 288 287 288 286 286 289 291 291 289 290 293 292 294 296 296 298 298 299 300
303 304 304 304 304 302 302 303 303 303 303 304 305 306 307 308 309 310 308 306 301 297 290 299 306 304 308 310 310 306 301 298 296 295 288 287 288 290 286 289 289 292 292 290 289 293 293 295 296 299 299 298 299 300
304 304 303 302 302 302 302 303 303 303 304 306 306 306 307 308 309 310 307 306 304 300 291 294 302 303 305 307 304 304 302 300 296 291 287 289 288 289 288 288 288 293 292 290 290 295 296 296 297 299 299 299 300 299
303 303 301 302 301 302 302 302 303 303 304 304 306 308 308 307 306 305 301 305 304 302 297 290 298 298 301 303 302 302 302 299 298 294 289 291 293 291 287 287 293 295 296 295 295 297 297 298 298 300 299 299 298 295
303 302 301 301 302 302 302 302 304 304 304 304 306 307 307 306 307 298 296 302 302 301 294 289 290 295 297 299 298 299 301 298 298 293 289 290 292 292 287 287 293 295 297 298 299 298 297 297 296 296 292 290 290 290
302 301 301 301 301 301 302 302 303 304 304 304 305 305 305 305 304 304 303 302 302 296 293 287 286 290 297 293 291 296 293 296 295 293 291 290 291 290 288 291 291 293 294 297 296 298 296 291 290 289 291 291 289 288
302 302 301 300 300 301 301 302 303 303 303 303 304 304 305 302 300 302 303 302 302 298 288 284 286 286 297 291 290 292 293 290 292 288 290 294 287 286 284 286 287 288 290 292 290 289 290 289 290 290 289 287 285 285
301 301 301 302 301 301 301 302 303 303 303 303 303 298 292 299 302 302 299 294 293 291 293 286 290 287 294 288 287 289 289 288 289 288 292 287 286 285 287 288 288 289 289 292 290 287 287 286 286 287 287 288 287 287
301 301 301 302 302 302 301 301 301 303 304 299 295 293 299 300 298 291 288 288 289 286 290 289 290 289 293 290 287 287 286 286 286 287 288 285 283 284 288 288 288 289 289 289 289 288 288 288 287 286 287 287 288 287
300 300 301 301 301 301 301 301 302 300 297 299 298 298 296 293 289 288 286 286 286 286 287 288 288 292 289 291 289 287 285 286 284 288 286 282 283 288 289 289 289 290 289 289 289 288 289 289 289 289 287 285 285 284
299 299 300 299 300 301 300 300 300 300 299 296 292 288 290 286 282 281 283 285 285 286 287 286 286 287 289 289 286 287 285 284 287 284 283 283 286 287 288 288 288 289 288 288 288 288 287 286 286 285 284 285 284 284
298 298 299 299 299 299 299 299 299 299 295 288 287 285 282 285 284 284 285 286 285 285 286 286 286 287 286 286 285 285 284 285 282 280 278 283 285 285 285 286 288 286 283 284 284 285 283 283 283 282 280 280 279 283
298 298 298 298 299 298 298 298 298 296 291 286 286 280 281 283 284 284 285 285 285 286 286 286 286 287 285 284 284 283 280 277 278 277 282 284 284 285 286 286 287 287 283 284 285 284 280 280 281 282 283 283 283 280
298 297 295 298 298 297 296 296 294 293 288 286 285 282 284 284 284 285 285 285 287 286 286 286 284 283 282 283 280 279 278 275 279 283 285 286 285 286 286 287 287 288 286 285 285 284 283 281 280 282 282 282 280 280
297 292 295 297 297 296 295 291 289 285 285 284 283 285 285 285 284 285 285 285 288 286 284 284 280 280 283 280 280 282 280 282 285 285 286 286 286 287 287 287 285 285 284 284 284 284 283 282 281 281 280 281 280 281
289 291 296 296 294 292 288 286 285 284 282 283 283 283 284 285 285 285 285 285 286 285 284 282 284 279 276 274 277 281 283 285 286 286 287 287 286 287 286 284 284 284 283 282 281 281 281 279 278 278 278 278 278 279
292 292 295 295 291 285 284 284 284 282 282 283 283 283 284 284 284 285 285 284 283 283 283 280 277 277 279 280 280 282 285 284 285 284 283 283 284 284 283 283 283 282 280 280 280 279 279 278 277 277 275 275 274 275
293 293 293 293 292 283 282 280 285 284 281 283 283 282 282 282 283 285 284 283 282 280 278 276 277 279 280 281 281 283 285 284 283 281 280 281 281 281 280 280 279 279 278 278 277 276 276 276 275 274 272 271 271 271
289 289 290 287 283 284 281 281 283 283 283 282 283 282 281 283 282 282 283 283 278 278 278 279 279 280 281 281 282 282 282 283 281 282 280 278 279 278 277 277 277 275 273 273 273 271 271 271 271 270 269 268 269 269
287 290 284 284 280 280 280 284 283 283 282 282 281 282 280 279 279 281 282 282 280 279 281 281 283 283 281 280 279 280 280 281 281 279 278 278 276 275 273 273 272 271 270 270 270 269 268 269 268 267 266 266 267 268
287 284 279 279 276 277 277 283 276 281 279 278 281 276 278 278 279 282 279 281 281 282 282 282 281 281 279 279 279 278 278 277 276 276 275 275 275 273 271 270 269 267 267 267 268 267 266 263 265 264 264 265 265 265
285 278 277 278 276 275 272 273 279 274 272 274 272 270 273 276 278 277 276 278 280 281 281 281 280 278 278 276 275 275 276 276 273 272 274 273 272 271 271 269 268 266 266 265 264 263 262 262 260 262 261 261 262 263
272 273 271 270 273 267 267 264 271 275 267 269 270 269 273 274 271 273 273 276 276 276 278 280 280 279 275 274 274 273 274 275 272 270 270 270 269 269 268 268 267 266 265 262 261 260 260 260 260 260 260 260 261 262
270 274 275 273 273 268 268 265 263 265 265 266 270 272 272 271 269 270 272 273 274 274 274 276 276 273 273 274 272 271 271 272 272 268 268 268 267 265 263 262 262 263 264 261 259 259 259 259 259 259 259 260 260 261
268 272 276 280 279 277 268 272 274 275 266 268 272 271 272 269 267 270 274 274 274 273 273 273 275 273 271 270 269 269 269 269 270 268 268 267 266 265 263 261 260 262 263 261 258 257 257 257 257 258 259 261 262 260
276 273 269 269 268 273 268 267 269 272 274 277 276 271 271 269 268 270 271 273 273 272 271 270 269 269 268 267 267 268 267 267 266 265 265 264 263 262 261 261 260 260 258 257 257 257 257 257 258 260 260 259 259 259
270 272 272 266 268 269 269 269 270 275 277 277 273 270 267 268 267 267 270 270 271 270 268 267 266 266 265 264 262 261 261 263 262 258 258 259 258 261 261 259 258 258 256 256 257 259 261 262 261 259 257 256 256 256
270 272 268 265 267 269 274 275 272 273 274 273 272 270 268 266 266 268 268 267 265 263 261 261 261 263 259 259 259 260 258 257 259 260 259 258 259 260 258 257 257 257 255 254 255 255 256 255 256 255 254 254 254 254
275 275 271 267 268 268 266 265 278 277 272 269 268 266 264 264 264 264 263 262 261 260 260 258 258 254 258 257 257 257 258 258 254 256 257 256 256 257 258 257 256 254 253 253 253 253 253 254 253 252 253 253 252 251
272 267 263 264 267 264 263 262 259 269 271 268 260 262 259 260 257 262 261 260 259 258 253 252 255 258 255 255 253 254 254 256 256 256 255 256 257 257 257 256 253 252 253 253 253 252 252 252 252 252 252 251 251 250
261 260 262 262 267 269 260 258 257 260 260 260 259 257 257 259 257 260 261 258 260 257 255 255 256 254 254 253 256 256 253 255 253 255 257 257 257 258 258 255 252 252 253 253 253 251 252 252 252 251 251 249 249 249

GFSWCAN_sfc_thetae_030.txt.gz
Theta_e
302 302 301 303 304 305 305 305 304 304 305 306 306 306 306 307 309 321 317 320 319 311 309 311 309 308 307 310 305 304 304 303 302 300 299 297 296 295 293 294 293 293 292 290 289 288 287 298 299 294 300 303 302 303
301 301 302 304 304 304 304 305 305 305 305 305 305 306 306 307 309 314 317 318 320 315 311 315 313 314 312 312 310 307 308 305 307 303 300 298 292 290 294 293 296 292 297 296 295 296 299 301 303 304 304 303 303 304
303 303 303 304 304 304 303 303 303 304 304 304 304 306 307 308 309 314 318 317 318 313 311 313 310 314 316 315 316 308 308 309 306 307 304 302 291 299 291 295 296 297 298 296 294 298 299 301 303 303 303 303 305 305
304 304 303 303 303 303 303 302 303 303 303 304 305 305 306 308 309 313 317 314 317 312 296 307 312 310 313 316 315 313 311 308 306 308 304 296 297 299 298 298 298 299 298 296 296 299 300 301 302 303 304 306 306 306
303 302 302 302 302 303 304 303 303 304 304 305 306 306 307 308 309 314 315 313 314 311 301 306 309 309 312 312 311 311 310 309 308 303 297 300 299 299 297 297 297 299 297 296 296 299 299 301 304 304 304 304 305 305
302 301 301 302 302 303 303 303 304 305 305 306 307 307 307 308 307 318 311 314 312 313 310 300 307 306 309 311 310 309 309 309 309 307 298 300 298 301 292 296 298 300 301 302 300 303 303 304 304 304 302 300 300 299
301 301 301 301 302 303 303 304 305 305 305 305 306 306 305 308 316 309 306 309 305 311 308 296 301 304 305 308 305 308 309 308 309 301 294 297 300 302 293 297 295 297 298 301 302 303 301 298 296 297 297 297 296 294
301 301 301 302 302 303 303 303 304 304 305 306 306 305 306 305 307 310 310 304 305 308 309 296 295 302 305 300 298 301 300 307 300 296 296 295 296 297 293 291 294 295 298 299 296 299 297 296 295 293 293 292 289 288
300 300 300 300 301 302 302 302 302 303 303 304 305 305 313 310 311 311 302 303 312 310 301 291 295 292 301 295 296 298 302 293 298 294 295 298 291 289 286 288 290 291 292 293 295 296 293 291 290 290 289 288 288 287
301 301 301 300 301 301 301 302 303 303 303 304 311 309 303 306 302 305 308 307 305 303 300 289 296 292 299 295 292 295 296 292 292 294 295 292 285 288 289 289 290 291 294 294 290 287 287 286 287 287 288 289 290 291
301 301 301 301 301 301 302 302 302 305 307 309 304 300 308 302 308 302 296 296 298 292 294 293 296 294 297 294 292 293 290 291 289 292 292 288 283 285 289 288 290 291 292 292 291 289 290 290 289 287 290 291 291 290
301 301 300 300 300 300 301 302 303 306 304 304 305 304 305 301 299 291 288 291 292 290 291 292 292 295 293 298 293 291 288 289 287 294 289 284 284 288 288 289 290 292 292 292 293 292 292 292 292 291 289 287 287 287
299 300 300 300 299 300 300 300 300 300 301 306 302 294 298 291 288 289 285 288 288 288 289 289 288 293 294 297 290 291 288 287 292 287 285 284 287 288 288 289 290 291 292 291 290 290 289 288 288 288 287 288 287 288
298 298 299 299 299 299 299 299 300 302 302 293 291 287 288 287 287 287 289 288 286 287 288 290 289 292 290 289 287 287 285 287 285 283 283 285 286 286 288 289 290 289 286 288 288 288 287 287 286 286 285 285 286 286
298 297 298 298 298 298 298 298 298 300 295 289 291 283 284 285 285 285 286 287 287 288 289 290 290 292 287 286 287 286 284 283 285 285 285 286 287 288 288 289 289 288 286 288 289 286 285 285 286 286 286 286 284 283
298 298 295 297 297 297 297 297 296 296 289 288 287 284 285 285 285 285 285 285 288 287 288 290 287 287 285 287 285 284 284 282 283 286 286 288 287 287 288 288 289 290 289 288 288 287 286 285 285 286 285 283 282 282
297 294 295 296 296 296 296 296 293 287 287 285 285 286 285 285 285 285 285 285 288 287 285 289 286 283 286 284 283 287 285 287 287 287 287 288 287 287 289 289 288 287 288 288 287 286 285 284 283 282 280 280 281 281
293 295 295 296 296 296 294 293 291 288 283 285 284 284 286 285 285 285 286 287 290 289 289 286 288 284 284 282 284 286 286 288 289 289 289 289 290 291 291 288 288 288 286 283 282 282 282 281 281 280 279 279 279 279
294 294 294 294 295 294 289 288 290 284 284 285 286 286 286 286 287 287 286 287 287 289 290 288 286 285 286 288 288 285 287 287 286 286 284 286 289 288 287 287 285 283 283 283 282 282 281 280 279 278 278 277 276 277
293 293 293 292 296 292 286 287 292 286 283 284 286 284 285 285 286 286 287 288 289 289 286 285 285 286 287 287 288 288 291 292 289 285 282 284 286 286 285 285 283 282 282 281 279 278 279 279 277 276 275 274 274 274
293 292 292 294 292 290 286 286 285 286 285 283 285 284 283 286 285 285 286 288 287 282 283 283 283 283 283 284 287 289 287 291 288 287 285 281 283 283 282 281 280 280 279 278 277 276 275 275 274 274 273 273 273 274
291 291 291 290 288 287 287 286 286 287 285 285 284 285 284 283 283 283 284 285 282 282 283 283 285 284 283 282 283 285 284 285 284 283 282 281 279 279 278 278 279 276 275 275 275 274 273 272 271 271 271 271 271 273
290 290 288 287 283 283 281 288 284 284 281 281 284 281 282 283 283 286 282 283 282 284 284 283 282 283 281 281 281 281 282 282 280 279 279 279 278 277 276 275 275 274 273 272 272 272 271 267 269 269 270 270 271 271
288 283 281 281 281 278 281 280 283 282 283 280 280 277 279 281 284 282 278 280 280 282 283 282 281 280 279 279 278 278 278 279 278 278 279 278 276 274 274 272 271 270 270 270 270 269 269 268 266 268 268 268 268 268
280 277 279 276 279 278 276 276 278 279 277 278 277 278 279 282 278 276 276 277 278 277 279 281 281 280 277 276 276 275 277 278 276 274 274 275 274 273 272 271 270 269 269 269 268 267 267 267 267 267 266 267 266 266
274 277 277 276 277 277 275 276 276 276 276 276 278 279 280 279 274 272 273 275 276 275 275 276 278 276 274 275 274 273 273 275 275 272 270 271 271 271 269 269 270 269 269 268 266 265 265 265 265 264 265 266 265 265
275 276 279 282 280 279 279 279 279 277 276 276 279 278 278 273 270 273 276 275 275 274 274 274 275 274 272 271 272 271 272 272 272 271 270 270 269 269 268 267 265 266 267 266 265 264 263 263 263 264 264 266 266 265
278 279 275 277 279 280 276 277 277 276 278 280 280 274 273 272 271 273 273 275 275 274 273 272 271 271 270 270 271 271 270 270 269 269 269 269 269 268 267 267 266 264 264 264 263 263 264 264 264 264 264 264 263 264
279 280 279 273 276 278 277 277 277 279 279 279 277 273 270 270 270 271 272 273 275 274 272 271 270 271 269 268 268 268 269 270 268 266 265 267 267 268 267 267 266 266 265 264 263 263 264 265 264 263 262 262 262 262
278 279 278 274 274 275 278 279 279 279 277 276 274 272 270 269 269 271 271 271 270 268 267 267 268 270 268 269 268 267 267 267 266 265 265 264 265 266 266 265 265 265 264 263 263 263 262 262 263 262 261 261 261 260
280 281 278 277 276 278 276 275 279 279 277 274 272 271 268 268 269 269 268 267 268 268 269 267 266 267 267 266 266 266 266 266 263 263 263 264 264 265 265 264 265 264 263 262 261 261 260 260 261 260 260 259 258 257
276 272 274 273 275 275 275 276 274 276 275 272 268 269 267 268 265 267 266 268 268 267 261 265 267 266 265 266 264 265 258 264 264 263 263 263 264 265 264 264 263 262 262 261 261 260 259 259 259 259 259 258 257 256
274 274 274 274 274 273 272 271 270 270 270 269 267 267 266 266 263 266 267 266 266 266 265 265 266 266 264 262 263 265 261 264 262 261 260 260 259 261 262 264 263 262 260 260 260 260 258 258 258 258 257 256 256 255

GFSWCAN_sfc_thetae_036.txt.gz
Theta_e
299 299 300 300 300 301 301 302 302 302 303 303 303 302 302 303 305 307 309 313 315 311 312 314 313 309 311 310 306 309 307 308 310 302 303 303 298 301 299 299 296 294 294 290 295 287 285 302 300 294 303 306 304 304
299 300 300 300 301 301 301 302 302 303 303 303 303 303 304 305 306 308 305 313 317 314 315 321 319 320 318 317 315 312 311 309 310 307 307 308 294 295 299 295 302 296 300 299 297 297 304 304 303 305 306 304 305 306
300 300 301 301 301 301 302 302 301 302 302 303 303 304 304 305 306 307 306 312 318 316 313 314 313 318 321 322 325 311 317 315 314 319 312 309 293 306 292 300 302 302 304 301 300 300 301 303 304 306 306 306 307 307
300 300 300 300 300 300 300 300 301 302 302 303 304 304 305 305 307 308 307 315 323 315 302 309 318 314 319 321 321 323 322 322 321 319 313 298 296 309 305 304 304 303 303 299 299 301 303 305 306 306 306 307 306 307
299 298 298 298 299 300 300 302 301 302 303 304 304 305 305 306 307 310 312 318 323 315 303 307 314 316 317 319 317 320 320 318 315 309 296 306 309 307 306 306 304 303 301 301 300 303 303 302 303 304 302 301 301 300
299 299 299 300 301 302 302 302 303 303 304 304 304 305 306 307 307 311 309 319 320 324 311 302 311 312 315 317 315 316 317 317 315 312 307 308 308 309 296 300 303 304 305 304 303 305 305 302 301 299 297 297 297 295
302 302 302 302 302 302 302 302 303 303 303 304 305 306 307 307 313 311 307 310 309 324 312 299 301 310 314 314 313 313 316 315 314 310 306 306 305 307 295 300 301 301 302 302 303 304 299 301 295 296 294 293 293 293
303 303 303 302 302 302 302 302 303 303 304 304 305 306 306 305 307 308 311 306 308 315 314 298 293 304 311 308 304 311 311 311 307 302 304 304 302 305 299 299 300 301 301 300 300 301 299 298 296 294 294 293 291 290
301 302 302 304 303 303 302 303 303 304 304 305 306 306 313 313 313 309 305 305 318 313 301 292 294 291 308 302 303 305 309 296 303 297 301 302 295 294 298 297 297 298 298 296 297 297 297 294 292 292 292 292 290 290
301 301 301 301 303 304 305 304 304 305 305 306 311 310 300 310 304 306 312 307 304 308 304 295 303 297 303 299 295 298 298 296 293 295 300 294 289 293 294 296 296 297 297 296 291 289 290 290 291 291 292 292 292 290
300 300 300 301 301 302 303 305 305 306 307 316 310 301 309 305 311 306 298 297 299 296 297 298 301 297 303 295 292 297 293 295 290 294 294 290 288 290 293 293 295 297 297 296 294 294 294 293 291 291 290 291 289 289
300 300 299 300 300 301 303 304 304 310 311 310 309 310 311 307 302 292 290 293 294 291 293 294 296 297 298 303 295 295 289 293 288 296 290 288 288 290 291 293 295 296 295 294 294 293 293 293 292 291 289 289 288 287
299 299 299 299 299 300 302 302 302 304 304 314 305 295 300 292 289 288 285 289 287 289 290 293 290 296 297 298 292 291 288 289 298 289 287 287 287 289 292 293 293 294 294 293 292 292 291 290 290 289 287 288 287 288
298 298 298 298 299 299 301 302 303 306 307 298 292 287 288 286 286 286 287 287 287 287 291 293 291 292 292 289 289 286 286 291 286 284 286 285 287 289 291 292 292 290 289 290 290 289 288 287 286 285 284 284 283 283
298 297 298 297 298 299 300 301 302 304 298 291 291 284 284 285 286 286 286 287 288 291 294 294 293 294 289 288 290 286 285 284 286 287 287 286 287 289 290 291 289 288 287 289 289 287 285 286 286 286 285 284 283 280
299 299 296 297 298 299 300 302 301 300 292 287 286 285 285 286 285 285 285 285 288 290 294 297 290 287 286 287 286 286 286 285 286 288 287 287 287 289 290 289 289 290 291 289 288 287 287 286 285 285 283 282 280 279
299 296 295 297 298 299 299 300 298 291 288 287 285 285 286 285 284 284 285 285 288 288 286 290 286 285 289 287 285 288 285 286 287 288 287 287 287 289 290 290 289 289 290 289 289 288 287 286 284 283 282 281 282 282
297 298 297 298 300 300 298 297 293 290 285 286 284 285 286 285 286 285 286 287 288 286 287 286 290 286 285 284 284 286 287 287 288 288 288 289 290 290 291 290 290 290 288 287 286 286 285 284 284 282 281 280 281 280
294 296 296 297 299 297 291 292 294 285 286 287 287 288 287 286 288 289 289 290 291 291 290 288 285 284 283 284 285 286 287 286 285 286 288 290 290 289 289 289 287 287 285 286 286 285 282 281 280 280 279 278 278 278
295 295 295 297 299 294 288 289 296 288 284 286 288 287 287 287 289 287 289 291 289 288 284 282 280 281 281 283 285 288 288 288 286 284 285 287 288 288 288 288 286 286 284 282 281 282 282 281 279 278 277 277 276 275
297 296 297 299 297 294 290 289 288 288 288 285 287 288 286 290 287 286 287 291 285 282 281 283 283 284 286 285 286 286 287 289 289 289 286 285 287 287 286 286 286 285 283 282 281 279 279 277 276 276 276 276 275 275
294 295 297 296 291 289 289 292 288 290 288 287 287 288 285 284 285 285 289 284 281 282 283 283 283 284 283 282 283 285 286 286 286 286 286 286 283 283 282 283 282 280 279 278 278 277 276 274 273 274 274 274 274 275
295 295 293 290 285 284 283 292 285 286 282 283 286 283 283 283 285 289 282 281 281 284 285 284 283 284 282 282 282 282 284 284 282 282 281 281 281 280 279 278 280 278 275 274 275 275 273 272 272 272 274 273 273 273
292 286 283 284 285 280 287 282 285 283 283 282 281 279 280 281 286 283 277 278 280 282 282 282 284 282 281 279 278 277 280 281 279 280 282 279 277 276 276 274 274 274 274 275 274 273 273 273 271 272 271 270 271 270
283 280 284 280 285 282 281 280 281 281 278 281 280 280 280 284 279 278 276 277 277 277 278 281 280 280 279 277 277 276 278 278 276 274 275 278 276 275 274 273 272 272 273 272 271 271 271 271 271 269 269 269 268 268
277 280 279 279 280 279 279 277 277 278 279 279 278 280 283 281 277 274 274 276 275 275 275 276 278 276 274 274 274 273 274 277 276 272 272 273 273 274 273 273 272 270 271 271 269 268 268 268 268 267 267 268 267 268
276 278 281 284 282 282 281 281 283 281 278 278 279 280 280 276 273 274 276 276 275 276 276 276 276 275 274 273 274 274 274 274 273 272 273 272 272 272 271 269 267 267 269 269 268 266 266 266 266 266 266 268 268 267
279 280 277 280 281 283 279 279 279 277 278 279 281 276 274 272 270 274 275 277 278 277 276 275 275 274 273 273 274 274 275 274 273 274 273 273 273 272 271 271 269 268 269 268 267 267 266 266 265 265 266 265 265 267
279 281 282 276 280 279 278 278 278 277 279 279 278 274 272 272 273 274 275 277 277 276 274 274 275 275 274 273 273 272 272 271 270 268 269 269 270 269 270 270 270 269 269 268 268 268 267 266 266 265 265 265 265 266
279 283 280 279 277 276 277 280 279 279 278 279 277 274 271 271 272 275 274 274 273 272 272 273 273 272 271 272 271 270 269 268 267 266 265 265 265 268 269 269 268 268 268 267 266 266 267 267 266 265 266 266 265 264
282 282 280 279 277 278 279 281 282 280 279 276 277 274 271 270 271 272 271 273 272 272 273 271 270 270 269 268 268 267 268 268 267 267 266 266 267 267 268 268 268 268 267 266 265 265 264 264 264 263 263 263 263 263
280 277 277 276 277 279 280 278 278 279 278 276 273 274 272 273 268 268 270 272 271 269 269 270 269 268 268 269 269 269 264 268 268 267 266 265 265 265 266 266 266 267 267 265 265 264 264 264 263 263 262 262 262 260
279 279 278 278 277 276 278 277 276 274 274 273 271 272 270 269 265 268 272 271 269 268 268 269 269 270 269 268 268 268 267 269 267 268 267 265 262 263 263 264 264 264 263 263 263 263 263 263 263 262 261 260 260 260

GFSWCAN_sfc_thetae_039.txt.gz
Theta_e
299 299 299 299 300 300 301 300 301 302 301 302 303 303 304 304 304 302 300 305 307 303 306 309 308 306 306 304 297 303 303 300 297 290 288 286 284 289 290 296 290 287 284 279 285 281 280 298 297 290 296 298 298 298
298 299 299 299 300 300 301 301 302 302 302 302 303 303 303 304 304 304 298 307 311 304 306 316 314 314 312 311 307 305 305 302 303 296 294 290 289 287 288 283 297 287 293 288 290 287 298 298 298 301 301 299 299 300
298 299 299 300 300 300 301 301 301 302 302 302 303 303 303 304 304 304 302 309 308 302 307 311 307 313 318 314 314 302 306 310 306 308 299 294 288 290 283 286 290 296 300 293 292 296 297 301 302 303 303 301 298 297
299 299 300 300 300 300 301 301 301 302 302 302 303 302 302 303 304 305 303 309 308 306 293 305 317 310 317 319 317 317 313 314 312 307 294 290 289 299 287 293 292 296 296 295 293 298 300 299 301 301 300 298 295 295
300 300 300 300 300 301 301 301 301 301 302 302 303 303 304 304 305 306 307 309 310 306 296 302 310 314 316 315 314 316 313 310 305 294 288 291 297 295 293 293 288 297 295 288 288 298 297 295 298 298 296 295 294 292
299 299 298 298 298 300 300 300 300 301 301 302 303 303 304 305 306 308 299 308 310 309 303 292 307 309 311 312 312 311 310 308 307 300 292 299 302 294 287 283 297 299 300 300 298 299 296 295 295 296 293 293 293 292
298 298 298 298 298 299 300 300 300 301 302 302 303 304 305 305 308 301 299 309 308 308 303 292 295 306 309 309 305 307 309 306 305 300 294 296 296 298 288 286 297 299 299 299 301 297 293 295 291 293 292 291 291 290
298 299 299 299 299 299 300 301 301 302 303 303 304 304 305 306 307 305 311 306 306 311 304 291 291 298 308 299 295 304 301 300 299 297 294 290 294 287 285 295 297 298 297 297 296 297 294 293 292 291 291 290 288 287
301 301 301 301 301 301 301 302 303 303 304 304 305 305 306 307 305 306 305 303 310 306 292 288 289 289 304 298 296 298 300 289 299 290 292 292 288 287 293 294 295 296 294 293 295 293 292 291 291 290 289 288 286 285
301 301 301 301 301 301 301 302 303 304 304 305 308 306 296 305 304 304 306 297 297 298 295 289 297 291 299 291 290 290 289 290 288 290 294 288 286 291 292 293 294 295 295 293 289 286 288 288 289 290 288 289 288 287
301 301 302 302 302 302 302 303 303 305 306 308 302 296 305 307 303 297 288 288 291 287 290 292 295 293 299 290 288 289 288 286 282 285 285 285 285 289 292 293 293 296 294 293 292 292 292 291 289 288 288 288 286 284
300 301 301 303 303 303 303 304 304 308 307 306 305 307 304 301 294 288 286 287 287 287 289 289 291 295 292 299 289 290 286 284 282 291 286 284 285 289 291 292 294 295 294 293 294 292 292 292 290 288 287 285 283 282
299 299 300 301 301 303 304 305 305 305 305 305 298 291 296 289 286 281 279 285 285 287 288 288 287 289 290 292 288 289 286 284 285 285 283 284 287 289 291 292 292 293 293 292 290 289 289 287 287 286 285 285 283 281
298 298 299 299 300 301 301 302 302 304 302 292 288 285 286 284 283 283 284 285 285 285 287 289 287 287 287 286 286 285 285 287 284 279 278 284 287 289 290 291 291 289 287 287 287 286 284 284 283 283 281 280 280 280
298 298 298 298 300 301 301 301 301 299 293 286 286 281 282 284 285 285 285 286 286 288 288 288 287 289 286 286 286 285 283 279 281 279 284 286 288 289 289 288 287 285 285 286 287 284 283 283 282 281 281 281 279 276
300 298 295 298 299 301 301 300 299 295 289 286 284 284 285 285 284 285 285 285 287 286 287 287 286 285 285 285 284 283 281 278 283 284 286 288 288 288 287 287 288 289 287 286 285 285 284 282 281 280 280 279 275 274
298 292 297 298 299 299 299 296 294 288 285 285 283 285 284 284 283 284 284 285 288 286 285 286 283 283 285 283 282 284 281 283 285 285 287 288 288 286 286 287 287 287 286 285 285 284 283 283 280 279 278 279 279 277
293 295 298 299 300 298 297 294 288 286 283 284 282 283 284 284 284 285 285 286 286 285 286 284 286 284 281 280 281 283 284 285 286 286 286 288 289 289 290 288 289 287 285 284 284 283 282 280 279 278 278 278 278 277
294 295 297 298 298 292 287 288 289 283 283 284 284 285 285 284 286 287 287 288 288 288 286 284 279 278 279 281 281 284 284 284 284 286 287 288 288 288 288 286 285 284 284 283 282 279 278 278 277 276 276 276 274 274
296 296 297 297 298 287 285 286 291 285 283 284 285 285 285 285 286 286 286 286 286 284 281 279 278 280 280 281 283 284 285 286 286 284 284 285 286 286 285 284 283 281 280 280 280 278 277 276 276 275 274 273 270 269
294 293 296 296 291 289 285 284 284 285 285 284 285 284 283 284 284 284 282 284 280 280 278 280 281 281 282 282 283 285 284 286 286 285 284 283 285 285 283 283 283 282 280 278 277 275 274 273 273 273 267 265 265 265
290 296 287 289 285 284 284 287 285 286 284 283 283 283 282 280 280 283 282 278 278 280 281 280 281 281 280 279 280 282 283 282 283 284 284 283 281 281 281 280 277 275 275 276 275 272 272 272 272 270 265 264 266 267
293 291 286 284 278 278 278 285 279 282 279 279 283 281 280 280 280 284 276 279 279 280 281 282 281 281 279 279 279 280 280 280 279 279 278 277 276 275 274 274 276 273 272 273 274 273 271 270 269 266 266 264 264 261
290 284 278 278 278 278 279 278 282 281 281 278 275 275 278 279 282 275 273 275 276 278 277 279 280 278 276 276 274 274 277 278 276 276 277 275 273 273 273 272 272 273 274 273 272 271 270 266 266 266 261 259 258 258
275 275 277 271 277 273 270 272 273 276 272 273 271 270 274 278 272 272 272 274 272 272 273 277 275 274 274 273 273 273 275 276 273 271 272 275 273 272 271 271 270 270 271 268 267 265 263 262 260 258 259 256 260 257
275 278 277 277 277 275 277 274 276 276 271 269 276 279 275 273 267 267 271 271 270 271 271 272 274 272 271 272 271 270 271 275 273 270 270 271 270 271 270 268 267 266 268 266 263 260 260 259 256 258 256 259 259 259
275 276 280 283 281 280 276 278 278 273 269 270 271 272 276 269 265 270 273 273 273 272 273 273 274 273 272 272 272 272 271 271 271 270 271 270 270 269 267 262 259 262 264 261 257 255 255 255 254 255 255 260 259 257
278 279 276 279 279 280 277 275 272 272 271 277 276 266 264 265 265 271 272 275 276 274 273 273 272 272 271 271 270 269 269 270 268 270 269 269 268 266 263 262 262 266 263 261 257 258 256 257 254 254 254 254 253 254
278 280 275 271 277 277 274 275 275 276 277 276 271 267 266 270 271 272 273 273 273 272 270 270 272 270 269 269 268 266 265 264 261 259 258 259 260 261 261 260 261 260 259 259 263 264 262 260 261 258 255 257 259 256
277 281 276 276 274 273 275 278 275 276 277 275 271 270 269 268 269 271 271 270 270 267 268 269 268 267 264 265 263 262 260 258 259 256 253 253 255 260 261 264 260 257 258 256 255 257 261 258 258 255 255 255 259 257
280 279 272 272 270 275 277 279 273 276 270 270 270 265 264 264 265 268 268 269 268 268 268 264 263 264 263 262 261 257 257 258 260 259 257 256 257 257 261 261 262 260 256 261 257 254 253 253 255 256 253 253 254 255
274 270 268 269 271 276 279 275 272 275 273 269 266 264 264 265 260 262 267 267 265 265 263 261 261 261 259 258 258 258 258 259 261 258 257 256 255 254 254 255 255 260 260 257 259 259 257 256 254 257 256 255 252 251
271 271 270 269 270 271 270 268 271 268 267 265 265 266 262 262 259 262 267 264 261 259 262 264 265 264 260 259 258 259 262 259 259 263 263 262 256 256 253 253 252 251 251 252 253 252 253 256 258 258 256 253 252 252

GFSWCAN_sfc_thetae_042.txt.gz
Theta_e
298 299 299 299 299 299 299 299 299 300 300 300 300 301 301 302 303 302 301 305 300 297 302 306 304 298 300 302 296 300 299 299 295 289 287 285 282 288 287 291 288 286 282 278 282 277 279 297 295 289 292 295 297 297
299 299 299 299 299 299 299 300 301 301 300 301 301 301 301 302 303 304 298 305 306 298 302 306 307 309 307 307 304 301 301 301 301 296 290 289 285 283 286 284 295 286 289 285 287 286 295 297 296 298 299 298 298 299
299 299 299 299 300 300 300 300 301 301 301 301 301 301 302 303 304 303 301 303 302 298 299 302 304 311 314 313 314 301 301 307 306 304 296 292 286 287 283 284 289 293 298 291 291 295 297 298 300 300 298 295 295 296
299 299 299 299 300 300 299 300 301 300 300 302 302 302 303 304 304 303 301 306 303 302 292 300 314 309 315 314 312 310 308 309 310 304 292 288 288 295 284 291 290 293 295 292 292 295 297 297 297 294 294 294 293 293
299 299 300 300 300 300 300 301 301 301 301 302 303 303 303 304 304 303 304 306 309 302 293 299 307 312 315 315 311 312 310 307 301 293 288 290 294 293 289 290 287 295 293 288 287 297 294 293 294 296 293 292 292 290
300 300 300 300 300 300 300 301 301 301 302 302 302 303 303 303 303 302 295 303 308 309 298 291 304 308 312 314 311 311 309 307 303 297 292 297 300 292 284 282 295 297 298 299 295 297 294 293 293 293 291 291 291 289
300 300 300 300 300 301 301 301 301 301 301 302 302 303 303 303 303 299 296 304 306 308 298 291 294 305 310 308 306 306 306 302 304 298 290 293 295 294 284 284 295 296 296 296 295 294 291 292 289 291 290 289 290 288
299 299 299 299 299 299 300 299 300 300 301 302 302 303 303 304 304 302 305 306 308 304 303 289 292 296 307 297 297 304 300 298 297 294 291 288 293 284 285 293 295 295 295 295 294 295 292 291 290 288 289 289 287 286
298 298 298 299 299 299 299 299 300 301 302 302 303 303 304 303 300 302 305 305 308 304 292 287 288 288 301 294 293 294 294 289 297 288 288 291 283 284 290 293 293 294 292 290 291 291 290 288 287 287 287 286 284 283
298 298 298 299 299 299 299 300 301 301 302 303 302 300 294 301 306 306 304 299 297 297 294 289 294 290 297 288 289 286 289 287 287 289 293 286 285 289 290 292 293 293 292 291 287 285 287 286 287 287 287 287 286 284
301 301 300 300 301 301 301 301 302 303 303 301 300 295 305 306 304 298 289 288 291 286 288 291 292 291 297 288 287 287 287 285 284 287 286 285 284 289 290 292 293 293 293 291 290 290 290 289 288 287 286 285 284 282
302 302 302 302 302 302 302 302 303 304 305 303 304 305 303 299 290 287 285 286 287 286 287 289 291 294 291 297 289 288 285 284 283 289 286 283 283 288 293 293 294 294 293 291 291 291 291 290 289 287 285 283 282 282
301 302 302 302 302 303 303 303 304 304 305 303 297 290 293 287 283 279 279 284 284 286 288 288 287 289 291 292 287 287 280 282 283 285 279 281 288 290 291 292 292 293 292 291 290 290 289 288 287 284 282 281 281 281
300 300 301 301 302 302 303 302 302 301 298 290 286 283 284 282 282 282 284 284 285 285 286 286 286 288 286 287 285 285 285 286 281 277 277 284 287 288 291 291 289 287 287 287 286 286 284 284 283 283 282 280 279 279
298 299 299 299 300 300 300 300 299 297 290 285 285 280 281 284 285 285 285 285 285 287 287 286 286 287 285 285 285 284 283 281 280 277 283 286 287 288 288 287 286 285 285 285 285 283 282 282 282 281 281 280 279 277
298 297 296 298 299 300 300 299 296 293 287 283 284 284 285 285 284 284 284 285 287 286 286 284 285 285 284 284 283 282 278 277 282 284 285 288 287 286 286 286 287 286 285 284 284 283 282 281 280 280 279 278 275 274
297 293 297 299 299 299 299 294 290 286 285 283 282 285 284 284 283 284 284 285 287 286 285 284 282 282 284 282 281 283 280 282 284 285 286 287 286 286 287 286 285 285 285 284 284 283 282 281 280 279 277 277 278 276
291 292 299 299 298 296 294 292 287 285 283 284 281 283 285 284 284 284 285 287 286 285 285 283 286 280 277 277 279 282 283 284 285 285 287 286 287 287 288 287 287 286 285 284 283 283 281 280 279 278 279 278 277 277
294 295 297 298 296 289 286 287 288 282 283 284 284 284 284 285 285 285 285 286 286 286 284 281 277 276 276 279 279 282 284 284 284 285 286 287 287 286 286 286 285 284 284 283 281 279 279 278 277 277 276 276 273 274
296 296 296 296 294 285 284 283 287 283 282 283 285 284 284 284 284 283 283 283 283 282 279 277 275 276 277 278 280 283 284 285 285 283 282 284 285 285 284 284 282 282 280 279 277 276 276 275 276 275 274 272 270 268
291 291 292 291 287 286 283 282 284 285 284 284 285 284 283 283 279 279 279 282 279 278 276 278 278 279 280 280 280 282 281 284 284 284 283 281 283 282 281 281 281 279 277 275 273 273 273 272 273 272 270 268 265 263
288 293 283 286 281 282 282 284 283 283 283 283 281 282 278 277 277 277 279 276 275 276 279 278 277 277 276 277 278 279 280 280 279 278 277 278 276 276 276 276 275 274 274 273 273 271 271 271 272 270 268 266 267 267
289 285 281 279 275 275 274 281 275 280 274 276 279 277 277 276 281 280 274 276 275 277 278 278 277 277 276 276 277 277 277 277 276 275 275 274 274 273 273 273 274 272 272 272 273 272 271 271 270 268 267 265 264 261
287 278 278 276 275 273 272 276 279 279 274 274 272 272 276 276 278 272 270 271 273 275 275 275 276 274 274 273 272 272 274 275 273 273 275 273 271 271 271 271 270 271 271 271 270 269 268 267 266 265 263 258 256 255
274 273 271 267 271 270 265 269 270 273 267 269 268 268 272 274 268 268 268 270 270 269 271 274 272 272 270 270 270 271 273 272 270 269 270 273 271 270 269 268 267 268 269 266 264 263 263 262 261 260 259 252 257 255
273 274 273 276 275 269 268 267 267 270 267 265 275 275 270 265 261 263 269 268 266 269 268 269 270 269 269 270 268 268 269 272 271 267 268 269 269 268 267 266 265 264 266 264 261 258 257 255 252 253 252 256 258 256
273 271 277 281 278 275 271 273 273 268 264 269 267 265 269 259 260 268 272 272 271 271 272 271 271 270 269 269 270 270 269 269 269 268 269 269 268 267 263 259 258 261 263 258 254 253 253 252 251 251 250 250 252 252
275 275 270 271 269 272 264 264 264 265 265 273 269 262 258 259 263 270 271 273 273 273 272 271 271 270 267 266 265 265 265 267 268 267 266 265 265 264 263 262 262 267 261 258 256 257 255 257 256 254 254 251 252 251
276 277 272 270 268 268 271 267 267 272 275 274 263 262 263 267 268 269 271 271 272 270 268 267 267 267 266 264 262 262 261 260 257 254 251 252 253 257 261 263 262 259 254 255 259 261 260 259 258 255 252 251 255 253
272 272 267 264 263 267 269 270 265 267 272 267 268 267 267 266 267 268 268 268 266 264 263 264 264 263 258 256 256 258 257 256 258 254 251 250 254 257 254 254 257 258 259 256 257 258 259 252 253 252 253 254 249 249
274 268 265 264 265 272 274 268 269 266 262 260 259 258 259 262 263 266 267 265 266 262 262 258 257 253 256 256 252 251 253 257 256 255 253 252 250 249 250 249 250 251 251 252 252 253 254 254 253 253 251 254 253 251
263 262 264 264 265 272 272 273 273 268 263 262 259 256 258 256 256 261 263 261 262 261 257 255 256 257 254 251 250 254 257 256 256 255 256 254 254 253 250 251 248 248 247 247 247 249 250 251 252 254 255 255 253 251
263 260 259 263 266 265 263 265 267 264 262 261 260 259 258 258 257 260 264 259 256 254 254 254 254 257 258 256 254 254 255 252 252 257 258 258 257 256 252 250 249 249 250 248 247 246 250 249 248 249 251 252 253 250

GFSWCAN_sfc_thetae_045.txt.gz
Theta_e
300 300 300 300 300 300 300 300 300 300 299 299 300 301 301 302 302 299 299 304 300 294 297 301 302 298 298 297 292 297 299 298 291 288 287 286 283 288 286 289 287 287 283 278 278 275 279 294 293 287 290 293 295 295
298 299 299 299 299 299 299 299 299 299 299 299 300 301 301 302 302 301 296 304 306 297 298 302 301 302 302 303 299 299 299 299 299 293 290 288 285 282 286 282 292 286 289 286 287 285 293 295 293 295 296 296 296 297
298 298 298 298 298 299 299 299 299 299 299 300 300 301 301 302 302 301 299 303 302 296 295 297 299 305 307 307 309 299 299 305 302 303 295 291 287 287 283 283 287 292 295 289 290 293 294 296 295 296 297 296 297 298
299 299 299 299 299 299 299 299 299 299 300 300 300 301 301 302 302 302 298 303 301 299 289 295 311 307 313 312 310 308 306 308 305 302 293 289 285 294 284 290 289 292 294 291 289 293 295 294 292 292 292 293 292 292
299 299 299 299 299 299 300 300 300 300 300 300 301 301 301 302 302 301 302 303 304 296 291 295 304 309 313 311 309 309 308 305 299 294 287 288 293 294 289 289 286 294 292 288 286 295 294 293 292 293 292 290 290 289
299 299 299 298 298 300 300 299 300 301 300 300 301 301 301 302 302 299 293 299 305 307 295 288 302 305 308 309 307 307 308 305 303 297 291 296 300 295 286 284 294 296 297 296 294 298 293 292 292 292 290 290 289 288
299 300 300 300 300 300 300 300 301 301 301 301 301 301 301 302 300 295 291 296 303 306 297 288 290 302 309 306 302 305 304 301 303 298 290 294 295 295 284 285 294 295 295 294 294 293 289 290 288 290 289 289 289 288
300 300 300 300 300 300 300 300 301 301 302 302 302 302 302 302 301 295 303 304 305 300 299 288 289 294 306 297 295 302 297 299 298 294 290 289 291 284 286 292 293 293 293 293 292 293 292 289 288 287 288 287 286 285
299 299 299 300 300 300 300 300 301 301 302 302 302 302 301 299 294 298 305 307 309 302 291 287 287 287 301 295 294 295 297 290 296 288 290 293 285 287 289 292 292 293 292 288 289 288 288 287 286 286 286 285 283 282
298 298 298 298 299 299 299 300 300 301 302 302 301 297 291 297 304 305 302 297 296 297 296 288 294 290 297 289 288 290 289 288 287 289 293 287 286 289 289 292 291 291 290 290 286 284 285 284 285 285 285 286 285 284
299 298 298 298 299 299 299 299 300 302 302 299 294 292 302 304 301 295 289 288 289 286 289 291 292 292 296 289 287 288 287 286 286 288 288 285 286 288 290 290 291 292 291 290 290 290 289 288 286 286 286 285 283 283
299 299 299 299 299 299 299 300 301 300 299 298 302 303 301 297 291 286 284 285 285 285 287 288 290 293 290 295 288 288 286 285 283 289 287 284 284 287 290 290 291 292 292 292 292 290 290 289 288 286 284 283 282 282
300 299 299 299 300 300 300 301 301 303 304 302 296 290 292 286 284 283 281 283 284 285 287 287 287 287 287 289 284 282 277 278 286 285 284 282 287 290 292 292 291 292 292 291 290 290 289 287 286 284 282 282 281 280
301 301 301 301 301 301 301 302 302 302 300 289 287 282 283 281 282 282 283 285 285 285 286 286 286 286 285 285 283 280 284 285 279 276 275 283 287 289 290 290 289 288 288 288 287 285 284 283 281 282 282 281 279 278
299 299 300 300 302 302 302 301 301 297 291 285 286 280 281 284 285 285 285 285 285 287 286 286 286 288 285 285 284 284 283 281 276 274 282 285 287 288 288 287 286 285 285 284 285 283 282 281 281 280 280 280 278 276
298 298 296 299 300 300 299 298 295 292 287 285 283 282 284 283 283 284 284 285 287 286 286 286 283 283 283 284 283 281 280 278 281 283 285 286 286 286 286 286 286 286 285 284 284 283 283 281 280 279 279 278 275 274
298 293 297 299 299 298 298 294 291 285 283 283 282 285 284 284 283 284 284 284 287 286 285 284 282 281 285 281 280 282 278 281 283 285 286 285 285 285 285 285 284 285 284 283 283 282 281 281 279 278 276 277 277 275
290 294 298 299 297 295 293 291 286 284 282 284 281 283 283 282 282 282 283 285 285 285 284 281 283 276 274 274 275 278 283 284 284 284 284 286 286 286 287 285 285 285 284 283 282 281 280 279 278 278 278 278 276 276
293 294 296 297 294 288 285 286 287 282 282 284 284 284 283 281 282 283 283 284 285 285 282 280 275 273 273 276 275 277 282 283 283 284 284 285 286 285 285 285 285 284 283 282 281 280 279 278 278 278 276 276 274 273
295 295 294 295 294 285 283 283 287 284 282 283 283 280 280 279 281 280 280 281 281 281 277 274 273 274 275 276 277 279 279 284 284 282 282 283 284 284 283 283 281 280 278 278 277 277 276 275 275 274 273 273 271 270
290 290 290 289 285 285 282 281 284 284 284 284 284 283 279 280 277 276 276 279 276 276 274 275 275 276 277 277 277 279 278 279 277 281 280 278 279 279 279 279 278 277 275 274 273 273 273 272 272 272 270 267 268 269
285 290 280 283 280 281 281 283 282 282 282 282 280 280 276 272 271 274 276 273 272 273 275 275 274 275 275 275 275 276 278 277 276 276 275 276 274 274 273 274 274 272 272 272 272 270 271 272 271 270 269 268 269 268
286 284 279 279 275 274 272 280 275 279 272 274 276 274 273 273 275 278 270 273 272 275 275 276 276 275 274 275 275 275 276 275 273 273 273 272 272 272 271 271 272 271 270 271 272 270 270 270 269 267 267 267 265 261
284 275 271 270 273 266 270 270 277 276 272 271 270 269 275 275 273 268 267 268 271 273 273 273 273 272 272 272 270 271 272 273 272 271 273 271 269 268 269 268 268 268 269 269 268 266 266 265 265 264 262 260 258 258
273 271 269 266 268 268 264 265 267 270 265 266 267 267 273 271 264 264 264 268 269 268 269 271 271 270 268 268 269 269 271 270 268 267 268 271 269 268 267 266 266 266 267 264 262 262 262 261 260 259 260 256 259 256
269 272 272 266 267 267 265 264 264 266 264 266 270 273 265 262 259 261 267 267 265 268 267 268 268 268 268 268 267 266 267 270 268 265 265 267 266 265 263 262 262 263 264 259 258 255 255 254 251 252 250 253 254 251
266 266 274 278 275 273 269 267 269 265 265 268 265 260 262 256 257 266 271 271 269 270 271 270 269 267 266 266 267 267 267 268 267 266 266 265 264 264 260 257 257 262 262 256 253 253 254 252 250 250 250 247 248 249
277 271 266 266 267 269 263 260 260 262 264 272 265 257 254 256 261 267 269 272 271 271 269 268 266 265 263 263 263 264 264 264 264 263 262 262 261 262 262 262 262 264 259 258 256 252 251 255 254 255 252 252 254 249
270 269 269 263 264 266 269 264 264 270 272 268 258 260 261 265 265 266 268 269 269 268 265 262 262 260 261 261 260 259 260 258 255 253 250 249 251 254 256 254 255 255 254 255 257 262 263 258 254 252 252 250 254 252
269 267 264 259 261 265 268 263 262 261 267 264 266 266 265 264 266 268 267 265 264 261 258 257 256 257 251 252 253 256 256 253 252 252 249 250 252 252 248 247 248 250 248 248 249 251 256 252 253 250 250 251 249 247
267 265 263 262 263 266 265 259 263 261 257 256 255 256 257 260 262 264 264 262 261 258 258 254 253 249 252 251 249 249 252 255 254 254 253 251 250 249 249 248 247 245 245 245 244 245 248 247 248 249 251 252 252 251
262 257 261 261 265 269 268 265 264 259 258 255 256 252 255 254 253 258 261 258 256 254 254 251 252 255 253 251 250 250 254 252 250 250 250 251 250 249 249 249 247 246 246 245 244 245 246 246 246 245 245 249 251 252
258 257 256 259 263 264 263 265 264 261 259 259 257 257 256 254 253 258 260 255 254 252 252 251 250 251 255 253 251 249 250 248 248 256 255 256 253 252 248 246 245 245 246 245 245 244 246 246 245 246 250 251 251 251

GFSWCAN_sfc_thetae_048.txt.gz
Theta_e
301 301 301 301 302 302 303 302 302 302 302 302 302 301 301 302 303 298 295 299 297 294 296 300 298 295 296 295 288 292 292 295 290 287 287 287 281 287 286 289 288 287 283 279 278 276 281 292 291 287 290 291 293 293
300 301 301 301 301 301 301 301 300 301 301 301 301 301 301 301 302 300 293 298 299 297 297 300 300 300 298 299 296 295 294 295 296 292 287 285 283 280 286 284 290 286 290 286 287 287 293 293 291 293 293 293 293 294
300 300 300 300 300 300 301 300 300 300 300 300 300 300 301 301 302 300 296 296 297 296 294 297 294 301 303 302 304 295 296 302 298 299 292 290 286 287 284 285 287 290 292 288 289 292 293 295 295 295 295 295 296 294
298 298 299 299 300 299 299 300 299 299 299 299 300 300 301 301 301 300 296 300 299 294 288 290 304 302 308 305 304 304 302 304 302 300 292 288 287 293 286 290 289 291 292 290 289 292 292 294 292 293 292 293 292 292
299 298 298 298 298 299 299 299 299 299 299 300 300 301 301 302 302 300 299 301 303 296 289 291 296 302 307 309 307 307 306 301 297 292 286 289 293 291 289 290 285 293 291 289 289 294 293 293 292 292 292 290 291 289
299 299 299 299 298 299 298 299 299 299 300 300 300 301 301 301 301 298 291 300 303 300 293 285 298 299 308 308 306 305 306 301 298 294 290 296 299 295 289 287 294 295 295 296 295 297 292 291 290 291 289 289 289 288
298 298 299 299 300 300 299 299 299 300 300 300 300 301 301 301 298 292 291 294 302 302 293 286 286 297 307 306 301 301 301 299 299 294 289 295 296 296 285 286 294 296 295 295 294 293 289 290 288 289 288 288 288 287
300 300 300 300 299 299 300 300 299 300 300 300 301 301 301 301 299 295 297 302 301 296 294 287 288 292 305 298 296 302 294 295 295 292 288 289 292 287 286 291 293 293 293 293 291 292 292 289 288 287 287 287 285 284
299 299 299 300 300 300 301 301 301 300 300 300 300 301 299 297 292 291 303 302 303 296 288 286 286 287 300 295 295 294 294 287 294 287 289 293 286 289 290 291 291 292 292 289 288 288 288 287 285 285 286 285 284 283
299 299 299 299 300 300 300 300 301 300 301 301 298 294 288 294 302 304 300 295 294 295 295 289 293 289 295 287 288 289 289 288 287 288 293 287 288 288 289 290 292 290 289 289 285 284 285 285 285 284 284 285 285 285
299 299 299 299 299 300 300 300 301 302 301 298 292 288 296 303 298 292 285 287 288 286 289 289 291 289 296 288 286 288 286 286 285 286 289 286 288 287 290 290 291 291 291 290 290 289 288 287 285 284 284 285 285 285
299 299 299 299 299 299 300 300 301 299 298 298 298 302 300 296 290 286 284 284 285 285 287 288 289 293 290 295 288 287 285 285 285 289 286 284 286 288 290 290 291 292 291 290 290 288 288 287 287 286 284 283 283 282
299 299 299 299 299 299 300 300 301 301 301 300 295 288 291 285 284 283 281 283 284 285 287 287 286 288 289 291 285 285 284 283 286 285 284 283 287 290 290 290 289 291 290 290 289 289 289 287 285 284 282 282 281 280
299 299 299 299 299 299 300 300 300 301 298 289 286 281 282 280 281 282 283 284 285 285 285 286 286 286 285 285 284 284 284 285 280 278 277 283 287 288 290 290 289 289 288 288 286 285 284 283 282 282 282 281 280 279
299 299 300 300 300 300 300 300 300 297 290 285 284 280 281 284 284 284 285 285 285 286 286 286 286 288 285 284 284 283 282 279 279 278 282 285 287 288 287 287 286 285 285 284 284 282 281 281 281 280 280 280 279 277
300 299 298 301 301 301 300 299 296 293 287 285 283 281 283 282 282 283 283 284 287 285 286 286 283 284 283 283 282 280 280 277 279 282 284 286 285 285 285 285 285 285 284 283 282 282 281 280 279 278 278 277 276 275
298 294 299 300 299 299 298 293 290 285 282 282 281 281 282 282 280 281 282 283 286 286 284 285 279 277 283 280 277 279 277 280 282 284 285 285 284 284 284 284 284 284 283 283 282 282 280 280 279 277 275 276 276 275
292 294 298 299 298 296 293 291 285 283 282 283 278 279 279 279 278 279 281 283 284 284 280 277 281 274 271 271 271 275 277 279 284 284 284 285 285 285 285 284 284 284 282 282 281 280 280 279 278 277 277 276 275 275
293 294 297 299 297 290 285 285 285 280 281 282 280 281 280 278 279 280 281 282 283 283 281 277 272 270 271 274 273 274 276 278 282 282 283 284 284 284 284 284 284 282 281 281 280 279 278 279 278 277 277 276 274 273
294 293 294 295 294 286 284 284 288 283 281 281 280 277 277 275 276 277 277 279 279 278 274 272 270 271 272 273 274 276 276 279 283 279 277 277 279 279 279 279 278 278 277 277 276 276 275 274 274 274 274 274 273 271
289 289 290 289 285 285 282 282 283 284 284 282 282 280 276 277 274 272 273 277 274 273 271 272 272 274 275 275 275 277 276 276 274 276 275 274 275 276 275 275 275 275 273 273 272 272 272 271 271 272 271 270 270 270
284 289 280 283 280 280 280 281 281 281 281 281 279 279 274 268 268 271 274 270 270 271 273 273 273 273 273 273 273 274 275 275 274 273 273 273 271 271 271 272 272 270 270 270 270 269 269 270 270 269 269 269 269 268
285 283 278 278 274 274 272 280 274 278 273 273 274 273 271 271 273 275 266 270 270 273 274 273 274 274 272 273 273 273 274 273 271 271 270 269 269 269 268 268 269 268 267 268 269 268 267 268 267 266 266 266 266 265
283 273 269 268 271 265 268 269 275 273 270 269 269 268 271 269 270 266 265 267 270 271 271 271 272 270 271 270 269 269 270 272 270 270 270 269 267 266 266 266 266 266 266 266 265 264 264 263 263 262 261 260 260 258
274 271 269 265 267 267 262 263 265 268 263 264 266 268 266 268 262 261 262 266 267 266 267 269 269 268 266 266 267 268 269 268 266 265 265 268 267 266 265 265 264 264 265 262 260 259 259 257 257 255 257 252 257 253
270 273 272 263 266 266 264 265 266 262 263 267 265 268 261 260 257 259 266 265 264 267 265 265 267 266 266 266 265 265 265 267 266 263 263 264 263 261 260 259 260 262 261 254 253 251 253 251 249 252 249 252 251 248
270 267 273 276 274 271 265 264 267 263 263 262 262 258 257 253 255 265 269 269 268 267 267 266 266 265 265 265 266 265 265 265 264 263 264 263 263 263 260 256 257 260 262 259 254 253 252 252 250 250 248 246 246 247
275 270 264 264 265 268 262 258 259 260 262 270 262 256 252 253 259 266 268 270 268 268 266 265 264 263 262 262 263 262 261 261 261 260 260 260 259 258 256 255 255 260 254 252 252 251 252 253 254 252 251 250 252 250
266 265 267 260 262 264 265 261 262 267 268 263 254 256 259 264 263 264 267 267 268 266 262 262 261 257 258 259 257 257 257 254 254 251 248 248 249 253 253 249 249 249 248 250 254 259 260 258 257 253 253 252 253 253
265 265 262 259 260 263 261 261 258 256 264 262 264 264 263 262 264 267 265 264 262 256 251 251 249 251 249 250 251 254 253 248 249 250 248 248 251 253 249 246 246 247 244 243 244 248 253 248 250 247 247 248 247 248
265 263 263 262 263 261 261 256 255 256 254 255 252 253 256 258 260 262 260 258 255 251 253 251 251 248 249 249 247 247 249 251 249 249 250 249 248 246 246 246 245 243 243 243 243 243 243 243 242 242 244 246 247 249
260 257 260 259 264 263 261 263 254 255 253 253 254 250 251 251 251 256 258 255 252 252 251 248 249 252 250 249 247 246 250 248 248 248 249 248 247 247 246 246 243 243 243 242 242 242 243 243 241 241 241 244 245 245
255 253 255 258 262 262 263 263 261 258 255 255 255 254 252 252 252 256 257 252 252 251 250 249 248 249 251 249 248 247 248 246 246 253 255 254 255 252 245 243 242 242 244 243 241 241 243 243 242 242 243 242 243 243

GFSWCAN_sfc_thetae_051.txt.gz
Theta_e
301 301 301 302 302 302 303 302 301 302 303 302 302 302 302 303 303 299 296 301 298 292 294 297 297 295 295 294 289 293 294 295 293 287 288 288 287 291 291 291 290 290 287 286 285 286 286 296 293 292 299 297 298 298
301 301 301 301 301 302 302 302 303 302 302 302 302 302 302 302 302 300 292 299 300 293 295 301 301 301 300 300 296 296 294 295 296 293 291 290 288 287 291 288 293 289 293 291 292 293 299 297 300 299 298 299 298 299
300 301 302 302 302 302 303 302 302 302 302 302 302 302 302 302 302 298 295 296 295 288 292 295 295 303 304 302 306 296 297 302 299 302 295 294 289 291 286 288 292 293 295 294 295 297 296 297 299 300 299 299 299 300
300 300 300 300 301 301 301 301 301 301 301 301 301 301 302 302 302 299 294 296 295 291 287 292 303 299 307 305 303 305 304 306 305 302 294 291 290 295 290 294 293 295 295 293 293 295 297 298 299 299 298 298 296 297
299 299 299 300 300 300 300 300 300 300 301 301 301 301 301 301 301 298 297 298 298 293 286 290 299 301 303 306 303 304 304 304 301 295 290 293 294 294 291 293 291 295 294 292 293 299 300 300 301 297 296 296 295 293
299 298 298 299 299 299 299 299 299 299 300 300 300 301 301 301 299 297 290 298 301 297 288 284 296 297 304 306 304 303 303 303 303 299 295 297 300 296 290 290 296 298 299 301 298 299 294 293 294 295 294 293 293 293
299 299 299 298 299 299 299 299 299 299 300 300 300 301 300 300 297 293 291 296 300 297 291 287 288 297 302 306 303 304 305 303 302 298 294 297 298 298 289 290 297 298 299 298 295 296 293 293 292 292 291 291 291 290
299 299 299 299 299 299 299 299 299 300 300 300 300 300 299 300 299 295 299 301 299 295 293 285 286 292 304 297 297 302 299 300 298 297 293 295 294 292 291 296 297 296 295 294 294 294 295 291 290 289 289 289 287 286
299 299 299 299 299 299 299 299 300 300 300 300 300 300 297 294 290 293 300 301 301 295 286 285 286 286 300 295 295 295 297 291 297 290 292 296 289 290 294 295 295 294 294 294 291 291 290 289 288 287 288 287 286 285
299 299 299 300 300 299 299 299 299 300 300 300 296 292 287 292 300 301 298 293 292 293 293 285 292 289 296 289 289 291 289 288 288 290 294 289 292 292 291 293 294 293 292 291 288 286 286 286 287 287 287 287 287 285
299 299 299 300 300 300 299 299 300 300 299 294 291 288 293 301 297 291 286 286 287 285 289 289 288 289 296 289 287 288 286 286 286 290 291 288 289 290 291 291 292 292 292 291 291 290 290 289 287 286 286 286 286 286
300 299 299 300 300 300 300 300 300 298 296 296 297 298 298 293 288 285 284 285 285 284 288 288 289 292 291 295 289 287 286 286 285 290 287 286 287 289 291 290 291 292 291 290 291 289 289 288 288 287 286 286 285 283
299 299 299 299 300 301 300 300 300 300 300 298 294 288 290 286 283 282 279 282 283 285 287 287 286 288 289 290 285 286 285 284 286 285 283 282 287 289 290 290 290 290 290 289 288 288 288 286 287 286 283 283 282 281
299 299 299 299 299 300 300 300 299 299 296 286 285 281 282 280 281 281 283 284 284 285 285 286 286 286 286 285 285 284 285 285 282 279 278 284 285 287 289 289 289 287 287 286 285 285 284 283 282 282 282 282 281 279
299 299 299 299 300 300 300 299 298 295 288 284 284 279 280 284 283 284 285 285 285 286 286 286 286 288 285 284 285 285 283 279 280 279 281 284 285 286 286 286 285 284 284 284 284 283 282 281 281 281 281 281 279 278
299 299 298 299 300 299 299 298 295 292 286 283 280 277 280 279 278 279 280 281 285 284 286 287 285 284 283 283 280 277 279 274 277 281 284 285 285 285 284 284 284 284 283 282 282 282 281 280 279 279 279 278 278 277
298 294 300 299 299 299 298 293 290 285 283 281 278 279 278 278 276 278 279 280 285 285 282 283 276 275 281 277 274 276 273 275 277 280 284 285 284 284 284 283 283 283 282 282 281 280 280 279 279 278 276 277 277 276
292 298 299 299 298 296 293 291 285 283 279 280 277 277 277 277 275 277 279 281 283 282 281 276 279 272 270 270 270 272 274 276 280 281 281 284 284 284 284 283 283 282 281 281 281 281 280 279 278 277 276 276 276 276
297 298 298 298 297 290 285 285 285 277 277 279 278 278 277 276 277 278 279 281 282 281 279 276 270 268 269 271 270 272 274 275 278 277 277 278 279 280 280 280 279 279 278 278 277 277 277 278 278 277 277 276 274 274
298 298 298 298 295 285 283 284 287 281 277 278 279 275 275 274 275 275 276 277 277 275 271 270 269 270 271 272 273 274 274 276 280 275 274 275 276 276 275 276 276 276 276 275 275 275 275 274 274 274 275 275 273 272
291 290 291 290 285 285 282 282 283 284 282 280 281 279 276 275 272 271 271 275 272 271 269 271 271 272 274 273 274 275 274 274 272 273 273 271 273 274 273 273 274 273 272 272 271 270 270 270 271 272 271 271 271 271
285 288 283 284 281 281 280 280 281 281 280 279 277 278 272 269 267 270 273 268 268 269 271 272 271 272 271 271 272 273 273 273 272 271 271 271 268 269 269 270 270 269 269 269 269 268 268 268 269 269 269 269 269 269
285 282 277 277 274 274 272 280 274 278 272 272 274 272 269 268 272 274 266 269 269 271 272 272 273 273 271 272 271 272 272 271 269 269 269 268 267 267 267 266 268 267 266 266 267 266 265 265 265 265 266 265 265 265
282 272 269 268 271 266 269 269 275 273 270 270 270 268 272 268 270 266 264 266 269 270 270 270 271 270 270 269 267 267 269 270 268 267 269 267 265 265 265 265 265 265 265 265 264 263 263 262 261 262 261 261 261 261
273 271 269 265 267 267 263 264 266 268 263 265 267 267 265 268 262 262 263 266 267 266 267 269 268 267 266 266 266 266 267 267 265 263 264 266 265 265 264 264 263 263 264 263 260 260 260 259 259 260 260 259 259 259
269 270 271 268 265 267 267 268 265 261 266 265 264 266 262 261 258 261 265 266 266 266 265 265 266 266 265 265 264 264 265 267 265 262 262 263 263 262 261 260 260 261 262 260 261 260 260 259 259 258 259 259 254 256
267 265 271 274 272 269 264 264 266 263 261 261 262 258 258 254 256 265 268 268 266 265 265 264 266 266 265 265 264 264 264 264 263 262 263 262 261 261 260 259 258 260 261 259 258 258 258 258 258 258 257 258 258 256
267 268 263 262 264 266 260 258 258 259 262 268 261 255 252 254 259 265 267 267 266 266 265 264 263 263 262 262 262 262 262 262 261 261 261 261 260 259 257 257 257 258 256 256 258 258 259 258 258 258 257 257 256 257
264 263 265 259 260 262 263 259 261 265 266 262 255 256 259 263 263 264 266 268 268 266 262 261 259 258 259 260 258 258 258 259 259 255 254 255 255 258 257 255 255 255 254 255 256 260 261 259 257 256 254 254 254 254
263 264 262 258 260 261 259 259 257 256 263 262 264 264 263 262 264 266 265 264 262 259 256 255 254 256 255 256 256 257 256 254 255 256 255 255 256 257 255 254 255 254 252 253 253 255 255 254 255 253 252 253 253 253
263 262 261 262 260 258 257 254 252 255 254 255 253 255 257 260 262 263 262 259 256 255 257 256 255 252 255 254 255 254 255 255 251 253 254 254 254 254 254 253 252 251 251 251 251 252 252 252 251 250 251 251 250 250
258 257 259 259 262 260 261 259 253 254 252 254 253 250 253 254 253 257 257 257 258 257 253 252 253 256 254 253 250 252 250 253 254 254 254 254 255 254 253 252 250 251 252 251 251 251 250 250 251 250 250 250 249 249
253 253 255 258 260 259 261 261 259 257 254 254 254 252 251 254 254 256 257 253 256 256 255 254 254 253 252 251 253 253 250 252 250 253 255 255 254 255 252 251 251 251 252 251 250 250 250 251 251 250 250 249 249 249

GFSWCAN_sfc_thetae_054.txt.gz
Theta_e
302 301 302 301 301 301 301 302 302 302 302 302 302 303 303 303 302 301 301 307 303 296 297 298 300 296 296 297 294 298 297 299 298 294 294 294 293 294 295 297 295 294 293 292 294 291 289 302 300 298 305 307 307 307
302 301 301 302 302 302 302 302 302 302 302 302 303 303 303 303 302 302 295 304 306 299 296 300 301 302 302 303 300 301 297 297 300 296 297 297 295 295 295 291 299 294 298 297 297 298 306 304 306 307 309 308 306 307
302 301 301 301 302 302 301 301 301 300 302 303 303 303 303 303 302 302 297 300 301 297 296 296 294 301 306 306 310 298 303 302 301 305 301 301 295 299 294 295 296 298 299 297 298 303 303 305 307 306 306 307 306 308
300 301 302 302 302 302 301 302 302 302 302 302 302 302 303 303 301 301 298 301 300 297 289 291 302 297 303 305 308 308 306 308 308 306 303 298 297 301 298 299 298 300 299 299 300 303 304 304 307 308 306 305 305 306
300 300 300 301 301 302 301 301 301 301 302 302 302 302 303 301 301 301 302 302 303 296 287 291 298 301 302 303 305 308 307 307 307 302 295 297 303 301 301 300 300 302 300 298 298 304 305 307 309 309 306 304 304 304
299 299 300 300 300 301 301 301 301 301 301 302 302 302 301 300 301 298 291 300 303 303 294 286 299 298 298 299 303 305 306 305 306 303 303 304 305 302 297 296 301 304 305 306 304 304 305 302 302 307 306 305 304 303
299 299 299 299 299 300 300 300 300 300 300 300 301 300 300 300 301 295 292 298 302 302 293 287 291 297 300 298 305 304 306 305 304 303 302 303 305 303 299 295 302 304 305 306 304 301 300 299 301 300 302 302 301 302
299 299 299 299 299 299 299 299 300 300 300 300 301 300 300 300 299 296 303 301 302 297 293 285 289 294 302 297 297 305 301 302 304 302 304 301 303 303 296 301 304 306 303 303 302 301 300 299 297 297 298 297 296 295
299 299 298 299 299 299 299 299 299 300 300 300 300 300 299 298 293 296 301 300 302 295 288 286 287 287 301 297 297 295 300 292 303 298 299 302 299 295 298 301 304 305 303 304 302 299 297 297 296 294 295 294 294 292
299 299 298 298 299 299 299 299 300 300 299 299 297 294 289 294 301 299 296 292 291 292 295 289 290 287 296 293 291 295 293 290 287 294 302 296 297 302 299 299 299 300 301 299 296 295 295 293 294 294 294 295 294 292
300 300 299 299 299 299 299 300 300 300 299 298 294 292 298 301 301 295 289 288 290 287 292 291 290 285 292 291 290 294 292 290 287 289 295 293 293 296 296 298 299 299 300 300 300 298 298 298 295 293 292 292 290 289
301 300 300 299 299 299 299 299 299 299 299 298 298 301 300 296 291 286 286 286 287 286 292 291 292 292 295 301 296 292 290 288 286 290 288 287 286 289 292 293 296 296 297 296 296 295 295 294 294 292 291 290 290 288
300 300 300 299 299 300 299 299 299 299 300 299 296 292 292 289 283 281 280 284 285 288 290 291 288 294 295 299 289 288 287 286 288 285 281 284 287 287 289 291 291 293 293 292 290 290 290 291 291 290 285 284 283 283
299 299 300 300 299 299 299 298 298 298 296 289 286 282 283 282 283 284 284 286 286 286 288 292 288 288 288 289 286 286 286 288 285 282 281 284 285 285 286 286 287 285 285 285 285 285 284 283 283 283 283 283 282 281
299 299 299 299 299 298 298 298 297 295 289 284 283 278 280 282 282 283 284 287 286 286 287 287 287 288 285 286 287 286 285 281 280 278 282 283 285 285 285 285 285 284 283 282 283 282 282 282 281 281 282 282 281 281
299 298 299 299 299 298 297 297 295 292 287 282 278 276 278 279 277 279 279 281 284 284 286 286 286 285 283 283 280 278 279 275 277 280 281 285 285 285 284 283 283 283 283 283 283 282 282 281 280 280 281 280 280 280
299 296 299 298 298 297 297 294 291 286 283 280 277 278 276 277 275 277 279 280 284 286 283 283 277 276 283 278 275 276 273 276 278 280 280 284 284 284 284 284 283 283 283 282 282 282 281 282 282 280 278 279 279 279
297 299 299 298 298 296 294 292 287 283 278 278 276 277 277 277 276 277 279 282 285 283 280 277 280 274 272 272 272 273 275 277 281 279 278 280 281 282 282 281 282 282 282 282 282 281 281 280 279 278 278 278 278 277
298 298 298 298 297 293 289 288 288 278 277 279 278 279 278 277 279 280 281 282 283 283 280 277 272 270 270 272 271 273 275 276 278 277 277 277 278 278 279 279 279 279 279 279 279 278 279 279 279 279 279 278 277 277
298 298 297 295 296 290 286 286 290 282 278 279 280 278 277 276 278 279 279 280 279 276 273 271 270 271 271 273 274 274 275 278 279 275 274 275 276 276 276 276 276 277 276 276 276 276 276 275 276 275 276 276 276 275
292 291 292 293 290 289 286 286 284 284 283 282 283 281 278 279 276 275 275 278 274 272 270 272 273 273 275 275 276 275 274 274 273 274 273 271 273 274 274 274 274 274 273 273 273 272 273 272 273 274 274 273 274 274
289 290 290 289 287 286 285 285 286 287 285 284 282 280 277 275 274 273 275 272 270 271 273 273 273 274 273 272 272 274 273 273 272 271 271 271 269 269 270 272 272 271 271 271 271 270 269 269 271 271 271 272 272 270
288 288 285 285 282 283 280 286 282 281 279 280 281 276 275 274 274 277 270 271 271 273 274 274 274 274 272 273 273 273 273 272 271 270 270 269 269 270 269 269 270 269 268 268 269 268 267 267 267 268 269 268 269 268
285 279 277 277 280 276 280 278 280 279 279 278 276 273 272 274 275 272 268 269 271 272 272 272 274 273 272 271 270 270 271 272 271 271 271 270 268 267 268 268 268 268 268 268 267 267 267 266 266 267 266 266 266 266
278 275 278 275 278 276 274 275 274 276 273 274 273 272 271 275 269 268 266 269 270 270 271 272 271 272 270 270 270 269 270 270 269 268 269 270 270 270 268 268 267 266 268 267 266 266 266 266 266 265 265 264 263 264
271 274 275 275 275 275 274 272 271 271 273 271 270 271 273 270 266 265 268 270 270 269 269 270 270 269 269 269 269 268 268 270 270 267 266 267 267 267 266 265 265 264 266 266 265 265 264 264 264 263 263 263 262 262
272 272 275 276 276 274 273 273 274 272 269 269 270 268 268 263 263 267 270 271 270 269 270 270 271 270 269 268 268 268 268 268 266 265 266 265 265 265 265 263 262 263 265 264 264 263 263 263 263 262 262 263 263 262
274 274 269 270 271 272 268 269 269 268 269 271 270 263 262 263 264 269 270 270 270 269 269 268 268 269 268 267 268 268 267 266 265 266 266 265 265 264 263 264 262 262 263 262 264 264 263 262 262 261 260 260 260 261
272 273 272 264 268 268 267 267 268 268 269 269 266 264 264 266 268 270 270 271 271 270 268 266 265 267 266 266 265 265 266 267 263 261 261 262 263 263 263 263 263 262 262 263 262 263 263 262 260 259 259 259 260 261
271 273 269 267 265 265 266 267 267 267 268 268 268 266 266 266 267 270 270 270 269 268 267 266 266 267 265 266 264 264 263 263 263 263 263 261 262 262 262 262 262 261 261 262 261 262 260 261 260 261 259 259 259 259
271 274 270 269 267 268 267 267 267 267 267 266 267 266 264 266 267 267 267 266 266 265 266 265 264 265 265 264 265 264 262 262 260 260 261 262 262 262 262 261 261 261 261 260 260 260 259 260 259 258 258 257 256 256
269 269 269 266 266 267 267 269 269 268 267 267 265 265 264 265 263 265 266 267 266 266 262 265 265 265 264 263 262 262 256 262 262 261 259 262 262 261 261 261 260 260 260 259 259 259 258 257 258 257 257 256 256 255
268 269 269 268 266 266 268 269 267 265 266 266 265 264 265 265 263 265 264 265 267 267 266 266 265 264 262 261 262 262 258 262 256 256 258 258 257 258 260 261 260 259 258 259 259 258 257 257 257 256 256 255 255 255

GFSWCAN_sfc_thetae_057.txt.gz
Theta_e
301 302 302 302 302 302 301 301 301 302 302 302 302 302 302 302 303 302 304 308 301 296 297 299 300 298 296 298 294 297 296 299 299 293 293 292 293 294 292 295 295 293 293 293 296 293 290 305 304 300 306 311 309 310
302 302 301 302 302 301 302 302 302 302 301 302 302 302 302 303 303 303 301 306 307 300 298 305 304 305 303 302 300 301 299 299 300 297 298 298 297 298 295 291 299 294 299 297 298 299 307 307 307 310 311 310 311 311
302 302 301 302 301 301 302 301 301 301 301 302 302 302 302 303 303 304 303 306 304 298 297 299 299 305 306 307 309 299 303 304 303 307 300 299 295 298 295 295 297 301 304 300 300 304 306 308 310 310 311 311 312 312
302 302 302 301 301 301 301 301 301 302 302 302 302 302 302 302 303 303 301 306 304 298 291 294 303 301 305 305 304 308 307 309 307 305 303 301 297 300 298 297 296 300 302 300 300 302 305 307 308 309 311 311 310 310
301 301 301 301 301 301 301 301 301 301 302 302 302 302 302 302 303 302 303 304 305 298 291 293 299 302 303 299 297 303 307 306 303 301 302 297 300 298 300 301 298 299 299 299 297 302 305 306 310 311 312 311 310 309
300 301 301 301 301 301 302 302 302 302 302 302 302 302 301 302 301 299 291 299 304 303 295 290 301 299 301 302 299 301 303 306 304 302 302 302 303 301 299 296 300 300 302 304 304 307 308 310 308 308 310 312 311 309
299 300 300 301 301 301 301 301 301 301 302 301 301 301 301 301 302 296 294 300 303 304 295 289 290 299 301 300 300 300 303 304 305 303 302 302 302 302 302 297 299 303 304 305 308 307 304 306 305 306 307 311 308 309
299 299 300 300 300 300 300 301 301 301 300 300 300 300 300 300 301 299 302 301 303 297 298 288 287 292 300 293 292 303 301 303 302 301 303 301 304 304 296 300 302 303 304 306 308 309 307 305 303 304 304 305 304 304
299 299 299 299 299 300 300 300 300 300 300 300 299 300 299 298 295 299 301 301 306 299 290 287 286 286 297 295 296 298 301 295 303 299 300 301 299 295 299 301 302 304 305 305 308 308 306 303 304 302 301 300 301 301
299 299 299 299 299 299 299 300 300 300 300 299 299 295 292 298 300 299 294 292 296 297 294 288 293 286 289 291 293 293 297 294 290 297 303 298 297 300 293 299 304 304 304 306 302 302 302 301 302 301 300 300 300 299
299 299 299 299 299 299 300 300 299 299 299 300 296 293 300 301 296 294 290 289 290 288 293 292 292 286 292 289 289 295 291 292 287 291 295 294 293 288 290 294 300 302 303 303 304 303 303 303 303 300 299 299 299 297
299 299 299 299 299 299 299 299 299 301 300 299 299 301 298 294 292 287 287 289 287 287 293 291 291 295 295 297 293 292 289 290 286 291 287 281 285 287 288 289 293 295 298 300 300 300 299 299 300 299 298 295 294 291
299 299 299 299 299 299 299 299 298 299 301 304 298 293 293 291 283 282 280 283 286 292 291 292 290 297 296 297 289 292 288 286 290 285 283 284 286 287 287 287 289 289 289 290 290 291 290 288 289 288 285 285 285 284
299 299 299 299 299 299 299 299 299 299 297 290 286 283 284 283 282 281 282 283 286 286 291 294 291 290 290 289 287 287 286 288 286 283 281 283 285 285 287 287 285 283 284 283 283 283 283 282 282 283 282 282 282 281
299 299 299 299 299 298 298 297 297 298 292 284 284 277 280 282 283 283 284 286 286 286 286 289 287 288 287 287 286 287 285 280 280 278 281 284 286 286 285 285 284 284 283 283 283 283 282 282 282 282 283 283 282 280
299 299 298 298 298 298 298 297 297 296 289 282 278 276 278 280 280 281 281 282 285 284 286 287 286 285 284 285 281 279 279 274 276 280 282 284 285 285 284 284 284 285 284 283 283 282 282 281 280 280 281 281 280 280
299 297 298 298 297 297 297 295 291 284 282 280 278 279 277 277 276 278 280 281 284 285 283 284 279 278 284 278 275 276 274 277 279 279 280 281 281 283 283 283 284 284 283 283 282 282 282 282 281 280 278 279 279 279
299 299 298 298 299 297 294 292 286 282 277 278 277 277 278 278 277 278 281 282 286 283 281 277 280 275 273 273 272 274 277 281 280 278 277 279 280 280 281 281 281 282 282 281 282 281 281 280 279 279 279 279 279 279
299 299 298 297 298 295 290 289 288 278 278 280 279 280 280 278 279 281 282 282 282 283 280 277 273 271 272 274 274 276 277 279 277 278 277 277 277 278 279 278 278 278 278 279 278 278 278 279 280 280 280 279 278 279
297 296 295 295 297 293 287 286 291 283 280 281 283 280 279 278 280 282 282 282 281 278 274 272 271 272 273 275 276 276 278 281 280 275 274 276 277 276 276 277 277 277 276 276 276 277 277 276 277 277 277 277 276 275
296 295 294 297 293 291 288 287 285 285 285 283 285 283 280 281 279 278 277 279 276 274 272 274 274 275 276 276 277 277 276 276 274 275 274 272 275 275 275 275 275 275 274 273 272 272 273 273 274 275 274 273 273 274
295 291 295 294 289 289 287 289 287 289 286 285 283 282 279 277 277 276 277 273 272 273 274 274 275 275 274 274 274 275 276 275 275 274 273 273 271 271 272 273 272 271 271 271 271 270 270 271 272 272 273 273 273 271
291 293 290 290 286 286 282 290 283 284 281 282 283 278 278 277 277 280 273 273 272 275 276 275 275 276 275 275 275 275 276 275 274 273 273 272 272 272 271 271 272 271 270 270 271 270 270 270 270 271 271 271 271 271
289 284 281 282 284 279 284 281 284 282 282 280 277 274 275 276 279 275 270 271 273 275 275 275 277 275 275 274 272 273 274 275 274 274 275 274 272 271 271 271 271 272 272 272 271 270 270 270 269 270 269 268 268 268
281 277 281 278 282 280 278 278 278 279 276 277 274 274 274 279 273 271 270 271 273 273 274 275 275 275 274 273 273 272 273 274 272 270 272 274 274 273 271 270 269 269 270 270 269 269 268 268 268 268 267 265 265 266
274 276 277 278 278 278 278 275 275 275 276 274 274 276 278 275 270 268 270 272 272 272 273 274 273 272 271 272 271 270 271 274 273 269 268 270 270 270 269 268 268 266 268 268 268 267 266 266 266 265 266 266 263 264
275 275 277 280 280 279 278 278 278 276 273 273 275 273 273 268 267 269 272 274 272 272 273 274 274 273 271 271 271 271 271 270 269 268 269 268 268 268 267 265 263 265 268 267 267 266 265 265 265 264 264 265 264 264
276 277 272 275 275 277 273 274 273 272 273 274 275 268 267 268 268 272 272 273 273 273 272 272 273 273 272 271 272 272 270 269 268 269 269 269 268 268 267 267 265 264 266 265 266 266 265 264 264 264 263 263 262 264
275 277 274 268 272 271 271 272 272 271 272 274 272 268 267 269 272 271 272 273 274 273 271 270 270 271 270 270 269 269 270 270 267 263 262 266 267 265 267 266 266 265 266 266 264 264 264 263 263 262 262 263 264 264
274 278 272 269 268 268 269 272 270 271 272 272 271 269 268 269 270 274 273 272 272 271 271 271 271 272 270 270 268 266 267 267 266 267 266 264 264 265 266 265 265 265 265 265 264 265 263 264 263 264 263 263 262 261
278 277 273 272 269 270 271 272 272 272 272 271 272 270 268 268 270 271 271 272 271 270 270 268 269 270 269 268 269 267 265 265 263 263 265 266 266 265 264 264 264 265 265 264 263 263 262 263 263 262 261 260 259 259
275 274 271 268 268 271 273 274 273 272 272 271 269 270 269 269 267 269 270 271 270 270 267 270 269 268 268 267 266 265 262 265 265 264 261 265 265 264 265 264 264 264 263 262 263 262 261 261 261 261 260 260 259 258
274 273 273 271 269 269 272 273 271 269 271 270 269 270 270 270 266 269 270 271 271 271 270 270 269 268 266 265 266 265 264 265 261 261 261 260 259 260 262 265 264 263 262 262 262 262 261 260 260 259 259 259 258 258

GFSWCAN_sfc_thetae_060.txt.gz
Theta_e
301 301 302 302 302 302 302 302 302 302 302 303 303 302 302 302 303 300 297 303 299 295 297 298 298 296 296 297 292 297 295 297 294 292 292 291 292 291 290 292 293 291 289 289 292 288 287 305 303 297 303 308 312 309
301 302 303 302 303 301 302 301 300 302 302 302 302 302 302 302 302 302 296 303 305 300 297 304 304 305 304 302 299 298 297 296 299 295 296 296 295 295 293 288 297 290 296 294 295 295 307 307 306 309 310 310 311 310
302 302 302 302 301 301 301 301 301 300 301 301 302 302 302 302 303 302 301 301 302 296 298 299 298 305 307 307 309 298 299 303 302 304 299 299 294 297 292 293 295 300 302 297 298 301 304 307 309 310 311 311 311 312
302 302 301 301 301 301 301 301 301 301 301 302 302 302 302 302 302 302 300 303 302 298 291 294 306 302 306 306 305 303 302 302 307 305 300 298 296 301 295 297 295 298 301 299 300 303 303 304 307 308 310 312 312 311
301 301 301 301 301 301 301 301 301 301 301 302 302 302 302 302 302 303 303 304 308 298 290 294 300 303 304 303 302 302 300 298 302 296 299 294 300 300 301 300 296 299 297 296 296 303 302 303 305 308 308 308 311 311
301 301 301 301 301 301 301 301 301 301 301 302 302 302 302 302 302 302 293 301 305 304 295 289 299 298 301 300 299 300 299 300 303 299 298 301 304 300 296 292 297 300 301 300 298 302 306 308 309 310 308 309 309 312
300 301 301 301 301 301 301 301 301 301 301 302 302 302 302 302 303 296 293 299 304 306 294 289 290 297 300 300 298 297 300 300 301 301 299 300 300 299 295 293 298 301 302 303 304 304 304 306 305 307 306 307 309 310
300 300 300 300 300 301 301 301 301 301 301 301 301 301 301 302 301 298 302 302 304 297 296 289 288 293 300 294 293 299 297 299 300 300 302 299 300 301 293 297 300 302 302 302 303 308 309 309 306 305 305 305 305 305
299 299 300 300 300 300 300 300 300 300 300 300 301 301 300 299 295 297 301 303 306 299 290 288 286 285 297 295 296 298 300 292 300 297 297 299 297 292 293 294 298 302 302 302 305 307 307 307 306 304 303 302 301 301
299 299 299 299 299 299 299 299 300 300 300 301 300 295 291 297 300 300 298 294 295 296 295 286 293 286 288 290 293 296 298 292 289 295 301 295 293 291 290 290 293 297 300 302 300 301 301 302 303 304 303 302 301 301
299 299 299 299 299 299 299 300 300 300 300 299 295 291 298 300 298 295 288 288 289 286 291 292 293 288 289 285 287 296 288 293 287 292 293 292 286 285 288 288 291 293 296 300 301 301 301 300 301 302 301 301 300 298
300 299 300 299 299 299 299 299 299 300 300 298 299 300 299 293 291 287 286 289 288 286 293 291 291 292 289 289 285 289 286 290 286 293 289 282 283 286 286 286 288 289 291 292 293 293 293 293 295 293 290 287 286 286
299 299 299 299 299 299 299 299 299 299 303 303 297 292 292 290 284 283 280 284 285 286 290 291 288 292 293 292 286 287 286 285 289 285 280 281 284 285 286 285 285 285 285 285 284 285 285 285 285 285 283 282 282 281
299 299 299 299 299 299 299 299 299 300 299 290 287 282 283 281 281 280 280 283 285 285 285 287 290 287 289 287 285 285 285 286 284 280 276 280 283 284 285 285 284 282 283 282 282 282 282 281 281 282 281 281 280 278
299 299 299 299 298 298 298 298 298 297 290 283 284 277 278 282 282 282 284 284 286 286 285 287 287 289 286 286 286 286 284 277 277 276 278 280 283 284 283 284 283 283 282 282 282 281 281 281 280 280 280 280 279 278
299 298 297 298 298 298 298 298 297 295 288 282 278 276 279 280 278 280 281 281 286 284 285 286 286 285 282 283 279 277 277 272 275 277 279 281 281 282 282 283 282 282 282 281 281 281 280 279 278 278 279 279 279 279
299 296 298 297 297 297 297 295 291 284 281 280 277 280 279 278 277 279 281 281 285 282 283 284 279 277 284 278 274 276 274 275 277 277 278 279 279 280 281 281 282 282 281 281 280 280 280 280 280 278 277 278 278 278
298 299 298 298 299 297 294 291 285 281 276 278 276 278 279 280 279 281 282 283 285 283 282 278 281 274 271 271 271 275 278 277 277 276 276 277 278 278 278 278 279 279 279 279 280 280 280 279 279 278 279 279 278 278
299 299 297 297 297 295 289 288 287 278 279 280 280 280 279 279 279 282 283 283 282 282 280 276 272 270 270 273 273 275 277 276 275 276 276 276 276 277 277 277 276 276 277 277 277 277 276 277 278 278 278 278 277 278
295 295 295 295 296 292 286 286 291 283 279 281 281 279 278 278 279 278 278 279 278 276 272 270 269 271 272 274 275 276 277 280 277 274 274 275 276 275 275 275 275 275 275 274 274 275 275 275 275 275 275 275 274 273
296 296 294 297 294 292 289 288 285 286 285 283 283 282 279 280 277 275 276 278 275 273 271 273 273 274 275 276 277 276 275 276 275 275 273 272 275 274 274 274 274 274 273 272 271 271 272 271 273 273 272 271 272 274
294 292 295 295 291 289 288 291 287 289 285 284 283 282 279 277 276 276 277 273 272 272 275 275 275 275 274 274 275 276 276 275 275 274 274 274 272 272 272 273 272 271 271 271 270 270 270 270 272 272 272 272 271 270
292 293 292 291 285 286 283 291 284 284 280 281 282 278 278 277 278 280 273 273 274 277 276 276 276 276 275 276 276 276 277 275 274 274 273 273 273 273 273 272 273 272 270 270 271 271 270 270 270 270 270 270 270 270
291 285 283 283 284 280 285 282 284 282 282 279 277 274 275 277 280 275 270 271 274 276 276 277 277 275 274 274 272 273 275 275 274 275 275 273 271 270 270 270 271 272 272 271 270 270 270 269 269 268 267 267 267 267
282 278 282 279 285 281 279 279 279 279 276 278 275 275 275 279 274 272 270 272 273 274 275 276 276 275 273 272 272 272 274 273 271 269 271 273 274 273 270 269 268 268 270 270 269 268 267 268 268 267 266 264 264 265
275 277 279 279 279 279 279 276 277 277 277 275 274 276 278 275 271 269 271 273 272 273 274 275 274 272 271 272 270 269 270 273 272 268 268 269 270 270 268 267 266 265 269 269 268 267 266 266 265 265 265 264 262 264
275 275 278 283 282 280 279 280 280 277 275 274 275 275 274 269 268 269 273 274 272 273 275 275 275 273 271 271 271 270 270 270 269 268 269 269 268 268 267 264 263 264 267 267 267 266 265 265 264 264 264 264 264 263
277 278 273 276 276 278 274 275 274 273 273 276 275 269 269 269 268 272 273 274 274 274 273 273 273 273 272 271 272 272 271 270 269 270 269 269 268 268 267 266 266 266 266 265 265 265 264 264 263 263 263 263 263 264
276 277 274 269 272 272 272 273 272 272 273 275 272 269 268 271 273 272 273 274 275 274 271 271 271 272 271 270 270 270 270 270 268 265 265 266 266 265 267 267 266 266 267 267 266 265 264 263 262 262 263 263 264 264
275 279 272 270 269 268 270 273 271 274 274 272 271 270 269 270 272 275 274 274 273 272 272 272 272 272 270 270 268 267 267 267 266 266 266 264 264 266 266 265 265 265 266 265 265 265 265 264 265 265 263 263 262 260
279 278 273 271 269 271 271 273 274 274 273 273 274 270 268 268 271 273 273 273 272 271 271 269 270 270 269 269 269 267 265 265 264 264 265 266 266 265 264 264 265 265 265 264 264 263 262 262 263 263 262 261 260 259
277 274 271 268 268 272 274 276 274 273 273 271 270 270 270 271 268 269 272 272 271 271 268 271 270 268 268 267 266 265 263 266 265 264 265 265 265 265 265 265 265 265 264 263 263 263 262 261 261 261 261 260 259 259
275 275 273 271 270 271 273 274 272 271 272 271 270 271 271 270 267 269 271 273 272 272 271 271 270 268 267 267 267 265 265 265 262 263 262 261 259 260 261 264 264 264 263 262 262 262 262 261 260 259 259 259 259 258

GFSWCAN_sfc_thetae_063.txt.gz
Theta_e
301 301 301 301 302 302 303 303 302 302 302 303 303 303 303 303 303 301 296 299 297 291 293 296 298 294 294 293 288 291 291 292 289 283 285 283 281 287 287 290 290 288 285 284 287 283 282 302 301 294 298 302 303 302
301 302 302 302 302 302 302 302 302 302 302 302 303 303 303 303 303 302 294 299 301 296 297 301 300 301 301 301 296 294 291 291 293 288 287 287 282 284 285 282 294 286 290 288 290 289 300 304 302 305 306 305 305 304
302 302 302 302 302 302 301 302 301 301 301 301 302 302 303 303 303 301 297 297 296 292 294 295 296 303 307 305 304 292 292 297 296 298 293 292 285 288 280 284 289 294 298 293 293 297 299 301 306 306 306 306 307 307
302 301 301 301 301 301 301 301 300 301 301 301 302 302 303 303 303 301 297 299 296 294 288 291 304 301 305 305 303 300 298 299 300 297 293 291 287 293 286 291 289 293 297 295 294 298 301 301 303 305 304 306 307 307
301 300 301 301 301 301 301 301 301 300 301 302 302 302 303 303 302 301 300 300 301 294 287 291 300 302 303 302 300 299 298 295 294 291 289 288 293 292 292 292 289 294 291 291 290 299 299 300 303 307 306 306 307 305
301 301 301 301 301 301 301 301 301 301 301 301 301 302 302 302 301 298 293 299 304 303 294 285 297 298 298 299 297 297 297 295 296 295 292 296 298 293 284 284 293 296 297 297 294 298 298 300 304 306 305 305 305 304
301 301 301 301 301 301 301 301 301 301 301 301 301 302 302 302 300 294 291 296 303 303 293 285 286 295 298 297 294 294 296 295 295 293 294 293 293 295 285 283 295 298 299 298 301 302 297 297 300 303 303 302 303 304
300 301 301 301 301 301 301 301 301 301 301 301 301 301 301 301 301 296 299 302 302 296 294 283 283 288 297 290 288 293 291 293 294 292 294 293 294 293 287 291 293 295 298 300 301 303 302 303 302 302 301 300 299 299
299 300 300 300 300 300 301 301 301 301 301 301 301 301 299 298 293 294 302 303 303 296 286 281 279 282 292 291 290 290 292 282 293 288 289 294 289 284 286 287 289 291 293 294 299 301 301 300 300 301 299 298 296 296
299 299 299 299 299 300 300 300 300 301 301 302 300 294 287 294 300 300 296 292 291 292 290 281 287 280 288 287 283 284 285 282 281 288 294 288 284 287 286 288 289 290 292 295 294 293 295 296 297 298 297 296 296 294
299 299 299 299 299 299 300 300 300 300 300 298 292 289 295 300 297 292 284 283 286 281 286 286 286 284 290 285 285 288 285 281 278 284 286 285 278 282 285 286 287 288 290 291 293 291 291 290 291 290 288 288 287 286
299 299 299 299 299 299 299 299 299 297 297 297 296 298 296 293 289 283 280 283 281 280 285 283 287 289 287 290 285 288 285 283 279 287 285 277 280 283 284 284 284 285 286 286 287 287 287 287 286 285 284 282 281 281
299 299 299 299 299 299 299 299 299 300 301 299 295 289 289 284 279 274 275 277 281 283 285 287 285 286 288 288 284 285 281 283 288 281 275 276 281 283 283 283 283 283 283 283 282 283 282 281 281 281 280 280 279 279
298 299 299 299 298 298 298 299 298 298 295 286 284 276 278 277 278 277 278 279 283 284 283 284 286 286 285 283 285 284 284 284 279 274 271 276 280 281 283 283 281 280 281 280 280 280 279 279 278 278 278 279 278 277
298 299 299 298 299 298 298 298 297 292 285 277 277 273 273 279 278 280 281 282 283 284 282 284 286 287 284 284 283 282 278 272 273 270 274 277 280 281 280 281 280 279 279 278 278 278 278 278 277 277 278 278 277 277
299 298 296 298 297 297 297 296 292 291 283 277 275 272 273 270 270 273 277 279 282 282 282 284 284 282 279 278 275 274 272 269 270 274 276 277 278 279 279 280 279 279 279 279 278 278 278 277 276 276 277 277 277 277
299 295 297 296 296 296 296 291 286 280 278 278 276 278 275 272 274 276 279 276 283 281 280 279 273 274 279 271 270 274 269 271 273 274 276 276 275 277 277 277 277 278 279 279 279 278 278 278 278 277 275 276 277 277
296 296 298 298 298 297 292 288 282 279 275 276 274 275 277 275 275 278 277 279 282 281 278 275 277 270 268 267 268 273 273 274 274 273 273 276 275 275 275 275 276 276 276 276 275 276 277 277 276 276 277 277 276 276
297 297 297 298 296 293 285 285 285 276 277 278 278 279 278 277 277 278 278 279 279 279 277 273 267 267 268 270 271 273 274 273 272 273 273 274 274 275 275 274 274 273 274 274 274 273 273 273 273 274 274 274 274 274
297 296 295 295 295 289 284 283 288 281 278 277 279 276 275 274 276 276 276 278 277 274 270 268 268 270 270 272 273 273 276 276 274 271 271 272 273 273 272 273 272 272 272 272 272 272 272 271 272 271 271 271 270 270
295 294 294 295 291 290 286 284 283 283 282 280 281 279 277 277 273 272 273 276 272 271 269 271 271 272 274 274 275 274 273 273 272 272 271 270 272 272 271 272 271 271 270 269 268 268 269 269 271 270 268 267 269 269
290 293 291 291 285 286 284 285 284 283 281 280 278 279 273 270 270 271 274 271 270 271 272 272 272 273 273 274 274 274 274 274 273 273 272 272 270 270 270 270 270 269 269 268 268 267 267 268 268 268 268 267 266 266
293 291 286 285 280 279 277 285 278 281 275 276 277 274 272 271 275 276 268 271 273 274 274 274 274 275 274 274 275 275 275 274 271 271 271 270 270 270 269 269 270 268 267 268 268 267 266 264 264 263 263 264 263 260
290 283 279 278 278 273 279 276 280 279 276 273 272 269 271 272 274 269 267 270 272 275 276 275 274 272 272 272 270 271 272 272 270 269 271 269 267 266 267 266 266 267 268 267 266 263 263 260 260 260 258 257 257 257
274 273 276 271 278 273 271 270 272 273 268 271 267 269 269 275 267 267 266 269 270 271 271 273 274 273 269 269 269 269 271 270 267 265 267 269 268 266 265 265 265 266 266 265 260 256 255 258 259 254 257 255 257 255
269 272 273 274 272 272 273 267 267 268 268 266 269 274 272 266 262 264 269 269 265 269 271 272 267 268 268 268 266 265 266 269 267 264 265 266 265 262 261 260 259 261 264 258 258 255 256 256 256 257 255 256 254 253
268 270 277 281 279 278 272 272 274 269 265 266 269 267 264 258 259 267 271 271 267 270 271 272 272 269 268 267 268 267 266 267 265 266 266 266 265 264 260 255 255 260 261 262 257 256 254 253 252 253 253 252 252 252
275 275 268 270 270 273 266 266 265 264 265 271 268 260 259 261 263 269 269 270 268 270 270 269 269 269 268 268 268 266 264 263 263 265 265 265 263 261 261 259 258 264 258 254 254 253 253 252 252 251 251 253 252 255
271 273 270 264 267 267 268 267 265 268 271 271 263 262 262 269 268 268 268 268 269 269 266 264 262 262 264 264 263 263 261 261 257 255 255 259 256 258 257 258 256 256 257 259 262 257 255 254 253 252 252 252 253 251
271 274 267 264 263 263 267 268 270 268 269 268 268 268 267 267 270 270 270 271 270 266 264 267 268 266 265 261 256 256 258 255 255 256 257 255 255 256 254 254 255 255 255 254 253 257 259 254 258 254 253 251 249 249
276 272 267 266 264 265 265 267 270 270 267 267 266 262 262 262 264 267 266 264 263 261 261 260 261 262 260 258 258 258 255 254 253 255 255 255 255 254 253 254 254 254 256 253 252 252 251 250 250 252 251 250 250 249
272 267 265 262 265 269 270 272 268 266 266 261 260 260 261 262 260 261 263 264 264 265 263 265 263 258 256 256 255 254 257 255 254 254 254 254 255 252 254 257 255 254 253 252 253 253 252 251 250 249 249 249 249 249
270 269 267 265 265 265 268 267 265 265 264 262 261 262 261 262 259 261 263 265 267 268 265 262 260 257 256 258 256 254 257 253 255 260 257 256 253 253 250 252 251 252 252 251 251 252 252 253 251 249 249 249 249 247

GFSWCAN_sfc_thetae_066.txt.gz
Theta_e
301 301 301 301 302 302 302 302 302 302 302 302 302 302 302 303 303 301 297 299 293 286 290 295 294 290 291 290 285 288 288 289 287 282 281 280 278 285 285 289 287 285 284 283 285 283 280 300 300 294 296 300 303 303
301 302 302 302 302 303 302 302 302 302 302 302 302 302 303 303 303 302 295 299 299 293 292 299 299 298 298 297 293 291 290 290 290 285 284 283 280 280 284 281 291 285 290 287 289 288 298 301 302 304 304 302 303 302
302 302 302 301 302 302 302 302 302 302 302 302 302 303 303 303 303 302 296 297 296 291 290 293 293 300 304 303 302 290 292 296 295 294 290 288 283 286 283 283 287 290 296 291 291 295 297 299 304 304 305 303 305 306
301 301 301 302 301 301 301 301 301 301 301 302 302 302 303 303 303 302 296 298 296 292 285 290 302 298 303 303 303 301 299 300 299 297 289 285 283 291 283 288 288 291 294 293 292 296 299 300 301 302 304 305 305 306
301 301 301 301 301 301 301 300 300 301 301 301 302 302 303 303 303 300 299 298 297 293 286 290 298 301 302 302 301 301 299 298 295 292 288 285 290 290 289 291 288 293 292 290 288 296 297 298 299 303 303 302 303 304
301 301 301 301 301 301 300 300 301 301 300 301 302 302 303 302 302 298 291 297 299 299 290 285 297 296 298 299 298 298 298 295 295 290 287 293 296 292 286 285 293 294 296 296 294 299 300 300 301 302 302 303 304 303
301 301 301 301 301 301 300 300 300 301 302 302 302 302 302 301 299 293 289 296 302 299 290 286 288 296 297 296 293 293 296 293 293 291 288 291 292 295 286 284 289 292 293 296 297 299 296 298 296 300 301 301 301 302
300 300 301 301 301 301 300 301 301 301 301 300 301 301 301 302 301 296 298 302 303 296 293 282 286 290 293 288 287 291 289 291 291 289 290 291 294 292 287 286 288 290 292 294 293 298 298 299 299 298 299 298 297 297
300 300 300 300 300 300 300 301 300 300 301 301 301 301 299 297 293 296 302 303 303 294 283 278 277 280 291 289 288 288 290 283 290 282 288 291 288 280 282 284 286 288 288 290 293 294 296 295 296 296 296 296 294 291
299 299 299 299 300 300 300 300 301 301 300 299 298 293 287 294 301 300 296 291 289 290 287 280 285 281 287 287 285 283 280 281 283 285 291 284 280 285 284 286 286 286 288 290 290 288 289 290 291 289 288 288 288 285
299 299 299 299 299 300 300 300 300 300 301 296 290 289 294 299 295 291 283 284 284 282 285 285 285 282 288 279 283 286 285 282 278 283 282 280 277 280 284 284 284 285 287 287 288 288 288 288 287 286 284 283 282 281
300 299 299 299 299 299 299 299 300 297 295 295 293 295 294 292 286 282 282 284 281 282 286 282 284 285 286 290 285 286 284 284 279 284 277 270 277 281 282 282 282 283 284 284 284 283 284 284 283 282 280 279 279 278
299 299 299 299 299 299 299 299 300 300 299 297 291 286 285 280 274 272 274 279 280 282 283 285 285 283 287 289 285 284 282 280 287 276 271 273 279 280 280 281 280 281 281 280 280 280 279 279 279 279 278 279 279 278
298 298 299 298 298 298 297 297 297 295 290 283 280 272 273 272 274 275 276 278 282 281 282 282 284 285 285 283 284 282 282 281 273 270 268 274 278 279 280 280 278 277 278 278 277 277 277 277 276 277 277 277 276 275
298 298 297 297 297 298 296 296 295 288 282 275 275 268 270 274 273 277 277 279 282 282 282 283 285 286 282 281 279 278 274 268 270 267 271 275 278 278 278 278 277 277 277 276 277 276 276 276 276 275 276 277 276 276
299 297 295 297 298 298 296 292 289 287 280 274 274 269 270 266 267 268 268 271 276 280 282 284 280 279 276 275 272 270 269 266 268 272 274 276 275 275 276 278 278 277 277 277 277 277 276 276 275 275 276 276 276 275
299 293 297 298 298 297 295 288 284 280 278 275 270 268 264 264 267 272 270 275 281 280 276 278 272 272 276 271 270 272 267 270 272 273 274 274 273 274 275 276 275 275 275 276 277 277 277 277 277 275 273 275 275 275
294 295 297 298 298 295 288 285 281 279 275 275 271 271 271 270 269 269 276 278 279 279 278 272 275 268 266 266 267 270 271 272 272 271 272 273 273 273 273 272 273 274 274 273 273 273 274 274 274 274 274 274 274 273
295 296 297 297 294 288 283 284 283 275 275 276 275 275 274 274 276 277 277 276 277 276 274 270 266 265 266 269 270 271 272 271 270 270 271 272 272 272 272 272 272 271 272 272 272 271 271 271 272 272 272 272 270 271
297 296 296 296 296 286 282 282 286 279 276 275 276 274 274 273 275 274 274 275 274 273 268 266 266 268 268 270 273 273 273 273 272 269 269 270 271 271 270 271 270 270 270 270 270 271 270 269 270 270 270 269 267 266
294 292 295 293 289 287 284 283 282 280 279 277 278 277 273 274 272 271 271 274 270 268 267 270 269 271 273 273 274 273 273 273 271 271 270 269 271 271 270 270 270 270 268 268 267 267 267 267 267 267 266 265 265 264
288 293 288 288 283 284 281 283 282 282 280 279 278 279 273 269 269 270 273 269 269 270 271 271 272 273 272 272 272 273 273 273 272 271 271 270 268 268 268 269 268 267 267 266 265 264 264 265 266 266 264 262 263 262
290 288 283 282 278 277 275 283 277 281 273 273 275 272 269 267 272 275 266 271 271 273 273 272 272 273 273 274 274 273 273 271 268 267 267 266 266 266 266 267 267 265 265 265 266 264 261 260 260 259 259 259 259 256
287 280 276 274 275 272 274 273 279 277 273 271 270 267 271 268 271 266 265 268 272 274 273 272 272 270 270 269 267 269 270 269 267 268 267 266 264 264 264 264 265 265 264 264 262 260 259 255 255 258 255 254 252 251
273 272 272 267 272 270 267 266 268 270 265 268 266 266 267 270 263 262 263 267 268 268 267 271 271 269 266 265 266 266 268 267 265 264 265 266 264 263 263 263 263 264 264 258 254 255 253 253 253 254 254 252 255 253
266 268 271 268 267 269 268 264 263 263 262 262 267 269 266 261 258 260 266 264 263 265 263 260 265 265 265 266 265 264 264 266 265 263 263 264 263 259 256 255 256 260 261 255 253 252 252 253 252 252 250 252 250 250
264 267 275 277 276 274 268 268 270 264 260 263 264 261 258 254 255 265 268 268 267 264 267 268 269 267 265 265 266 265 265 265 264 264 264 264 263 262 257 254 254 258 259 256 253 251 250 248 248 249 248 248 250 248
273 270 264 264 266 269 261 260 257 258 260 269 264 256 254 256 260 265 265 267 265 268 268 268 268 267 266 266 264 262 261 260 262 263 263 262 260 257 256 255 257 261 253 250 249 249 249 249 248 248 249 251 249 250
266 268 267 260 262 263 264 259 260 265 268 267 256 257 261 267 262 265 266 266 266 266 264 263 258 259 261 261 258 258 258 259 257 255 254 251 252 256 255 252 251 253 254 254 259 254 252 251 252 251 249 249 248 245
266 269 263 259 259 260 262 264 260 259 266 264 266 267 266 265 268 267 267 269 263 258 257 258 259 258 254 254 251 253 252 248 250 254 253 251 253 254 249 250 250 252 249 248 249 252 256 251 255 253 252 249 245 246
271 266 263 261 260 263 261 260 266 264 259 258 257 257 259 262 263 265 264 262 263 259 259 256 256 252 256 253 250 249 251 252 249 251 252 252 249 248 249 249 249 249 249 248 248 247 247 246 245 246 246 247 246 245
264 260 261 262 264 265 265 263 257 256 254 255 254 252 256 255 255 257 259 257 257 257 255 255 256 254 251 249 248 248 253 252 250 251 252 249 248 247 248 252 251 249 248 247 248 250 250 249 247 246 246 246 245 245
262 265 261 262 262 261 263 260 259 261 258 256 258 257 257 258 255 260 261 258 259 260 257 255 252 253 253 253 253 251 252 251 250 257 254 253 250 251 246 246 245 246 247 246 246 247 249 250 249 248 246 244 244 244

GFSWCAN_sfc_thetae_069.txt.gz
Theta_e
301 301 302 302 301 301 301 301 302 301 301 301 301 302 302 302 303 300 296 299 293 287 290 294 294 290 290 289 283 287 288 287 284 280 280 279 276 282 283 286 284 283 283 280 285 282 277 298 298 293 296 299 300 301
302 302 302 302 302 302 302 302 302 302 302 302 301 301 302 302 302 301 294 300 299 292 291 294 297 299 297 295 292 291 289 289 289 283 281 281 277 278 282 279 290 283 286 283 285 286 295 297 298 300 302 302 302 302
302 301 302 301 301 302 302 302 302 302 302 302 302 302 302 302 302 301 296 298 296 290 289 290 290 297 302 299 299 289 291 294 292 291 287 285 281 283 277 280 284 287 292 288 289 292 295 297 299 304 305 303 304 305
302 301 301 301 301 301 300 301 301 302 302 302 302 302 302 302 303 302 297 298 295 292 285 288 297 294 300 303 300 299 297 298 297 293 288 283 281 289 281 286 284 287 290 289 289 293 296 299 300 301 302 303 304 304
301 301 301 301 301 301 300 300 300 300 301 302 302 302 302 303 303 302 299 299 298 290 283 286 297 299 302 300 299 299 298 294 291 288 287 284 288 289 287 288 285 291 290 286 284 294 293 297 301 300 300 301 302 303
301 301 301 301 301 301 301 301 300 301 300 301 302 303 303 303 299 296 288 298 299 298 290 283 296 296 298 299 298 297 296 294 293 292 290 292 296 292 281 282 290 291 293 294 292 294 295 299 299 299 300 301 302 302
301 301 301 301 301 301 301 301 300 300 301 301 302 302 303 301 298 292 289 295 300 298 288 284 288 296 299 296 294 294 295 295 293 291 289 290 292 294 285 283 288 290 291 293 294 295 295 296 296 298 298 298 300 299
301 300 300 300 300 300 300 301 301 301 301 301 301 302 301 301 301 296 297 300 300 294 290 283 285 289 295 289 289 293 290 292 292 289 288 287 290 290 284 284 287 288 289 292 291 294 294 296 294 293 296 296 294 290
300 300 300 300 300 300 300 300 301 301 301 301 301 301 299 296 294 295 301 301 302 294 285 282 281 283 290 288 287 287 288 285 289 282 285 288 286 277 280 282 284 285 285 287 290 292 291 292 291 289 288 287 286 283
299 299 299 299 299 299 300 300 300 300 300 300 298 291 285 296 302 301 296 290 291 289 286 281 281 284 289 287 281 283 281 281 283 285 289 280 279 282 282 284 284 283 285 287 286 287 287 287 287 285 283 283 282 281
299 299 299 299 299 299 300 300 299 300 299 294 290 287 295 300 296 290 284 282 284 282 284 283 283 280 286 281 285 283 284 280 275 280 282 278 275 278 281 281 282 283 284 285 286 285 285 285 284 282 281 280 280 279
299 299 299 298 298 299 299 300 300 297 295 294 294 296 293 289 284 282 281 281 283 282 284 280 285 285 286 289 282 286 284 284 280 283 277 271 276 279 279 279 279 280 281 280 281 280 280 280 280 279 279 278 278 278
298 298 299 298 297 297 297 299 299 299 298 294 288 282 282 277 272 270 272 275 275 282 281 284 285 285 286 288 283 284 281 281 282 273 269 272 277 278 278 278 278 278 278 278 278 278 278 277 278 278 276 277 277 276
297 297 298 298 298 296 296 295 295 291 287 280 277 268 269 267 271 273 274 275 280 279 279 281 284 285 285 284 284 281 278 279 272 267 266 272 276 277 278 278 276 275 276 275 275 276 276 276 275 276 275 275 274 273
297 297 298 298 298 297 295 294 292 287 282 275 274 267 269 273 273 275 275 276 280 281 281 283 284 284 279 277 277 273 272 266 268 265 270 273 275 277 276 277 276 275 275 275 276 275 275 275 274 274 275 275 275 274
297 296 295 298 298 296 294 290 287 286 280 275 273 269 270 267 269 270 270 272 278 279 283 282 281 278 274 274 270 269 267 265 267 269 272 275 274 274 274 275 275 276 276 276 276 275 275 274 273 273 274 274 273 273
297 293 297 298 297 294 293 285 282 278 275 272 269 269 263 262 264 269 271 274 279 279 276 277 271 271 275 270 268 269 265 268 270 271 272 271 271 271 273 273 273 273 273 273 274 275 275 275 274 273 272 273 273 273
294 296 297 298 295 291 287 284 280 277 272 272 269 271 267 267 268 269 273 275 277 277 275 271 274 267 264 265 265 268 269 270 270 270 270 271 271 272 272 271 272 272 272 272 272 272 273 273 272 272 272 272 271 270
295 296 297 297 294 286 282 281 281 272 272 272 271 272 269 271 274 274 274 275 275 275 273 270 265 264 265 268 268 268 267 269 268 269 269 271 271 271 271 271 271 271 271 271 271 270 270 270 270 271 270 269 267 268
297 296 296 296 294 283 281 280 282 276 273 272 274 272 272 272 273 270 273 274 274 272 267 264 264 264 265 268 270 270 269 270 270 268 268 269 270 270 269 270 269 270 269 269 269 269 269 268 268 268 267 266 264 263
291 291 293 292 288 286 282 280 278 278 277 275 276 275 272 274 271 271 271 274 270 268 266 268 268 270 272 272 272 272 272 272 270 269 268 267 269 269 268 269 269 268 266 265 265 265 266 265 265 265 263 261 260 260
286 293 285 285 283 283 281 282 280 280 279 278 276 277 271 267 267 269 273 268 268 269 270 270 270 270 270 269 270 271 270 270 270 269 268 269 267 267 267 267 267 265 265 264 264 262 263 264 264 262 260 257 258 258
289 286 281 280 277 276 276 282 277 280 272 273 274 272 268 265 271 274 265 270 270 272 270 270 271 272 271 271 271 271 271 269 267 266 266 266 265 265 265 265 264 262 262 262 263 261 260 259 257 256 256 256 255 253
286 278 275 273 275 270 273 272 278 275 272 271 270 267 268 266 270 266 265 267 270 272 271 271 271 269 269 268 267 268 269 268 266 265 265 264 263 262 263 263 263 262 262 262 260 257 256 252 253 255 251 250 246 247
274 271 271 267 271 270 266 265 266 269 264 266 266 266 265 269 262 260 261 265 267 266 265 269 269 267 264 263 264 265 268 267 265 263 264 264 262 262 262 262 262 262 261 256 251 251 248 249 250 251 251 248 253 250
267 270 267 267 266 268 266 263 263 262 262 262 264 266 262 259 256 258 264 263 262 263 258 260 263 264 264 265 264 263 263 265 265 262 263 264 262 257 254 254 255 259 259 252 251 249 250 248 248 250 247 249 249 247
263 265 273 274 274 271 265 265 268 264 260 261 261 257 256 251 252 262 267 267 265 264 266 266 267 265 264 264 264 264 263 263 262 262 263 262 262 261 256 253 254 258 258 254 250 251 250 247 247 246 248 246 245 245
270 267 262 261 263 266 257 257 256 257 260 268 261 253 252 254 259 263 263 264 265 267 267 266 267 266 265 263 262 261 259 259 260 261 261 260 258 255 253 253 254 258 250 248 247 246 247 248 247 246 247 249 248 245
263 265 264 257 260 261 262 257 259 265 267 262 254 255 260 266 262 263 265 263 264 265 263 261 258 256 258 258 256 258 255 255 254 251 250 249 248 254 252 249 249 249 249 251 256 253 250 249 249 248 247 247 246 242
263 266 260 256 258 259 258 260 257 256 264 262 265 266 265 263 265 262 264 261 260 257 255 256 254 253 251 252 250 252 250 248 251 255 251 249 252 251 249 248 249 248 246 247 248 249 255 251 254 251 248 246 244 244
267 263 261 261 260 260 259 255 257 260 255 256 255 256 258 260 263 265 264 261 259 256 258 254 252 249 252 248 247 248 250 249 246 248 249 249 246 246 246 246 246 246 245 246 246 245 245 244 243 244 245 246 245 243
259 256 260 260 261 263 261 256 255 254 251 254 252 250 254 253 253 259 260 259 259 255 253 251 254 254 250 248 246 246 251 250 249 250 250 247 246 246 247 248 245 245 245 245 246 246 247 248 245 244 245 245 243 243
260 261 260 261 260 259 260 261 260 257 255 254 256 254 253 253 253 258 260 257 258 258 257 255 251 250 250 251 250 248 249 247 248 256 252 251 248 248 244 243 243 244 246 245 244 244 246 247 246 246 245 243 243 242

GFSWCAN_sfc_thetae_072.txt.gz
Theta_e
301 301 302 302 302 302 302 302 301 301 301 301 302 302 302 303 303 300 297 301 293 287 291 294 294 290 290 289 284 287 288 287 285 281 281 281 277 281 281 284 284 282 281 283 284 282 279 294 297 291 294 296 297 300
301 302 302 301 302 302 302 302 301 301 301 301 301 302 302 302 303 302 293 299 299 292 291 296 297 298 297 295 291 291 288 287 287 282 280 281 277 277 282 278 287 280 284 282 284 284 292 294 293 299 300 298 298 300
301 302 301 302 301 301 302 302 302 302 301 302 301 301 301 302 302 301 296 297 295 288 290 290 290 295 300 299 299 290 290 293 289 290 285 283 279 282 277 279 283 286 290 286 286 287 291 293 295 299 300 300 301 303
301 301 301 301 301 301 301 301 301 302 302 302 302 301 301 302 302 300 295 298 294 291 284 286 296 293 298 299 299 298 296 298 297 294 286 282 281 287 280 284 283 286 288 287 287 290 293 293 295 299 300 302 303 305
301 301 301 301 301 301 301 301 300 301 302 302 302 302 302 302 302 299 299 298 298 290 283 283 294 295 297 298 298 298 298 295 293 289 284 282 285 286 285 285 283 289 287 284 283 291 290 292 295 297 297 298 300 301
301 301 301 301 301 301 301 300 300 300 301 302 302 302 302 302 301 297 289 297 298 294 287 282 293 294 296 300 298 296 296 295 294 291 287 290 292 288 278 280 289 291 292 293 291 292 292 293 296 295 295 298 297 295
300 301 300 300 301 301 301 300 300 300 301 302 302 302 302 301 299 291 289 294 300 299 289 277 285 293 296 297 296 295 297 295 293 289 289 289 289 291 285 283 286 289 290 290 294 292 291 292 293 293 292 295 292 289
300 300 300 300 300 300 300 300 300 300 301 302 302 302 302 302 300 296 297 300 300 293 291 280 284 289 296 289 289 294 291 292 291 288 287 286 289 288 284 283 285 287 286 289 288 290 292 293 292 288 288 288 286 284
299 299 299 300 300 300 300 300 301 301 302 302 301 301 299 297 293 294 301 301 300 293 284 284 281 282 292 289 290 289 291 285 290 285 284 288 284 279 279 281 282 283 283 284 287 289 290 289 289 285 284 283 281 280
298 298 299 299 299 299 299 300 300 300 300 299 297 291 286 295 301 300 293 290 289 290 287 283 285 284 288 285 284 285 284 283 282 285 287 278 277 280 281 281 281 281 283 285 283 284 284 284 284 282 281 281 280 279
299 298 298 298 299 299 299 300 300 300 299 295 289 287 296 301 294 288 283 284 285 281 284 285 283 283 285 281 284 283 283 279 279 280 283 277 274 278 280 279 280 280 281 282 283 282 282 282 281 280 279 279 279 278
298 299 298 298 298 298 300 299 299 296 294 295 294 296 292 287 284 282 281 283 281 280 283 284 285 285 286 286 283 285 279 283 278 281 276 269 275 277 278 278 277 278 279 279 280 279 279 279 279 278 277 277 276 276
298 298 298 298 296 296 296 297 299 299 296 292 285 280 280 275 269 268 270 276 277 279 280 283 283 285 286 287 283 285 281 279 279 272 269 270 275 277 277 277 276 277 277 277 277 278 277 276 277 276 275 275 275 275
297 298 298 298 296 296 295 293 294 291 285 279 275 266 267 266 270 271 272 273 279 276 276 278 284 284 284 282 280 280 276 276 270 266 265 271 275 276 277 277 276 275 276 275 275 275 274 274 274 274 273 273 273 271
297 297 298 297 297 295 293 293 290 285 280 273 272 265 267 271 273 274 275 277 278 279 279 282 283 281 276 274 274 274 270 266 267 265 270 273 274 274 275 275 275 275 275 274 274 273 273 273 272 272 273 273 273 272
297 296 295 298 295 294 291 288 286 284 278 274 272 268 269 269 269 269 271 272 278 277 282 282 278 274 273 273 269 267 267 263 265 268 270 272 272 272 272 273 273 273 275 274 274 274 273 272 272 272 272 272 271 271
296 292 297 298 297 292 291 283 281 277 274 271 268 269 265 267 265 268 270 273 277 279 275 275 269 270 274 269 266 267 263 266 269 270 271 271 271 271 272 272 272 272 272 272 273 274 273 273 273 271 269 271 271 271
293 295 297 298 295 289 284 282 278 275 269 268 265 268 268 267 269 268 272 274 276 276 274 270 273 267 265 265 265 267 269 270 270 270 270 270 271 271 271 271 271 272 271 271 271 271 272 271 270 270 270 270 269 269
295 295 296 297 291 284 280 279 278 270 269 269 269 270 268 268 271 273 274 275 275 276 274 270 266 265 265 268 268 268 269 269 268 269 269 269 270 270 270 270 270 270 270 270 270 269 268 269 269 269 268 267 265 266
297 295 295 295 292 283 280 278 280 274 269 271 274 272 270 270 273 269 272 274 273 271 266 263 262 262 263 266 268 268 269 270 270 267 267 268 269 269 268 269 268 269 269 268 268 268 268 266 266 265 264 264 262 261
290 290 292 290 284 284 280 278 276 275 275 273 275 274 271 273 270 269 270 273 268 267 265 267 267 269 271 271 271 271 270 271 269 269 267 266 268 268 268 268 268 267 266 266 265 265 264 263 263 263 260 259 259 260
286 291 284 284 282 281 279 280 278 278 277 276 275 276 270 266 267 269 272 267 267 267 269 269 269 269 269 268 268 269 269 269 269 268 267 268 266 266 265 266 265 264 263 263 263 261 262 263 261 260 257 253 257 257
288 285 281 281 277 276 277 281 276 279 272 273 274 271 267 266 270 273 265 269 269 271 270 270 270 271 269 270 270 270 269 268 266 266 265 264 264 263 263 262 262 259 259 260 261 259 257 256 255 254 253 254 253 250
284 276 271 269 274 269 272 271 277 274 272 271 269 267 265 265 269 264 263 266 269 271 270 270 270 268 268 267 266 266 267 267 265 264 264 263 261 261 262 261 261 260 260 260 258 256 255 249 251 253 248 247 244 245
273 270 270 265 269 268 265 263 265 267 262 264 264 263 263 268 261 259 258 261 263 262 261 266 267 266 263 262 264 265 266 266 263 262 262 263 261 261 261 261 260 261 260 254 249 248 247 246 246 247 248 246 252 247
267 269 267 267 265 267 265 261 260 262 262 261 261 262 261 258 256 256 263 259 258 260 255 258 261 263 264 265 263 262 262 264 264 261 261 263 261 255 253 253 255 258 257 251 250 248 248 246 247 248 247 249 249 245
263 264 271 272 273 270 264 264 267 263 259 261 261 256 255 251 251 260 266 263 263 262 264 264 266 265 263 263 263 262 262 262 261 261 262 261 261 260 255 252 253 256 257 252 249 249 249 247 246 246 246 244 243 244
269 267 262 260 262 264 256 256 255 256 260 266 260 252 252 253 259 263 263 263 264 266 265 264 265 264 263 262 260 260 258 257 259 259 259 259 257 254 252 251 253 257 249 246 246 245 246 247 246 245 245 247 246 243
261 263 262 255 258 259 260 256 258 264 266 260 253 254 259 264 262 262 265 262 263 264 261 259 256 255 257 256 254 255 254 253 253 250 249 248 247 252 250 249 248 248 246 250 255 250 249 248 248 247 246 245 244 241
262 265 258 254 255 257 256 259 257 257 262 261 265 266 263 262 264 261 261 260 259 255 253 253 250 250 250 250 250 253 251 249 251 255 252 250 251 249 248 249 248 246 244 246 247 249 254 249 253 248 248 246 243 243
265 260 258 259 259 259 258 253 253 257 253 255 254 255 257 258 261 262 259 254 254 254 255 251 250 246 249 246 247 248 250 248 244 247 248 246 245 245 246 245 244 244 244 245 245 245 244 243 242 243 244 245 244 242
258 255 259 259 260 260 259 253 252 253 250 253 251 248 251 253 252 258 258 257 256 255 253 251 251 253 251 248 245 246 249 248 247 247 248 246 246 244 245 246 244 244 244 244 244 244 245 245 244 243 243 244 243 242
259 259 258 258 257 257 258 259 258 256 255 253 253 250 249 251 253 257 258 255 256 255 254 253 250 247 248 247 248 246 247 246 247 256 251 251 248 247 243 241 242 243 245 244 242 243 245 246 245 244 243 242 243 242

GFSWCAN_sfc_thetae_075.txt.gz
Theta_e
301 300 300 301 302 302 302 302 302 302 302 301 301 301 301 301 301 299 295 300 294 287 291 295 295 292 291 289 285 288 287 287 287 283 283 282 281 284 283 286 286 285 283 283 284 281 280 295 297 291 296 301 299 300
300 300 302 302 301 301 302 302 302 302 302 301 301 300 301 302 302 301 294 300 300 292 291 297 298 298 297 295 291 291 290 288 289 285 285 285 282 283 284 280 289 285 289 287 288 288 295 298 297 299 302 300 301 301
300 301 301 301 301 301 301 301 301 302 302 301 301 301 300 301 302 301 295 299 295 287 289 290 292 298 300 300 301 289 291 294 291 293 288 286 282 285 282 284 287 290 292 289 289 292 294 295 297 299 299 299 300 301
301 301 301 301 301 301 301 301 301 301 301 301 301 301 300 300 300 300 296 298 294 291 285 287 296 294 300 300 300 299 297 299 297 296 289 286 285 289 285 287 286 289 291 290 289 292 294 296 297 297 297 299 299 299
301 301 301 300 301 301 301 301 301 300 301 301 301 301 301 300 301 299 298 297 298 291 284 286 294 296 298 298 297 299 298 295 294 292 288 287 289 290 289 289 287 292 290 288 287 290 290 292 296 296 294 295 295 292
300 300 300 301 301 300 301 300 300 300 301 302 301 301 301 300 300 296 288 297 299 298 289 282 293 293 294 295 296 296 296 295 294 292 289 291 294 291 286 284 289 292 292 292 290 293 293 294 296 293 291 291 292 289
300 300 300 300 300 300 300 300 300 300 301 301 301 301 301 300 297 292 289 295 299 299 288 282 285 293 294 295 296 296 298 296 294 292 290 291 291 293 286 282 287 288 288 289 292 291 292 293 292 291 289 289 289 287
300 300 299 299 300 300 300 300 300 301 301 301 301 301 301 300 299 295 297 300 299 294 291 281 281 288 295 290 288 294 291 292 292 289 290 289 291 290 284 283 284 284 285 288 286 288 288 292 291 288 287 286 284 281
299 299 299 299 299 299 300 300 301 301 302 302 301 301 298 295 292 294 301 301 300 293 284 282 279 281 293 289 290 287 291 285 290 285 287 290 286 281 279 280 280 281 281 282 285 287 288 287 287 284 284 282 282 280
298 298 299 299 299 300 299 299 301 301 300 299 296 290 286 294 301 299 293 290 290 290 288 283 286 284 289 287 286 286 287 285 282 286 288 283 277 279 280 280 280 280 281 282 281 282 281 282 283 281 280 280 280 279
299 298 297 297 299 299 299 299 300 300 300 294 289 288 296 300 293 290 285 284 285 283 284 285 285 284 288 285 284 285 285 284 279 283 284 278 274 276 279 278 279 279 279 280 281 281 281 280 279 279 278 278 278 277
298 298 297 297 297 299 300 300 299 296 295 294 294 293 290 285 284 282 280 282 283 280 284 285 285 286 286 288 286 285 282 283 278 281 276 270 274 277 277 277 277 278 278 278 279 278 278 278 278 277 277 276 275 275
298 298 297 296 296 296 297 298 297 297 294 289 284 279 280 276 269 269 271 275 277 279 280 283 283 285 287 288 285 285 278 276 279 272 268 271 275 276 276 277 276 277 277 276 276 277 276 275 276 275 274 274 274 273
297 298 297 296 295 293 294 294 294 290 284 278 274 266 266 265 270 271 272 274 278 279 279 281 284 283 283 280 279 277 275 276 269 266 266 271 273 275 276 276 275 274 274 274 274 274 273 273 273 273 273 272 271 270
297 297 297 295 295 294 293 291 289 284 280 272 272 265 268 271 273 273 274 275 278 279 280 283 280 280 276 273 274 275 270 266 267 266 269 272 273 274 273 274 274 274 274 273 273 273 272 272 272 271 272 272 272 271
297 296 294 297 293 292 290 288 285 283 278 273 270 268 269 269 270 270 271 272 277 276 281 280 277 273 272 271 268 266 267 264 266 269 271 272 272 273 273 273 273 274 274 273 273 273 272 272 271 271 271 271 270 270
296 290 297 297 293 291 290 284 281 277 274 271 268 270 267 268 268 269 270 272 276 278 274 275 270 269 274 269 266 268 265 268 270 270 271 271 271 271 272 273 272 272 272 272 273 273 272 272 272 271 269 270 270 270
291 292 297 297 293 287 283 282 278 274 269 270 268 269 270 269 269 269 271 274 275 276 275 271 273 268 266 266 265 268 269 270 270 270 270 271 271 271 272 271 271 271 271 271 271 271 271 270 270 269 269 269 269 268
294 293 296 295 289 283 279 278 278 269 270 271 271 272 271 269 272 274 274 275 276 277 274 271 267 266 266 268 268 269 270 270 268 269 269 270 270 270 270 270 270 270 270 270 269 268 268 268 268 269 268 268 267 267
296 294 294 294 291 282 279 277 280 274 269 272 274 272 271 271 273 271 272 274 273 270 266 264 264 266 267 269 270 270 270 271 270 268 267 269 270 269 269 269 269 270 269 269 268 268 268 266 266 265 265 265 264 263
290 290 290 288 283 282 279 277 275 275 274 273 274 274 271 272 271 270 270 272 268 267 265 267 267 269 270 270 272 272 271 272 270 270 268 267 269 269 268 269 268 268 267 267 266 265 265 264 264 264 263 262 262 263
285 290 283 284 281 280 278 279 277 277 276 275 274 274 269 266 267 269 272 267 266 267 269 269 269 269 268 268 268 269 269 269 269 268 268 268 267 266 266 266 266 265 264 264 264 263 263 263 262 261 260 260 261 261
287 284 280 280 275 274 276 282 276 278 271 272 274 270 268 268 270 272 266 268 268 271 271 270 270 271 269 270 270 270 269 268 267 266 265 265 264 264 264 263 264 263 262 262 263 262 261 258 258 259 259 260 259 259
283 275 270 270 274 267 271 269 276 274 273 272 270 267 266 266 269 265 264 266 269 271 270 270 269 268 268 267 266 266 267 267 265 265 265 264 263 263 263 263 263 262 263 262 261 260 259 258 256 259 258 257 257 257
272 269 269 265 270 269 266 264 267 268 264 265 265 263 263 268 261 260 261 265 267 266 266 268 268 267 265 264 265 265 267 267 265 263 264 265 263 263 263 263 262 262 262 260 258 258 256 255 256 257 257 258 258 257
266 267 266 266 264 267 265 262 261 262 262 261 261 262 261 260 258 257 264 263 264 264 261 263 265 265 265 265 264 264 264 266 265 263 263 264 263 262 260 260 261 261 260 260 258 258 257 255 257 257 257 255 252 256
262 262 269 270 271 268 262 263 266 263 259 259 260 257 257 254 254 261 266 266 266 265 266 266 268 266 265 263 263 263 263 263 263 262 263 262 262 262 261 260 259 261 260 259 258 259 259 257 257 256 257 255 255 255
264 265 260 258 260 263 256 256 256 256 262 265 261 253 254 255 260 265 265 265 265 266 265 264 265 265 264 262 262 261 260 260 261 261 262 261 260 259 258 258 259 258 256 256 257 256 257 257 257 256 256 258 257 253
261 261 261 254 257 258 259 256 259 264 265 260 255 256 260 263 262 264 265 265 265 265 262 261 258 259 259 259 257 259 259 260 260 256 256 257 257 259 257 257 257 257 256 259 256 256 257 257 256 256 256 256 255 252
260 263 257 253 254 256 256 260 258 258 262 262 265 265 263 263 264 265 264 263 262 260 257 258 255 258 258 258 257 257 256 255 257 259 257 257 258 257 256 257 257 255 254 257 258 258 256 257 257 255 255 255 255 255
264 260 257 258 257 260 258 253 253 257 255 256 256 257 258 260 263 262 260 256 256 255 257 256 255 253 255 254 256 256 257 256 250 252 254 254 254 255 255 254 253 253 254 256 255 256 255 254 254 254 255 255 254 252
257 255 257 257 258 258 258 253 252 254 253 256 254 252 255 256 255 260 260 258 257 257 255 255 257 260 255 255 252 253 251 255 254 253 254 254 255 253 253 253 252 253 254 254 253 253 253 254 254 254 254 253 253 252
259 258 259 259 259 257 257 258 258 256 255 255 254 252 252 255 255 259 259 257 260 261 258 257 256 253 254 253 254 253 251 253 251 257 252 252 250 252 252 251 251 252 253 253 253 252 253 253 254 253 252 251 251 251

GFSWCAN_sfc_thetae_078.txt.gz
Theta_e
300 301 300 300 301 301 302 302 302 302 302 302 303 302 302 302 302 298 296 302 294 288 292 295 295 292 293 293 287 291 289 289 287 284 285 285 285 287 286 288 287 286 285 284 285 282 281 299 298 292 297 301 302 303
300 300 300 302 301 302 302 302 302 302 302 302 302 302 301 302 302 301 292 300 301 291 292 300 300 301 299 297 294 293 291 291 292 288 289 289 286 290 287 283 292 286 290 288 290 289 298 301 299 302 303 302 303 303
300 301 302 301 301 301 301 301 302 302 302 302 302 302 302 302 302 300 295 297 295 290 290 293 292 300 303 302 303 291 293 296 295 298 294 292 286 290 285 287 289 293 296 292 291 295 296 299 301 302 302 301 303 303
301 301 301 301 301 301 301 301 301 301 301 302 302 302 301 301 302 301 296 298 296 291 287 289 300 296 302 303 301 301 298 300 299 298 293 291 288 294 289 290 290 293 294 291 292 295 297 298 300 300 300 302 301 300
301 301 300 300 300 301 301 301 301 301 301 302 302 301 301 301 302 300 299 299 301 295 288 289 296 299 301 301 299 300 298 296 295 291 290 290 294 293 295 294 290 295 292 291 289 295 294 296 299 298 298 298 298 296
300 300 300 300 300 300 301 301 301 301 301 301 302 301 301 300 301 297 287 298 301 301 291 285 296 295 297 299 297 297 296 296 294 292 292 296 296 295 289 288 293 295 296 295 293 295 296 298 300 297 296 295 295 294
300 300 300 300 300 300 300 300 300 301 301 301 301 300 300 299 297 293 292 295 301 302 291 287 287 295 297 297 297 296 297 295 293 291 291 294 295 295 291 287 288 288 289 291 289 290 292 292 290 293 293 292 292 290
300 300 300 300 300 300 300 300 301 301 301 301 300 299 300 300 300 297 299 300 302 296 294 286 287 291 296 291 291 297 293 294 293 291 292 293 295 295 287 283 284 285 286 288 286 288 288 291 290 287 287 286 286 283
299 299 298 299 299 300 300 301 301 301 301 300 300 300 297 295 292 295 300 300 304 296 287 285 285 283 296 292 291 291 292 286 292 287 290 292 289 283 279 280 281 281 282 283 285 288 288 286 285 284 284 282 282 281
298 297 298 299 299 299 300 301 301 300 300 299 297 292 286 294 300 300 295 291 292 293 294 288 293 285 292 289 288 289 288 288 285 287 290 288 278 280 280 281 281 281 281 282 281 282 282 283 283 283 282 282 281 280
297 297 297 299 300 299 300 299 299 299 300 295 291 289 296 300 296 292 287 287 286 284 288 289 290 286 290 287 287 288 287 287 283 284 286 282 278 278 280 279 280 281 281 281 281 282 282 281 281 280 279 279 278 277
297 296 296 297 299 300 300 300 300 300 298 297 294 294 292 288 289 286 284 286 285 283 287 287 287 289 287 292 291 288 285 286 280 285 283 276 276 278 279 279 279 280 280 279 280 279 279 279 279 279 278 276 275 275
297 295 296 295 297 297 297 297 297 296 297 294 288 283 285 280 277 278 277 280 281 283 284 287 285 289 290 292 288 287 282 279 285 279 275 274 276 278 278 279 278 279 279 278 277 278 277 277 277 277 275 275 275 274
297 296 296 295 295 294 293 292 293 292 290 283 280 274 277 274 276 276 278 279 281 282 283 286 287 286 287 283 282 280 279 282 276 273 271 275 275 276 277 277 277 275 275 275 275 275 274 274 274 274 273 273 272 271
297 297 296 295 294 293 292 291 290 289 284 278 279 272 274 276 278 278 279 280 280 280 283 286 285 286 281 279 280 279 275 272 272 272 274 275 276 276 276 276 276 275 274 274 274 273 273 273 272 272 272 273 272 271
297 297 294 293 293 291 291 290 288 287 281 277 275 275 277 278 276 277 277 279 280 280 286 286 281 278 275 276 273 271 271 270 271 274 275 276 274 275 275 275 275 276 275 275 274 274 273 272 272 271 272 271 271 271
297 296 297 292 291 290 290 287 284 279 277 275 273 276 275 276 274 275 275 277 280 282 280 281 275 273 278 273 269 272 270 272 273 273 274 274 274 274 274 274 274 274 274 274 274 273 273 273 273 272 270 270 271 270
296 298 296 297 293 289 286 285 280 277 272 275 273 274 275 275 275 276 278 279 281 280 279 275 278 272 271 268 270 271 271 272 273 273 273 273 273 274 274 274 273 274 273 273 273 273 273 272 272 271 271 271 270 270
296 296 296 294 293 288 282 280 281 273 274 276 276 277 277 276 277 278 278 279 279 280 278 275 271 270 270 272 272 273 273 274 272 273 273 273 273 273 273 273 273 273 272 272 272 271 270 270 271 271 271 272 270 270
294 294 294 294 293 285 279 279 283 277 274 276 277 276 276 276 277 277 276 277 276 274 271 269 269 270 272 273 276 275 275 275 275 273 272 273 274 273 273 274 273 273 272 272 271 272 271 270 270 270 270 270 269 268
294 293 292 293 290 287 282 280 278 278 278 276 278 277 275 276 275 274 273 275 272 270 269 271 271 272 274 275 276 276 275 276 275 276 273 272 273 274 273 273 273 273 272 271 270 269 269 269 269 269 269 268 268 268
292 290 292 291 286 284 282 283 280 281 279 278 277 277 274 273 273 273 275 272 270 270 272 272 273 273 272 272 272 273 273 273 273 273 272 272 272 271 271 271 271 270 269 269 269 268 267 268 268 268 267 267 267 267
290 290 288 286 282 281 279 285 280 280 275 276 277 273 272 273 274 276 271 271 271 273 274 273 273 273 272 273 272 272 272 272 272 271 271 270 270 270 270 270 270 270 268 268 269 268 266 264 265 266 266 267 266 265
286 280 278 280 281 276 280 277 280 277 277 275 273 270 270 272 274 271 268 270 272 273 273 272 273 272 272 271 271 271 271 272 271 270 271 270 269 268 269 269 268 269 269 269 268 267 266 265 264 266 265 265 264 264
279 273 277 273 278 275 274 274 273 274 271 272 270 270 270 273 269 268 267 270 272 272 272 273 273 273 271 270 271 270 270 272 271 269 269 270 269 269 268 268 267 267 269 268 267 266 265 265 265 265 265 265 263 262
270 271 273 273 274 274 274 271 271 271 271 269 269 269 271 270 267 266 269 271 272 272 272 272 272 271 270 271 270 270 269 271 271 269 268 269 269 270 268 267 267 266 268 268 267 266 265 264 265 262 264 261 258 261
269 269 272 273 275 273 272 273 274 273 270 269 269 268 268 265 265 267 270 272 272 272 273 273 273 272 270 269 269 269 269 269 269 268 268 268 267 268 269 267 264 266 267 267 267 267 265 264 264 263 263 264 264 263
270 270 267 266 267 269 266 268 267 267 268 270 269 263 264 265 265 270 271 271 272 272 271 271 272 271 270 268 268 268 267 266 266 267 267 267 267 266 265 266 265 262 265 265 266 265 266 265 265 264 263 264 264 263
267 269 268 260 264 264 264 265 266 267 268 269 266 264 265 267 268 270 270 271 271 271 269 267 266 268 267 267 267 269 269 269 265 262 261 265 266 265 266 266 266 266 266 266 262 263 262 264 264 264 261 264 264 263
266 270 264 262 261 262 264 266 266 266 267 268 269 267 267 267 268 271 270 270 270 270 269 269 268 269 267 268 266 265 266 266 266 266 265 265 265 265 265 265 265 265 265 266 265 264 261 264 262 262 262 262 263 262
270 268 265 265 263 265 266 266 267 267 267 267 269 267 265 267 269 268 268 268 267 266 267 266 265 267 266 266 268 266 265 265 260 260 262 264 264 265 264 263 264 265 265 264 263 263 263 262 263 261 261 261 261 259
267 265 264 263 264 267 267 268 268 267 268 268 266 267 266 268 266 268 267 268 268 268 265 268 268 268 266 266 264 264 259 263 263 262 262 264 264 262 263 263 262 263 263 262 262 262 260 260 261 261 260 260 259 259
267 268 268 266 265 265 266 268 267 266 267 267 266 265 265 266 264 266 265 266 269 270 268 268 267 266 264 263 264 262 263 262 260 261 259 259 258 260 262 262 262 261 259 261 261 260 258 258 259 259 259 258 258 258

GFSWCAN_sfc_thetae_081.txt.gz
Theta_e
299 299 300 300 301 301 302 302 302 303 303 303 303 303 303 302 302 298 296 302 297 291 292 295 295 293 292 293 288 293 290 290 287 287 286 287 287 288 287 290 289 287 285 285 286 283 281 298 298 293 299 301 303 303
299 299 300 301 301 302 302 302 302 302 303 303 303 303 303 303 302 301 292 302 302 294 293 299 299 300 299 298 294 294 292 292 293 289 290 291 288 291 289 284 295 286 291 289 289 290 299 303 299 303 304 302 303 303
299 300 301 301 301 301 302 302 302 302 302 302 302 303 303 303 302 301 294 299 297 292 291 294 293 301 303 303 304 292 294 296 296 299 294 292 288 292 286 288 290 294 296 293 292 297 298 299 301 303 303 303 303 303
299 300 301 301 301 301 301 301 301 301 302 302 302 302 303 303 302 302 294 299 296 291 285 291 299 295 302 303 303 301 298 299 299 298 294 293 290 295 291 291 291 294 296 293 293 295 298 300 301 301 301 302 302 302
301 301 301 301 300 300 301 301 301 301 301 302 302 302 303 303 302 301 298 299 302 294 289 289 297 299 300 301 300 300 298 295 295 291 292 291 295 294 295 294 292 296 294 292 291 296 297 298 299 300 299 298 299 299
301 300 300 300 300 300 300 301 301 301 301 302 302 302 303 302 301 296 289 297 304 302 293 287 297 297 298 299 298 297 297 296 295 290 290 296 298 296 290 288 292 295 295 295 291 294 296 298 296 295 294 296 296 296
300 300 300 299 300 301 301 301 301 301 301 301 301 301 301 301 299 292 292 297 302 304 292 288 290 296 298 298 297 296 298 294 293 292 292 295 295 296 293 288 288 290 292 293 293 293 293 294 290 291 291 291 292 289
299 299 299 300 300 301 300 300 301 301 301 301 300 300 301 301 299 297 300 300 302 295 294 287 289 291 298 292 290 296 291 292 292 290 294 293 295 294 287 285 286 287 290 290 289 290 290 291 291 291 291 290 288 285
299 298 299 299 300 300 300 301 301 301 300 300 299 300 298 296 293 295 301 301 304 296 289 289 287 285 296 293 292 292 291 286 292 288 291 295 292 283 281 282 283 284 284 285 288 290 289 288 288 288 288 287 286 284
297 297 299 299 300 300 300 299 299 300 300 299 298 292 286 296 300 300 295 291 292 295 295 289 294 287 293 292 290 289 291 289 285 288 295 289 280 281 282 283 284 284 285 285 283 284 284 284 284 284 283 283 282 281
297 297 299 299 299 300 299 299 299 299 300 297 292 289 295 300 297 294 288 288 289 286 292 291 291 289 293 287 287 293 288 289 284 286 286 285 279 279 282 282 283 284 284 284 283 283 282 282 281 282 281 281 279 279
296 296 299 300 300 299 299 299 299 300 299 298 294 295 295 292 291 287 285 287 287 284 288 288 289 290 290 291 290 288 286 287 282 288 285 279 277 280 281 281 281 281 281 281 281 280 280 280 281 280 279 278 277 277
296 296 297 297 297 299 299 299 299 298 299 296 291 285 287 285 281 283 279 282 283 286 287 287 286 289 290 291 290 289 284 282 287 283 277 276 278 278 279 280 279 279 279 279 279 279 278 278 278 278 277 277 277 276
296 296 295 295 294 294 294 294 294 296 294 286 284 276 281 279 279 280 281 281 283 285 286 287 288 288 289 287 286 282 281 284 279 278 274 276 276 277 278 278 277 276 276 276 276 276 275 275 274 275 274 275 274 273
296 296 295 293 293 292 292 293 294 294 289 282 283 276 276 279 280 280 282 284 283 286 285 288 288 288 284 282 283 281 278 275 276 275 276 277 277 277 277 277 277 276 276 275 275 274 274 273 273 272 273 273 273 272
297 296 293 293 292 292 293 293 292 291 285 281 279 278 281 281 280 281 282 282 283 284 287 290 285 282 278 280 277 275 276 274 274 275 277 278 276 276 275 276 276 276 276 276 275 275 274 273 272 272 272 272 271 271
296 296 292 291 292 291 292 291 288 281 280 278 276 279 280 279 278 279 281 281 284 285 282 285 279 275 282 277 273 275 273 274 275 275 276 276 275 275 275 275 275 276 275 275 275 275 274 274 274 272 270 271 271 271
297 298 293 292 295 292 289 288 283 280 275 278 276 277 278 280 279 280 281 283 284 283 283 277 282 276 274 272 272 273 274 275 276 276 276 276 276 276 277 276 276 276 275 275 275 275 275 274 273 272 272 272 272 271
297 298 297 295 294 291 285 284 286 277 277 278 279 280 280 279 281 281 282 282 283 283 282 279 275 273 272 275 274 275 276 276 275 275 275 275 276 275 275 275 276 275 275 275 275 274 273 273 274 274 274 274 272 272
295 295 294 294 293 288 281 282 288 281 278 278 280 279 279 279 280 280 280 280 280 278 274 273 272 275 275 277 279 278 277 278 277 275 274 275 276 276 276 276 276 276 275 275 275 274 274 273 273 273 273 273 272 271
294 292 292 295 291 289 285 283 282 282 281 279 281 280 278 280 278 278 277 280 276 274 272 274 273 274 276 278 279 279 278 279 278 278 276 274 276 276 276 276 276 276 275 275 273 272 272 272 272 272 272 271 270 270
294 291 294 293 287 286 284 286 283 284 281 280 279 280 278 277 277 276 279 275 272 273 276 275 275 275 275 274 275 276 276 276 276 276 275 275 275 274 274 275 274 273 273 273 273 272 271 271 272 271 271 270 270 270
292 294 292 289 284 282 279 288 281 281 278 277 279 276 276 277 277 281 274 273 273 276 276 275 275 276 274 275 275 275 276 276 275 275 275 275 274 275 274 274 275 274 272 272 273 271 269 268 268 270 270 270 269 268
289 284 283 283 282 277 282 280 282 280 280 278 276 273 274 276 278 276 272 273 274 275 275 275 276 275 275 275 274 274 274 275 274 274 275 274 273 272 273 272 272 272 272 272 271 271 270 268 267 269 269 269 268 268
282 276 281 277 282 279 277 277 277 277 275 275 273 274 274 277 274 273 271 272 274 275 275 276 277 277 275 274 274 273 274 275 274 272 273 274 273 273 272 271 271 270 273 272 270 270 269 269 269 269 269 269 266 265
274 275 277 277 278 278 278 275 275 275 275 273 273 274 277 276 272 270 273 275 275 275 275 276 276 275 275 275 274 273 273 274 274 273 272 272 272 272 272 271 271 270 271 272 271 270 268 268 268 265 266 264 262 265
273 273 275 277 279 278 277 278 279 277 274 272 274 273 274 270 269 271 275 277 276 277 278 278 277 276 274 273 273 272 273 273 272 271 271 271 271 271 271 270 267 269 271 270 270 270 269 267 267 266 267 268 267 266
273 274 270 272 273 276 273 274 273 272 273 275 275 269 269 270 269 274 275 276 276 277 276 276 276 275 274 273 272 272 271 270 270 270 271 270 270 270 268 268 267 265 268 267 269 268 269 268 268 267 266 266 266 267
272 274 271 265 269 269 269 270 271 271 272 275 272 269 268 270 273 273 274 275 276 275 273 271 271 272 272 272 272 273 273 273 268 264 263 269 269 268 270 270 269 269 270 269 264 266 265 266 266 266 266 266 267 266
270 275 269 266 265 266 267 270 269 271 272 273 271 269 269 270 272 275 275 275 274 274 273 273 272 273 271 270 269 269 271 271 269 269 268 268 268 268 269 268 268 268 268 269 268 268 263 266 265 265 265 265 266 266
274 274 270 269 266 268 270 271 272 273 273 273 274 271 269 269 271 272 273 274 273 273 272 271 271 271 270 270 271 269 269 268 265 265 267 268 268 269 268 267 268 268 268 267 266 266 265 265 265 265 264 264 264 263
273 270 268 266 267 269 272 273 272 272 272 271 270 271 272 272 269 271 272 273 272 272 270 272 271 270 271 270 269 268 266 267 266 266 264 267 268 266 267 267 266 267 266 265 265 264 263 263 263 264 263 263 263 262
272 272 271 270 269 269 270 273 272 271 272 271 270 271 271 272 268 270 271 271 273 273 272 272 271 270 268 268 268 267 267 266 264 263 262 261 261 263 266 266 266 265 263 264 264 264 262 262 262 262 262 261 261 261

GFSWCAN_sfc_thetae_084.txt.gz
Theta_e
297 298 299 299 300 300 301 302 302 302 302 302 302 303 303 302 302 299 296 301 294 289 290 293 294 291 292 291 287 292 288 291 288 284 285 285 285 288 288 289 288 286 284 283 285 282 280 298 297 292 298 302 301 301
298 298 299 299 300 301 302 302 302 302 302 302 303 303 303 303 302 301 293 299 300 292 291 297 298 299 296 296 291 292 290 291 291 288 289 289 287 291 288 283 294 286 289 287 288 287 297 302 301 302 303 301 301 300
298 298 299 300 301 301 302 302 302 302 302 302 303 303 303 303 303 301 295 296 296 291 291 292 291 298 301 301 303 291 293 296 294 298 293 292 287 291 286 287 290 294 296 290 291 295 297 299 300 301 302 300 301 301
298 299 300 301 301 301 301 301 301 301 301 302 302 302 303 303 303 302 294 297 295 291 285 288 298 295 300 303 301 301 298 299 298 296 291 291 289 295 290 291 291 293 294 292 293 295 297 296 298 299 299 299 298 300
298 300 301 301 301 301 301 301 301 301 301 302 302 302 303 303 303 302 297 298 298 293 286 288 295 298 300 300 299 300 298 296 293 289 288 289 294 294 294 294 291 295 291 291 289 293 293 292 296 298 297 296 296 296
299 300 300 300 300 300 300 301 301 301 301 301 302 302 302 303 303 293 286 297 300 300 291 286 297 295 299 298 297 297 298 296 293 290 290 294 297 295 289 287 290 293 294 292 289 293 296 295 293 294 293 293 293 292
299 299 300 299 300 300 301 301 301 301 301 301 302 302 302 301 296 292 292 296 300 300 290 286 289 295 298 297 297 297 298 295 293 290 291 293 294 295 291 286 287 289 292 291 291 292 291 291 289 292 292 292 293 290
299 299 298 300 300 300 301 301 301 301 301 301 301 302 302 299 299 296 301 301 302 295 293 285 286 291 298 291 290 297 292 292 291 290 293 291 294 293 284 285 286 286 289 288 288 291 291 291 291 290 291 290 289 286
298 298 299 299 300 300 300 301 301 301 301 301 301 300 297 295 292 296 301 301 304 296 287 288 285 284 296 292 291 291 291 285 291 287 289 293 288 279 281 282 283 284 284 284 287 290 287 287 286 286 286 284 283 282
297 298 299 300 300 300 300 300 300 300 299 299 298 292 286 295 300 300 294 289 291 293 293 288 294 287 293 291 290 288 290 287 284 288 294 288 278 282 283 283 283 284 284 285 282 281 282 281 282 283 282 281 281 279
297 299 299 299 299 299 299 299 299 300 300 297 292 289 296 301 297 292 286 287 289 287 291 292 292 288 294 288 288 292 287 288 283 286 286 284 277 279 282 282 282 283 283 283 282 282 281 281 281 281 280 279 278 277
297 300 299 299 299 299 299 299 299 299 298 296 294 296 296 292 290 286 285 288 287 284 289 289 289 291 291 292 290 288 285 287 281 289 285 276 277 279 280 280 280 280 280 280 280 279 279 279 280 279 278 277 276 276
298 298 299 299 299 299 299 299 300 299 300 298 292 287 288 286 283 283 279 283 283 286 287 288 285 289 289 291 286 286 284 283 288 284 275 275 277 278 278 279 278 278 278 278 277 277 277 276 277 276 275 275 275 274
296 295 296 296 296 297 296 294 296 297 294 287 285 278 281 279 279 279 281 282 283 285 286 288 288 287 288 286 286 282 283 285 280 278 272 274 276 277 278 278 277 275 276 275 274 274 273 273 273 273 273 273 272 271
294 295 294 294 294 293 294 294 295 294 288 283 284 277 277 280 282 283 285 284 284 287 288 288 289 288 285 282 284 282 279 276 276 273 274 276 277 276 276 276 276 275 275 274 274 273 272 272 272 271 272 272 272 271
296 295 293 293 293 293 293 294 293 291 286 281 280 280 282 282 281 282 283 282 285 286 289 290 285 282 279 281 279 276 277 273 273 275 276 276 275 275 275 276 276 276 276 275 274 273 273 272 271 271 271 271 271 270
297 295 293 292 294 294 294 292 288 283 281 279 277 281 282 280 279 280 282 282 286 286 283 285 279 277 283 277 273 274 272 273 275 275 276 276 275 275 276 276 276 276 275 275 274 274 274 274 273 272 270 271 271 271
296 292 293 294 294 294 291 290 285 282 277 280 277 278 279 281 280 280 282 284 286 284 283 278 283 276 274 273 272 273 274 276 277 276 276 276 276 277 277 276 276 276 275 275 275 275 274 274 273 272 272 272 272 271
298 296 293 293 294 291 285 285 287 277 278 280 280 281 281 281 282 282 283 284 284 285 283 280 275 273 273 276 275 275 276 276 274 275 275 276 276 275 276 276 276 275 275 275 275 274 274 274 274 275 274 274 272 272
296 296 296 294 293 288 283 283 289 281 278 279 282 280 280 279 281 282 282 282 281 279 275 273 274 275 276 277 279 278 278 278 277 274 274 276 277 276 276 277 276 276 275 275 275 275 274 273 273 273 273 272 271 270
294 293 294 295 291 290 286 284 282 282 281 279 281 280 278 281 279 279 278 280 276 275 272 274 274 276 278 279 280 280 278 280 278 278 276 274 277 277 276 276 277 276 276 275 273 273 273 272 272 272 272 270 270 269
293 292 294 293 287 286 285 287 283 284 282 280 280 281 279 278 277 277 279 275 273 275 276 275 275 276 275 275 276 277 277 278 277 277 276 277 275 275 274 275 275 274 273 273 273 272 271 271 272 271 271 270 270 268
291 295 292 289 284 282 280 288 282 283 278 278 280 277 278 277 278 281 274 273 274 277 277 277 276 276 275 276 276 277 277 277 276 275 275 275 275 275 274 274 275 273 272 272 272 271 269 267 268 270 270 270 269 268
291 286 284 283 282 278 283 280 283 280 280 279 276 275 276 277 279 276 272 273 275 276 275 275 276 275 276 276 275 274 275 276 275 275 275 274 273 272 273 272 272 272 272 272 272 271 270 269 266 269 269 269 268 268
283 277 282 278 283 279 278 278 278 278 275 276 275 274 275 279 275 274 272 272 274 275 276 277 278 278 276 275 274 273 275 276 274 272 273 274 273 273 272 271 271 271 272 272 270 270 269 269 269 269 268 268 267 266
275 276 279 279 280 279 279 276 276 277 277 275 274 276 278 277 273 272 274 275 275 276 276 277 277 276 276 276 274 273 273 275 275 272 272 273 272 272 271 270 270 269 271 271 270 269 268 268 268 266 266 264 259 263
275 275 277 280 281 281 279 281 281 278 275 273 275 275 276 271 270 272 277 278 277 278 279 279 279 277 275 273 273 273 273 272 272 271 272 271 271 271 270 268 268 268 270 270 269 269 269 267 267 266 267 267 267 266
275 276 272 275 276 278 276 276 275 274 275 278 277 272 272 271 270 275 276 278 278 278 277 277 277 276 275 273 273 272 271 271 271 271 271 271 271 270 269 267 266 266 267 265 267 268 268 268 267 267 266 266 266 267
274 275 272 267 271 271 271 272 272 272 274 277 273 270 269 272 275 275 276 277 278 276 273 272 272 274 273 273 274 274 274 273 271 266 267 268 269 267 269 269 269 269 269 268 264 266 266 266 266 264 265 266 266 266
272 276 270 269 267 267 269 273 271 273 274 273 272 271 271 272 275 277 276 276 275 274 274 274 273 273 271 271 270 270 271 271 269 269 268 267 267 268 268 268 268 268 268 268 268 267 265 265 267 265 263 265 266 266
276 275 271 270 268 269 271 275 276 276 275 273 274 270 269 270 272 274 275 276 275 274 273 273 272 272 271 271 271 269 268 267 266 266 268 269 268 268 267 267 267 268 268 267 266 266 265 264 265 265 265 264 264 263
275 272 269 266 267 272 274 275 273 272 272 272 271 272 272 272 269 270 273 275 274 273 272 273 271 270 271 270 269 268 266 267 266 267 267 268 267 266 267 267 266 266 265 265 265 264 264 263 263 263 263 263 263 262
274 273 272 270 268 270 272 274 273 272 273 272 272 273 272 272 268 269 272 273 275 274 273 271 271 270 269 269 268 268 267 264 262 264 262 261 260 262 264 266 266 265 264 264 264 264 263 263 262 262 261 261 261 261

GFSWCAN_sfc_thetae_087.txt.gz
Theta_e
295 296 297 298 298 299 300 301 301 302 303 303 303 303 303 302 302 299 295 296 292 286 287 290 291 287 289 288 281 288 285 288 286 280 280 280 278 283 284 287 286 283 281 280 281 278 277 297 297 291 295 299 298 297
294 295 297 298 298 299 300 301 302 302 302 302 303 303 303 303 303 301 293 297 297 289 288 293 293 294 293 294 291 290 289 288 289 283 283 283 280 284 285 281 292 282 287 283 284 284 294 298 297 299 300 297 297 296
294 296 297 298 299 300 301 301 302 302 302 302 302 303 303 303 303 302 295 295 294 290 288 287 287 293 296 295 298 289 291 294 292 295 290 288 282 288 282 284 288 290 295 288 288 293 293 294 297 298 297 296 297 296
295 297 298 299 300 301 301 302 301 301 302 302 302 302 302 303 303 303 295 296 293 290 282 285 295 290 294 294 295 296 296 297 296 294 288 286 285 292 286 289 287 292 293 291 291 292 293 294 295 297 296 296 295 296
296 297 298 299 300 301 301 301 300 300 301 302 302 302 302 303 303 302 297 297 296 289 283 285 291 293 294 293 292 296 295 292 290 289 286 285 290 290 291 291 288 290 287 287 284 289 291 290 292 294 292 292 291 289
297 298 299 300 300 300 300 300 300 301 301 301 302 302 302 302 303 291 285 296 297 296 288 281 293 293 293 293 292 292 294 292 291 289 287 290 295 292 286 284 287 289 289 289 286 291 292 291 291 292 290 291 289 287
297 298 299 299 299 299 300 300 301 301 301 301 301 302 302 302 295 291 288 293 299 297 288 284 283 292 294 292 290 291 293 294 290 290 289 289 291 293 286 281 284 286 287 287 289 292 288 289 287 290 289 290 289 286
297 299 299 298 299 300 300 301 301 301 301 301 301 302 301 300 299 294 298 299 299 293 291 282 282 287 293 288 287 294 291 292 291 289 290 289 290 289 280 282 283 284 286 285 287 287 286 287 287 286 285 285 283 282
298 298 298 299 300 300 300 301 301 301 301 302 301 300 297 294 290 294 300 300 299 293 284 283 279 281 293 289 290 290 291 284 290 286 287 289 282 276 280 280 280 282 281 282 284 283 283 282 283 283 282 281 280 279
298 298 299 300 300 300 300 300 301 301 300 299 297 291 285 294 300 300 294 290 290 291 290 285 289 285 291 287 287 286 286 285 282 284 291 280 275 280 281 281 281 281 281 281 278 277 279 279 280 279 278 278 277 276
298 299 299 300 300 299 299 299 299 300 300 296 288 288 296 301 295 291 284 284 285 283 286 287 288 286 292 285 285 285 283 285 279 283 284 279 274 278 280 279 280 280 280 279 279 279 278 279 278 277 276 276 275 274
299 299 299 299 299 299 299 300 300 298 296 295 294 297 296 292 289 285 281 285 283 281 286 286 287 290 287 290 286 286 282 283 279 287 282 272 275 277 278 277 277 278 277 277 277 276 276 276 277 276 275 274 273 273
299 299 299 299 299 299 298 299 298 298 298 295 291 287 287 284 280 275 275 279 279 282 284 286 285 286 287 289 285 284 281 280 282 278 270 272 275 277 276 276 276 276 276 275 274 275 274 274 274 274 272 272 272 271
298 298 299 299 298 295 296 297 298 296 292 285 281 272 278 276 277 278 279 280 282 284 286 285 285 285 286 283 284 277 280 281 279 270 266 272 274 275 275 276 274 272 272 271 271 270 270 270 269 269 270 270 269 269
296 296 296 295 295 295 295 296 295 292 286 280 280 273 274 278 280 281 283 283 283 286 286 285 282 283 282 277 282 278 278 272 271 265 270 272 273 273 274 275 270 270 269 270 268 268 266 266 267 268 268 269 269 269
295 295 291 293 294 294 295 294 291 289 283 279 278 278 280 277 277 279 281 281 284 284 286 283 279 278 276 279 277 271 273 265 267 271 273 272 271 272 272 273 273 273 272 271 270 270 269 268 267 268 268 268 267 267
295 291 294 294 295 295 296 289 285 282 280 278 275 277 277 275 277 276 277 278 283 282 278 282 277 274 280 273 268 270 266 269 272 273 274 273 273 272 271 273 273 272 269 269 269 269 268 270 270 270 268 267 269 268
291 292 294 295 294 293 289 288 282 280 276 278 273 274 274 278 277 276 278 281 282 280 279 276 278 271 266 268 267 270 272 273 274 273 273 270 271 270 270 268 268 270 271 271 271 271 270 270 270 269 269 270 270 270
291 291 294 294 293 289 283 283 283 276 276 277 278 278 278 278 279 281 280 278 279 279 278 275 271 271 270 271 270 270 269 269 269 267 269 268 268 268 268 270 272 272 274 274 273 272 272 273 273 273 273 273 270 270
295 294 294 295 293 285 282 281 285 279 276 277 279 277 278 278 279 275 276 278 277 276 272 271 270 272 273 275 275 274 272 273 272 270 269 270 272 272 273 274 271 271 272 273 273 273 272 271 271 271 270 270 268 267
293 291 294 293 288 288 283 281 280 279 280 277 279 278 276 277 274 272 273 277 273 272 270 271 271 272 275 275 276 274 276 275 276 273 269 272 274 273 272 273 273 274 272 270 268 270 270 268 269 270 266 260 260 260
290 293 290 290 284 283 282 283 281 282 279 279 279 280 278 273 271 272 276 272 272 273 272 271 271 272 272 270 269 271 269 273 273 273 272 273 272 269 268 271 270 267 266 266 269 265 264 266 267 266 264 263 263 261
292 293 287 285 278 277 278 284 278 281 274 275 278 276 275 272 275 278 268 272 272 275 274 273 273 274 272 272 275 276 275 273 270 268 269 267 268 268 268 268 269 267 266 265 267 264 261 261 262 259 260 261 258 256
290 283 280 278 278 276 279 277 280 278 276 276 274 272 273 272 276 271 268 269 270 272 273 273 274 273 274 275 271 271 273 273 271 270 270 270 268 266 268 267 266 265 266 267 267 264 261 257 259 261 257 258 258 259
276 273 275 271 277 273 271 271 274 275 270 273 271 269 270 275 269 267 266 268 271 268 270 274 275 275 272 269 269 269 273 273 271 268 268 269 267 267 267 267 266 266 267 267 262 259 258 258 258 261 262 259 258 255
267 270 273 274 274 273 273 269 270 271 271 269 269 272 271 269 264 264 269 270 272 270 268 271 272 272 272 272 270 268 268 271 271 267 267 269 267 263 262 263 264 264 264 260 260 261 258 258 259 257 254 255 255 253
267 269 276 279 279 279 274 276 278 272 268 266 267 267 266 260 260 269 274 272 272 273 276 275 276 273 270 269 270 269 268 268 268 268 268 268 267 266 262 259 260 261 264 262 259 259 261 258 255 255 255 255 256 255
272 274 265 272 271 274 271 269 269 266 267 274 270 262 261 261 264 271 274 276 275 274 272 272 273 272 270 269 268 265 263 263 264 265 266 265 263 260 259 258 258 264 256 255 256 256 257 258 259 259 258 255 254 255
269 271 269 263 267 267 266 267 267 268 271 271 263 261 263 270 272 273 273 273 273 271 269 268 266 267 268 267 266 267 267 265 263 257 256 259 259 258 259 260 258 258 262 259 261 258 257 256 255 253 254 254 254 253
268 273 266 264 262 263 266 270 264 267 269 268 270 271 270 271 273 273 271 271 270 269 265 264 263 263 262 264 262 264 264 261 258 258 259 258 258 259 257 258 260 257 256 256 259 259 263 258 260 255 257 256 257 257
274 271 266 265 263 265 271 272 272 271 269 269 267 266 265 267 268 272 273 272 270 269 269 268 266 264 265 263 263 263 258 258 256 256 258 257 261 258 255 255 255 255 257 256 254 254 254 252 252 255 256 255 253 252
270 265 263 261 264 268 273 267 265 268 267 265 262 262 262 263 262 266 269 268 268 268 266 266 266 265 264 263 263 263 262 259 256 256 258 261 255 255 256 256 256 256 254 253 254 254 253 252 251 251 251 252 251 250
268 267 266 264 263 263 267 268 266 268 266 267 268 270 266 264 261 262 266 269 271 269 268 267 266 265 265 264 263 261 259 256 255 260 257 256 254 256 258 255 255 255 253 253 253 253 253 254 251 251 250 249 249 248

GFSWCAN_sfc_thetae_090.txt.gz
Theta_e
296 296 295 296 296 296 297 298 300 300 301 302 302 303 302 303 302 299 295 296 289 282 285 287 289 285 288 289 283 286 282 287 285 281 280 279 276 282 282 285 284 282 281 279 279 279 276 295 297 289 293 296 296 296
295 296 295 295 296 297 298 299 300 301 301 302 302 302 303 303 302 302 293 296 295 287 286 291 291 291 291 292 288 289 288 288 288 285 283 282 277 278 282 278 291 283 286 282 283 282 293 295 294 296 297 295 295 294
295 294 294 294 297 297 298 299 300 302 302 302 302 302 303 303 303 302 296 295 293 288 286 286 285 291 294 294 296 284 289 293 291 293 288 287 282 285 278 281 286 288 291 288 288 291 291 294 295 295 296 294 293 292
294 293 293 295 297 298 299 300 301 301 302 302 302 302 302 303 303 302 296 296 293 290 281 284 293 289 294 293 294 293 294 296 295 292 288 285 282 290 287 288 286 289 291 287 289 291 291 292 293 294 293 292 290 289
293 293 294 296 297 298 299 300 300 301 301 302 302 302 302 303 303 302 299 297 296 289 280 283 290 292 293 291 290 291 292 291 288 287 284 284 287 289 289 289 284 286 284 284 282 287 289 288 290 292 290 288 287 286
293 293 296 297 298 299 300 300 300 300 301 301 301 302 302 302 302 292 285 296 297 297 288 282 289 291 291 290 288 288 294 290 289 287 286 289 293 288 284 282 285 287 287 287 286 288 288 289 289 289 289 287 285 283
293 295 296 297 298 299 300 299 300 300 301 301 301 301 302 302 296 291 288 292 298 297 287 282 282 290 291 290 288 288 290 290 291 289 287 289 289 290 283 277 282 286 285 286 285 290 285 285 283 286 287 286 285 282
295 296 297 298 299 299 299 299 300 301 301 301 301 301 301 301 299 295 298 299 298 290 290 279 278 284 291 286 285 289 286 288 291 289 290 288 290 286 275 280 281 283 284 283 283 284 284 285 284 283 284 284 281 280
295 296 297 298 298 299 300 300 301 301 301 302 302 302 298 294 291 294 300 299 298 292 284 282 274 276 291 286 289 290 291 284 290 285 285 288 279 275 278 278 278 279 279 280 281 281 281 281 281 280 279 279 278 277
296 298 298 299 300 300 300 300 301 301 301 300 296 289 285 293 300 299 294 289 289 291 287 283 284 282 288 287 286 285 286 285 281 284 287 278 275 278 278 278 279 278 279 279 278 276 278 278 278 277 276 276 276 275
298 298 300 300 300 300 300 300 300 299 300 294 289 288 296 300 294 289 284 283 285 282 284 284 286 285 289 285 284 283 284 285 280 283 283 276 273 275 277 276 278 278 277 277 277 276 277 277 276 275 275 274 274 273
297 300 299 299 299 300 300 300 300 297 295 295 294 296 295 291 288 283 281 282 281 279 284 282 287 289 287 290 286 286 282 284 278 286 276 268 273 276 276 275 275 276 276 275 275 274 275 275 275 274 274 273 272 271
299 299 299 299 298 297 296 298 300 299 298 294 290 286 286 281 279 271 275 279 281 284 286 287 284 286 286 289 284 283 279 276 285 273 269 270 274 275 275 275 274 275 274 273 273 274 273 273 274 273 272 271 271 269
299 299 299 298 296 297 297 298 297 296 291 285 279 268 272 266 271 271 278 279 282 285 286 282 285 285 285 282 283 279 278 280 276 263 264 270 273 274 274 274 273 271 270 269 268 269 268 268 267 267 267 267 267 267
299 298 298 297 295 296 296 295 295 290 284 279 277 268 269 275 277 281 282 282 283 286 286 284 282 282 279 276 280 278 277 263 266 264 268 270 271 273 273 272 269 268 266 267 264 265 263 263 265 266 267 267 266 266
296 295 292 295 295 296 295 293 290 287 281 278 277 275 277 273 273 278 280 279 284 284 286 282 277 274 273 276 271 268 269 263 264 264 269 270 269 269 269 271 269 268 267 266 266 266 265 263 262 263 263 264 262 264
296 291 293 294 295 295 295 287 283 281 278 276 273 274 272 271 272 277 278 279 283 281 273 276 270 270 276 268 265 268 262 265 270 271 271 268 267 266 267 268 267 267 266 265 264 265 263 264 265 267 265 263 266 266
288 291 294 296 294 291 288 285 280 278 275 275 273 274 268 271 273 273 277 278 278 277 277 273 276 269 263 264 263 267 270 272 271 269 269 269 269 265 267 265 263 265 264 264 266 265 266 265 266 265 267 269 269 268
289 291 294 294 293 287 283 282 281 274 274 274 275 275 275 274 276 276 275 276 276 278 277 274 269 268 267 269 268 265 264 265 269 266 264 262 264 265 264 265 266 265 269 269 270 270 270 271 270 270 270 271 269 268
294 294 293 294 293 284 281 280 283 278 274 274 277 275 276 273 275 271 276 277 277 275 270 268 267 267 268 266 265 269 268 270 270 267 264 265 265 267 265 267 266 266 269 269 270 272 271 271 271 270 269 268 266 265
291 290 293 291 287 285 281 279 278 278 278 275 278 277 274 276 272 270 272 276 271 270 266 267 268 271 271 269 271 274 271 273 268 269 267 268 265 269 269 270 272 273 271 268 267 268 267 267 268 266 259 255 256 259
288 294 286 287 282 282 280 280 278 278 278 277 277 279 270 265 265 269 275 270 270 268 268 269 269 271 271 269 269 271 268 273 273 271 270 271 268 267 267 266 266 262 265 265 265 261 262 265 265 262 258 255 258 258
292 290 283 281 275 273 275 282 276 278 272 273 276 273 269 268 273 276 267 271 270 270 270 270 270 273 272 270 274 273 273 272 269 267 268 267 267 264 265 265 265 264 263 263 264 262 260 259 260 256 256 256 255 253
288 282 276 273 274 270 274 273 278 277 275 274 272 269 270 270 275 268 266 266 268 271 271 272 273 272 273 273 270 270 272 272 270 268 268 268 266 264 266 265 264 263 265 266 264 260 258 255 256 256 256 256 255 257
275 272 273 268 272 269 266 266 270 272 266 269 267 266 268 273 265 263 262 266 266 265 269 272 273 273 268 265 267 268 271 271 268 266 266 267 264 264 265 265 265 265 264 260 257 255 254 252 254 254 254 253 258 254
266 267 270 267 268 270 269 266 266 267 267 265 266 270 269 264 260 260 267 265 263 265 263 268 272 270 269 270 268 267 266 269 269 265 265 267 265 262 260 259 259 260 262 256 258 256 254 253 252 253 251 253 252 250
263 264 273 278 277 277 272 272 275 270 264 264 266 264 261 255 256 265 269 267 269 266 272 275 274 271 268 267 267 266 266 267 266 266 266 266 265 264 259 260 258 260 261 257 256 255 254 253 251 251 252 252 252 253
270 269 265 267 267 270 265 266 264 263 264 270 267 259 257 259 262 269 270 271 270 271 271 271 272 270 268 267 265 264 262 263 264 264 265 263 261 257 256 255 256 261 253 252 251 252 255 256 254 252 251 252 253 255
263 268 268 262 264 265 265 264 263 266 269 266 259 258 261 269 268 270 269 269 270 270 268 266 262 265 266 265 263 263 259 260 260 257 254 254 254 258 256 254 253 253 254 255 259 255 253 252 251 251 251 251 250 248
265 269 263 260 259 260 261 265 261 260 266 265 269 270 268 268 272 271 270 268 267 264 260 266 262 265 263 262 258 258 257 254 256 258 254 253 255 255 253 254 254 252 251 252 254 256 259 254 255 252 252 252 253 252
270 265 260 259 259 264 262 265 268 265 261 261 260 260 261 266 268 271 269 264 267 266 266 262 258 258 262 260 258 256 255 256 253 254 257 256 254 252 251 251 250 250 250 249 249 249 248 248 247 248 248 249 249 248
261 257 258 259 261 264 264 258 258 259 258 257 257 255 259 259 260 264 268 264 265 265 260 262 263 260 259 260 260 259 260 257 253 256 254 253 249 249 250 251 249 249 249 249 249 249 249 248 247 247 247 247 246 246
260 258 257 259 260 260 263 262 260 260 257 258 258 260 261 258 258 261 265 266 264 265 264 262 262 262 261 260 259 258 257 253 253 258 255 254 253 253 249 247 248 248 250 248 248 248 249 250 248 247 246 246 245 245

GFSWCAN_sfc_thetae_096.txt.gz
Theta_e
296 295 295 295 296 296 296 297 295 296 297 298 299 300 301 301 302 299 294 294 290 279 281 285 285 281 282 284 281 283 280 284 283 279 278 279 277 280 281 282 281 280 278 276 279 277 274 291 291 284 289 289 291 292
296 294 295 295 296 296 296 296 295 296 296 298 299 300 301 302 302 301 293 295 295 288 283 288 288 289 288 288 283 283 284 287 287 284 283 283 280 279 280 277 286 278 284 283 282 281 291 292 291 291 290 287 287 289
295 294 294 295 295 295 296 295 294 296 297 298 299 301 301 302 303 301 295 294 292 287 287 284 285 288 290 289 291 281 284 288 288 291 285 285 281 284 276 277 284 287 288 285 284 289 289 290 290 290 289 287 286 287
295 294 294 295 295 296 295 294 294 296 297 298 300 301 302 302 303 302 294 295 292 289 280 282 290 286 290 290 289 288 287 290 293 291 286 284 280 285 283 285 283 284 285 281 285 286 288 287 288 288 287 287 283 282
294 294 294 295 295 295 295 294 295 296 297 299 300 302 302 302 302 301 298 296 296 290 279 281 287 290 290 288 288 290 289 287 287 287 283 280 282 285 286 285 280 284 281 278 279 283 285 284 287 287 284 282 282 281
294 294 294 294 295 296 293 294 295 297 297 299 301 302 302 302 302 294 286 295 297 296 288 280 287 287 287 287 287 287 288 289 290 285 285 287 290 288 282 274 282 283 284 283 281 286 285 285 285 285 282 281 280 278
293 293 292 294 295 295 294 294 296 297 298 299 300 301 301 301 298 292 288 292 299 296 287 281 280 286 287 286 284 285 286 288 286 288 284 284 285 289 280 272 279 283 283 282 283 285 283 281 279 281 282 281 280 277
293 293 293 294 295 294 294 295 297 298 299 300 301 301 301 301 299 294 297 299 299 291 289 280 276 280 288 282 281 285 284 284 286 286 286 284 287 283 276 277 279 279 281 280 280 282 282 280 279 278 278 279 277 276
293 294 294 294 294 294 295 297 297 298 299 300 301 301 299 295 288 294 300 299 298 291 284 282 273 271 288 285 287 285 284 278 283 284 283 286 279 271 275 277 276 277 276 276 279 279 279 277 276 275 275 275 275 274
293 294 294 294 294 295 296 297 298 299 300 300 298 289 283 287 300 297 291 286 287 287 288 280 278 281 287 285 284 284 283 276 279 281 283 278 269 276 276 276 276 276 276 276 276 275 276 276 275 274 273 274 273 273
292 293 293 294 295 296 297 299 300 301 301 292 285 286 293 299 291 287 282 282 283 282 285 283 284 282 288 280 282 283 281 283 278 280 281 274 271 274 276 275 275 275 275 275 276 276 276 275 274 273 272 272 271 271
293 293 295 295 296 298 299 300 300 297 293 291 293 295 294 289 285 282 280 282 281 278 282 283 284 287 285 288 285 284 280 282 277 282 275 266 271 274 274 274 274 274 274 274 274 274 274 274 273 272 271 269 269 269
293 294 295 296 297 300 300 299 299 299 298 294 290 284 285 281 278 274 274 277 272 282 284 286 284 286 285 286 284 283 279 277 280 272 268 269 273 274 274 273 273 273 273 273 272 272 271 270 271 271 269 268 267 265
294 295 298 300 300 300 300 300 297 295 290 283 280 274 275 267 272 271 274 276 281 285 286 286 285 284 284 282 282 277 276 278 272 264 265 269 272 273 274 273 271 269 268 268 267 267 266 266 264 264 262 260 261 260
297 299 299 299 299 300 299 295 292 287 282 277 277 267 271 272 275 280 283 284 284 287 285 282 280 281 276 275 273 275 272 267 267 265 264 269 270 271 270 270 267 266 262 263 262 262 259 260 262 261 261 259 260 257
296 295 295 297 296 296 294 291 288 284 280 276 274 273 275 276 277 279 281 281 284 285 284 280 276 273 271 273 271 269 271 266 264 262 268 271 270 268 267 268 264 263 262 261 260 261 261 259 260 259 259 259 256 257
295 292 295 297 295 294 292 286 284 280 276 274 270 273 266 267 275 277 278 279 282 282 277 275 271 272 275 269 266 266 262 262 266 267 264 264 266 265 263 264 263 263 262 260 261 262 260 261 262 264 262 260 262 260
292 294 296 296 292 290 285 282 280 278 273 273 270 270 270 272 276 276 277 279 281 280 277 273 276 268 263 266 262 264 264 264 263 265 262 260 261 261 265 263 260 262 261 261 263 261 261 261 263 262 263 264 265 264
292 293 295 295 292 285 280 279 280 273 272 274 274 275 273 271 276 277 278 279 278 278 275 270 266 264 263 262 260 261 265 264 268 266 266 260 263 265 262 262 263 261 264 263 265 265 265 266 267 268 268 268 266 266
295 294 294 294 292 283 279 278 281 276 272 274 277 276 275 274 275 272 275 276 275 273 268 265 263 263 264 261 261 269 263 268 269 268 267 267 261 263 262 264 264 265 268 269 268 268 268 269 269 269 268 268 266 264
291 291 292 289 285 282 280 278 277 277 277 275 278 277 274 275 272 271 271 275 269 267 265 264 270 270 263 263 269 270 271 272 266 267 265 268 264 265 264 264 265 266 264 262 264 265 265 264 263 263 256 253 253 260
288 292 285 285 282 281 278 279 278 278 277 277 277 276 270 266 265 268 273 268 267 265 264 268 271 266 269 267 265 268 267 269 269 269 268 268 268 266 263 262 267 265 265 263 266 260 260 262 261 259 254 252 255 256
291 286 280 279 274 273 272 281 274 277 271 272 274 270 267 266 270 274 266 269 266 267 267 269 269 271 269 269 272 271 271 271 267 266 266 264 264 261 262 261 262 261 259 261 262 260 259 257 258 254 253 253 253 251
285 277 271 270 273 271 271 268 277 275 272 270 269 266 267 267 271 266 263 263 266 271 271 272 272 271 272 272 269 270 270 270 268 267 266 267 264 262 263 262 262 261 262 263 261 257 256 252 253 255 252 252 248 250
274 270 270 265 269 267 263 262 265 269 263 264 264 263 266 270 263 259 262 263 266 267 269 270 271 270 267 264 266 267 269 270 268 265 264 265 263 263 263 263 262 262 262 256 254 253 251 248 248 249 251 248 254 252
265 265 268 264 265 267 266 263 261 262 262 262 262 265 264 262 260 260 265 264 262 265 263 267 267 268 267 268 266 265 265 267 267 264 263 265 263 261 258 257 258 259 259 255 255 254 253 250 249 252 250 251 251 249
262 263 271 274 274 273 266 267 270 265 260 261 261 261 259 256 255 262 266 265 266 264 268 271 271 269 267 265 265 265 265 265 264 264 264 263 263 262 260 257 257 260 260 255 252 252 254 254 252 251 249 246 246 249
266 267 267 263 262 267 259 258 257 258 261 268 267 256 257 256 260 264 266 265 268 271 269 268 269 268 267 264 263 262 261 261 261 262 262 262 260 257 255 254 255 259 251 249 248 248 250 252 254 253 252 251 251 249
262 264 265 258 260 261 262 259 260 265 268 265 257 257 260 265 263 264 268 265 269 268 265 264 261 262 261 260 258 259 260 261 259 256 256 255 254 257 253 250 250 249 248 251 256 252 251 250 249 249 248 248 246 243
262 266 260 255 256 258 259 261 260 260 266 264 265 266 265 264 267 268 265 263 265 262 259 263 260 262 260 260 256 256 253 253 257 260 258 257 258 253 249 250 249 247 246 248 249 250 255 250 252 247 246 248 249 249
265 261 258 258 258 259 260 258 258 258 255 256 254 257 259 261 267 268 265 262 262 263 263 259 256 255 260 258 257 257 257 256 254 256 257 256 253 252 250 249 246 245 246 247 247 246 245 244 243 244 246 247 245 244
257 254 257 256 259 260 259 255 254 256 258 258 258 253 255 256 256 262 263 264 263 262 259 261 261 258 254 253 254 255 259 259 258 258 257 254 251 247 246 246 243 244 245 245 245 245 246 246 245 244 244 245 244 243
253 252 252 256 258 257 258 257 257 257 255 256 257 253 250 254 257 259 263 262 262 263 261 256 256 257 257 257 258 258 258 257 257 260 256 254 251 249 244 243 243 244 247 245 244 244 246 247 246 245 244 243 243 243

GFSWCAN_sfc_thetae_099.txt.gz
Theta_e
297 296 296 295 295 295 297 295 296 297 295 296 297 298 299 301 301 298 294 295 290 283 283 285 286 283 283 285 281 285 283 286 286 282 281 281 280 282 282 284 283 281 280 280 281 278 275 291 291 285 288 289 289 289
296 296 296 295 295 295 296 295 296 296 295 296 297 298 299 300 301 301 292 295 296 288 286 289 290 290 289 290 287 285 285 285 287 282 282 283 281 283 281 279 287 282 285 282 283 283 290 291 289 289 289 286 287 288
296 296 296 295 295 295 296 295 296 296 294 296 297 298 299 300 301 301 294 294 291 287 288 286 287 291 291 291 293 284 286 289 288 291 285 284 281 285 279 281 284 286 287 284 284 285 285 288 288 288 287 284 283 285
295 295 295 295 295 295 295 296 296 294 294 295 297 298 299 301 302 302 294 294 293 289 282 284 291 289 292 292 291 291 290 292 293 291 286 284 281 287 283 285 283 283 285 280 283 284 286 285 286 285 284 285 282 281
295 295 295 295 295 295 295 295 295 294 294 296 297 298 301 302 302 301 296 295 296 290 281 283 289 292 291 290 290 291 290 289 288 287 286 283 285 285 288 285 281 284 280 279 278 282 283 282 285 284 282 280 280 280
294 295 295 294 295 295 296 296 295 294 294 295 297 299 301 302 302 296 286 295 297 297 288 280 289 289 288 288 288 288 289 289 289 288 287 289 290 287 283 280 282 284 284 283 281 285 283 283 284 284 281 280 279 278
294 294 295 294 294 294 295 295 295 294 294 296 297 299 301 301 298 292 289 293 298 297 286 282 282 287 288 287 286 287 289 290 291 288 285 287 288 288 283 278 281 283 283 282 283 285 281 280 278 281 281 279 279 277
293 294 294 294 293 293 294 295 295 294 295 296 298 299 300 301 299 294 297 299 298 290 289 282 279 283 289 284 283 287 285 287 288 286 287 286 287 285 279 278 279 280 281 280 281 282 280 279 278 278 279 279 277 276
293 294 294 294 294 294 294 295 294 294 296 297 299 300 298 295 292 294 300 300 297 291 285 283 277 276 289 286 287 287 286 280 286 284 285 287 282 278 278 278 277 277 276 276 279 280 279 277 276 276 276 276 275 274
293 293 294 294 294 294 294 294 294 295 297 298 296 291 284 288 300 298 292 287 287 288 287 281 281 282 288 286 284 284 283 281 279 282 285 282 276 276 277 277 277 276 276 277 278 275 276 276 275 274 273 274 273 273
293 293 293 293 293 294 294 294 295 296 297 293 285 285 292 298 292 287 282 282 284 281 285 283 283 283 289 283 282 285 282 283 277 281 280 277 275 275 276 275 276 276 276 276 276 276 276 276 274 273 272 272 271 271
293 293 293 293 293 294 294 295 296 294 292 290 292 295 293 288 285 282 280 282 280 279 284 282 283 286 287 289 284 284 281 282 277 284 278 272 273 275 275 274 275 275 275 275 275 274 275 274 273 272 271 270 269 269
292 292 293 293 294 295 295 296 297 298 297 295 290 285 285 282 278 277 274 276 277 280 283 285 283 285 286 287 285 283 278 279 282 278 275 272 274 275 274 274 273 274 274 273 272 273 272 271 272 271 269 269 268 266
292 293 294 294 295 295 296 298 299 297 291 285 282 276 278 275 275 274 277 277 280 282 285 286 285 284 284 282 284 280 280 280 275 272 272 272 273 274 274 274 272 270 269 269 268 268 268 267 265 264 263 264 263 262
293 293 293 294 295 297 299 297 294 289 285 279 278 271 269 274 274 281 284 285 285 288 285 284 283 283 281 280 278 277 275 274 275 274 270 272 273 273 271 270 269 268 266 266 266 265 263 264 264 263 263 264 264 262
292 293 296 299 299 296 294 292 288 286 282 277 274 272 276 277 278 280 283 282 285 285 285 284 279 278 276 277 276 275 275 274 272 269 271 273 271 270 270 269 267 267 267 266 266 266 265 264 265 265 264 264 262 263
295 292 297 296 295 293 292 286 284 280 276 274 270 273 270 274 277 277 279 280 283 285 278 278 274 275 277 272 272 272 273 270 269 270 271 271 270 268 267 267 266 266 266 266 266 266 265 265 265 267 266 266 266 265
291 294 295 294 291 289 285 283 281 278 273 274 272 272 271 274 277 276 278 280 282 280 279 277 279 273 273 273 271 268 268 268 269 270 270 268 268 267 269 267 265 267 266 266 267 266 266 266 267 268 267 267 267 267
294 293 295 295 291 284 281 281 281 273 274 275 275 276 275 275 277 277 279 279 279 280 277 274 272 272 270 268 267 266 269 271 269 269 267 266 268 268 266 267 266 266 267 267 268 269 269 268 270 270 270 269 269 269
295 295 294 294 291 282 279 279 282 277 274 276 278 276 275 275 276 275 276 277 276 275 272 269 269 268 268 268 268 271 269 271 271 269 268 268 267 268 268 269 270 269 270 270 271 269 270 270 271 271 270 270 270 269
291 291 291 289 284 283 280 278 277 277 278 276 278 277 275 275 273 273 273 275 271 268 268 267 270 269 266 266 272 272 273 273 271 272 271 269 268 270 269 269 270 271 270 270 270 270 269 270 269 268 267 265 265 268
289 292 286 286 282 280 279 279 278 279 278 277 277 276 273 271 270 271 273 270 268 268 268 270 270 270 271 270 269 272 270 271 271 270 269 270 270 270 270 269 270 269 269 269 270 269 268 267 267 266 265 264 262 265
289 286 282 281 275 273 274 282 275 277 273 274 275 271 269 269 271 274 268 270 269 270 270 271 270 271 270 271 272 272 272 272 270 270 269 269 268 268 269 268 269 268 268 267 268 267 267 261 262 264 263 264 265 264
284 277 273 271 273 272 272 270 278 276 274 272 270 267 268 269 271 268 266 266 268 272 272 272 273 272 272 272 271 271 271 271 269 269 269 270 268 267 268 267 267 267 268 267 267 265 264 263 258 264 262 262 261 262
275 270 270 265 269 268 264 265 267 269 264 265 265 265 267 271 265 263 265 267 269 270 271 272 272 272 270 268 269 270 271 272 270 268 267 269 266 267 266 266 266 266 265 265 264 264 263 260 260 261 262 261 263 262
266 268 268 268 265 268 267 264 262 263 264 262 263 266 266 265 262 263 267 266 267 268 268 270 270 270 269 270 268 269 268 270 270 268 266 268 267 267 265 265 265 265 264 264 263 264 263 261 261 261 261 260 255 259
262 262 271 273 272 272 266 267 270 265 261 261 264 262 262 260 259 264 268 267 269 268 270 272 272 271 269 267 266 266 267 267 268 267 265 265 265 265 266 265 263 265 264 262 262 263 263 262 261 261 260 259 258 258
266 267 266 262 262 266 259 259 258 259 262 268 266 257 258 259 262 266 267 268 268 271 269 268 269 270 268 266 265 264 263 263 263 264 264 264 262 262 261 262 262 261 259 259 260 259 260 261 261 260 260 261 260 257
262 264 264 258 260 261 262 259 261 266 267 265 259 258 261 265 265 265 268 269 270 269 266 264 262 263 262 261 261 263 264 265 264 262 261 262 262 263 260 260 260 259 258 262 260 259 260 260 259 259 258 259 257 255
262 265 259 255 256 258 259 261 262 262 265 265 266 266 265 265 267 268 267 268 267 266 264 264 262 264 262 262 261 261 259 260 263 264 263 263 263 263 260 260 260 257 257 260 260 260 258 258 258 257 257 257 257 258
264 261 258 259 258 260 261 260 259 260 258 259 256 259 261 263 266 267 265 264 264 264 263 262 260 260 262 262 262 262 262 261 258 260 261 260 260 259 259 257 256 256 257 258 258 258 257 256 256 256 257 257 255 254
257 253 257 256 259 261 259 256 254 256 258 260 260 256 258 260 261 263 264 266 265 264 262 262 262 261 259 260 259 261 262 260 260 261 260 260 258 256 256 255 253 255 256 256 256 256 255 256 257 256 256 256 255 254
253 252 253 256 258 258 257 257 257 258 257 257 258 254 253 257 259 262 264 263 266 265 263 261 260 259 259 260 261 260 260 260 260 261 259 257 255 255 254 253 254 255 255 255 254 255 255 255 255 254 254 253 252 252

GFSWCAN_sfc_thetae_102.txt.gz
Theta_e
298 297 297 297 297 296 296 296 297 297 297 296 296 297 298 299 300 298 295 297 293 289 291 291 291 288 289 289 285 289 289 290 288 284 283 283 283 286 285 287 285 284 284 284 284 280 277 290 293 287 287 288 288 288
298 298 297 297 297 296 296 296 296 297 297 296 296 297 298 299 300 301 293 296 297 290 292 295 295 296 294 293 290 291 288 287 290 285 284 285 284 286 283 281 290 283 285 283 283 281 286 287 285 286 287 285 286 287
297 297 297 296 296 296 295 296 296 297 297 295 295 296 297 299 300 300 295 295 292 289 289 291 292 297 299 297 298 289 293 292 292 294 287 286 283 288 282 284 286 287 290 285 285 284 284 286 286 286 286 285 285 285
296 296 297 297 296 296 296 296 297 297 296 295 295 296 298 299 300 301 294 296 294 290 285 290 296 294 297 298 296 296 294 297 296 295 289 287 286 290 285 287 286 288 288 282 285 286 285 285 286 286 285 286 285 285
295 296 296 296 296 296 296 296 296 297 296 294 295 296 297 299 301 302 297 296 298 292 289 291 295 296 296 296 294 295 294 292 291 289 289 287 292 290 292 289 287 287 282 282 281 283 284 283 285 285 283 282 282 283
294 295 295 295 295 296 296 296 296 296 295 294 295 296 298 300 301 295 286 295 298 298 290 286 295 293 293 294 293 293 294 293 293 290 290 293 292 291 286 285 284 285 285 285 283 285 284 284 285 284 282 281 282 282
294 295 295 295 295 295 295 296 296 296 294 294 295 297 298 300 300 292 292 298 299 298 288 286 288 292 293 292 293 292 294 294 294 293 290 290 291 291 286 283 283 284 284 284 285 285 283 283 281 283 282 282 281 281
293 294 295 295 295 295 296 296 295 295 294 294 296 297 299 300 300 295 301 299 299 292 289 286 287 288 292 290 288 294 290 292 292 292 290 289 290 288 282 282 283 284 283 283 283 283 282 281 281 281 282 281 280 279
292 293 294 295 295 295 295 295 295 295 295 295 296 298 298 294 291 294 300 299 300 292 287 285 284 283 293 289 289 289 292 285 293 287 288 290 286 283 283 283 282 282 282 280 282 281 280 278 279 279 279 279 278 277
292 293 294 294 295 295 294 294 295 295 294 296 294 290 285 291 300 299 292 288 289 289 289 285 291 285 290 287 287 286 290 286 282 285 289 285 285 281 282 283 282 280 280 281 280 279 279 278 277 276 276 276 276 275
292 293 294 294 294 294 294 294 295 294 295 293 287 287 295 299 295 290 285 284 285 283 286 288 289 286 293 285 285 289 284 286 279 284 282 282 282 279 280 280 280 280 280 280 281 280 279 278 277 276 275 275 275 274
292 293 294 294 294 294 294 294 294 294 292 292 293 296 294 290 287 284 283 285 283 283 287 284 285 290 291 295 289 287 283 283 278 287 283 280 278 278 279 278 279 279 279 279 279 278 277 277 276 276 274 273 273 272
292 293 293 294 293 294 294 294 295 295 295 293 290 286 285 285 281 280 278 281 282 286 286 287 284 288 288 291 286 285 280 279 287 282 282 280 278 278 278 278 277 278 277 277 276 276 276 275 276 275 273 272 272 270
292 293 293 293 294 294 295 295 296 294 291 285 284 279 282 279 283 285 285 286 289 289 288 288 287 285 286 284 286 282 284 284 280 278 280 278 278 278 277 277 275 274 273 274 273 273 272 270 269 268 268 268 268 267
293 293 293 293 294 295 295 295 295 293 286 284 284 280 280 284 284 285 287 287 290 292 290 287 287 288 284 283 285 282 279 278 280 281 279 279 278 277 275 274 273 271 270 271 271 269 268 268 268 268 268 269 268 267
293 293 292 294 294 295 294 295 290 288 285 281 280 279 281 282 282 284 285 285 290 290 292 292 286 283 283 284 280 280 280 280 281 279 279 278 276 275 274 274 272 272 272 271 271 271 270 269 270 270 269 269 268 268
291 289 293 294 294 295 293 289 287 282 280 278 278 281 282 285 283 283 285 284 287 290 286 286 281 281 282 280 279 281 282 278 277 278 279 278 275 273 272 271 270 271 272 272 272 272 271 271 270 271 271 270 271 270
290 295 295 294 291 290 288 288 284 281 277 280 279 279 280 282 282 282 282 286 287 287 286 283 284 279 280 279 281 278 276 278 279 279 278 276 274 273 274 273 272 272 272 272 272 271 271 270 272 274 272 272 271 271
294 294 295 294 293 289 284 283 285 277 278 280 280 281 281 280 281 282 283 282 283 286 284 283 281 281 281 280 279 278 277 277 276 276 275 275 274 273 273 272 272 273 272 272 273 275 275 273 274 275 274 274 272 273
295 295 294 293 293 286 281 281 286 281 279 280 281 280 280 280 281 281 281 280 280 281 281 280 280 279 280 278 280 280 280 279 277 274 274 275 275 274 274 275 276 275 275 274 275 273 275 274 275 275 274 273 273 273
293 292 292 292 288 287 284 282 281 282 281 279 281 281 279 280 280 280 280 279 281 277 279 277 278 275 274 277 280 279 278 279 278 278 276 274 276 277 276 277 276 276 276 276 275 274 273 274 275 274 274 273 273 273
292 291 290 290 285 284 282 284 281 282 281 280 280 280 279 279 279 279 279 279 277 277 278 278 276 275 275 276 278 279 278 277 277 277 276 275 275 276 276 277 276 275 275 275 275 275 274 274 274 273 273 272 270 272
291 290 286 285 281 281 278 285 279 280 277 277 279 277 277 277 277 279 276 276 276 276 277 276 276 278 276 276 276 276 277 277 278 277 277 277 277 278 277 276 277 275 274 274 275 274 274 268 269 272 272 271 271 271
286 281 279 279 280 276 280 278 281 279 279 277 276 273 274 277 277 277 275 275 275 276 276 275 277 276 276 276 276 275 277 278 276 276 277 276 275 275 276 275 275 276 275 274 274 273 272 272 267 270 270 270 270 269
281 275 278 274 277 276 276 276 275 276 274 274 273 274 275 277 275 274 274 273 274 275 276 277 277 277 276 276 276 275 276 277 275 274 275 277 275 273 273 273 273 273 274 273 272 272 271 270 270 270 269 269 268 267
273 273 275 274 276 276 276 273 274 274 274 273 272 275 277 276 273 273 273 274 275 276 276 277 277 276 275 276 275 275 275 277 276 274 273 275 275 274 273 271 271 271 273 273 273 271 271 269 269 267 268 266 262 264
272 272 275 275 276 276 275 276 276 275 272 272 273 273 274 272 272 271 273 274 276 278 279 279 278 277 275 274 274 274 274 274 275 274 273 272 271 272 274 272 270 272 271 270 271 270 269 269 268 267 267 268 268 266
273 273 272 271 271 272 270 270 270 269 271 273 274 269 270 269 270 271 273 274 277 277 276 275 277 277 275 273 272 272 271 269 269 269 270 269 269 269 268 269 268 266 268 268 268 268 268 268 268 267 266 266 266 266
271 272 272 265 268 268 267 268 269 270 270 272 271 268 267 269 270 271 272 274 276 275 274 272 270 271 270 271 271 271 271 271 270 267 268 268 267 267 267 268 267 267 268 268 265 266 266 266 266 266 263 266 266 265
269 272 268 265 265 266 267 268 269 270 270 271 271 270 269 270 270 272 274 274 275 275 274 273 271 272 270 270 267 267 269 270 271 272 270 269 270 268 267 267 267 266 268 269 268 267 263 265 264 265 265 265 266 265
270 271 268 268 266 269 269 269 270 270 270 270 269 270 268 270 271 270 270 271 271 271 271 269 270 271 270 269 269 268 268 269 266 267 269 268 268 267 267 266 266 266 267 267 266 266 265 265 265 263 262 262 262 261
269 266 267 265 266 269 270 270 270 270 270 271 269 269 269 271 268 269 268 271 271 271 269 271 270 268 269 270 269 269 268 267 266 266 267 267 267 265 265 264 264 265 265 265 265 265 262 261 264 263 263 262 261 260
266 267 267 268 267 267 268 269 267 267 269 269 268 266 266 268 266 267 269 268 270 271 270 269 268 267 267 267 267 266 266 266 265 265 263 263 262 263 263 264 264 264 262 264 264 263 260 260 262 261 261 259 259 259

GFSWCAN_sfc_thetae_105.txt.gz
Theta_e
300 299 299 298 298 298 298 298 297 298 298 297 297 297 298 299 299 301 299 302 296 292 293 294 294 291 291 291 287 291 291 292 290 286 285 284 285 287 286 288 286 286 284 285 286 283 279 286 292 285 285 287 288 288
299 299 298 298 298 298 298 297 297 298 298 298 297 297 297 298 299 301 295 300 298 295 294 299 299 299 297 296 292 293 289 290 291 287 286 286 286 289 286 283 291 284 286 284 283 281 285 286 285 287 289 287 287 288
298 298 297 298 298 297 297 296 297 297 298 298 297 296 296 298 299 299 296 297 294 289 292 294 295 300 302 301 301 291 294 294 293 296 289 288 285 290 283 285 287 289 292 286 284 284 285 287 288 288 288 287 287 288
297 298 298 297 297 297 297 297 296 297 297 297 296 295 296 297 299 299 295 297 294 292 287 292 300 297 301 300 300 299 297 298 297 295 290 288 287 292 287 288 287 289 289 284 284 285 286 286 286 287 286 287 288 288
296 297 297 297 297 297 297 297 297 297 297 297 295 296 297 298 299 301 301 299 298 293 288 292 298 299 300 299 297 298 296 294 293 290 290 289 291 290 293 291 285 289 284 284 282 285 285 284 286 287 286 285 286 286
296 296 296 297 297 297 296 297 297 297 297 296 295 295 297 297 299 296 286 297 299 298 289 288 297 296 298 298 296 295 296 294 293 290 291 293 294 291 286 285 286 287 287 287 284 286 286 286 286 286 284 284 285 284
295 296 296 296 296 296 296 296 296 296 297 296 295 296 297 298 298 293 292 297 299 298 289 287 290 293 296 296 297 295 295 294 294 291 291 291 293 292 289 285 285 286 285 286 287 287 284 286 283 285 285 285 284 284
294 295 296 296 296 296 296 296 296 297 296 295 295 296 297 299 299 294 303 301 300 293 291 286 288 290 295 290 289 294 290 291 292 291 293 290 292 290 283 286 286 285 286 285 286 286 285 284 284 283 285 284 283 281
294 294 295 296 296 296 296 296 296 296 296 295 295 297 297 294 289 295 300 300 301 295 287 287 286 284 295 291 292 292 291 286 294 288 287 291 287 284 285 286 286 286 285 285 285 284 283 282 281 281 282 281 280 279
293 293 295 295 296 296 295 296 295 296 296 295 295 290 285 291 300 299 293 289 290 289 291 286 293 286 291 289 288 288 291 286 284 286 291 286 286 286 287 288 287 285 285 285 283 282 282 280 280 279 279 279 279 278
292 293 294 294 295 295 295 295 295 295 295 293 287 288 296 300 295 291 285 285 286 283 288 290 292 288 295 287 287 291 287 288 281 286 284 283 283 282 285 284 285 284 284 284 285 283 283 282 281 279 278 278 277 276
291 292 293 294 295 295 295 295 295 295 293 292 294 296 293 290 289 285 285 287 285 284 290 286 290 292 292 295 289 289 285 286 279 290 284 281 280 282 282 282 283 283 283 282 282 281 280 280 280 279 277 276 275 274
291 292 293 294 295 295 295 295 294 296 295 294 290 288 286 286 282 281 279 282 284 290 289 290 287 291 292 293 289 286 281 282 291 283 282 282 281 282 281 282 281 281 281 280 280 280 279 278 278 277 275 275 274 272
291 292 293 294 294 295 295 295 295 295 291 287 284 282 282 281 285 287 287 290 293 292 291 290 287 288 288 286 288 282 287 287 281 280 281 281 280 280 281 280 279 277 277 277 277 276 274 273 271 271 271 271 270 269
292 293 293 294 294 294 295 295 295 294 289 285 285 282 283 289 289 289 291 293 294 295 294 289 288 288 286 284 285 285 281 280 282 283 282 282 280 279 278 278 276 274 274 274 274 272 271 271 271 270 271 271 270 269
293 293 293 294 294 294 295 295 291 289 287 284 282 282 284 286 284 286 286 287 295 295 295 292 287 284 283 286 282 281 281 281 284 284 282 281 279 279 277 276 275 275 275 274 273 273 272 271 272 272 272 271 270 270
293 290 294 294 294 295 294 288 288 285 283 281 281 284 285 288 287 287 290 289 295 293 287 289 284 283 288 283 282 287 285 283 283 281 282 281 279 277 276 275 274 274 275 275 275 274 273 274 273 273 273 272 273 272
290 293 294 295 295 292 287 288 285 283 279 282 282 282 285 285 285 285 287 291 292 290 290 287 289 283 283 282 285 284 282 283 283 281 280 279 278 276 276 275 275 276 275 275 275 274 274 273 274 275 274 274 273 273
292 294 294 295 292 290 285 284 286 280 281 282 283 284 284 284 285 287 287 288 292 293 290 288 285 285 286 285 284 283 282 281 279 279 279 278 278 276 276 276 276 276 275 275 276 277 277 276 276 277 277 277 275 276
293 295 294 295 294 288 283 283 290 284 281 282 283 283 284 283 284 285 285 284 287 289 286 284 285 284 284 283 286 284 284 283 280 278 277 277 277 277 276 277 278 277 277 277 277 275 277 277 277 277 276 275 274 275
292 292 293 294 290 290 285 284 283 283 283 282 283 284 282 284 284 285 284 286 286 286 284 284 282 280 282 284 285 284 283 283 282 281 279 277 279 279 279 279 279 279 278 278 278 277 275 277 277 277 276 275 275 274
293 293 293 292 287 286 285 288 285 286 283 282 283 284 282 282 282 283 285 284 284 283 284 284 281 280 280 280 282 284 284 284 283 282 281 279 279 278 279 279 279 278 278 278 278 278 277 277 276 276 275 275 271 274
293 293 290 288 284 283 280 288 282 283 280 280 283 281 281 282 283 283 282 283 281 282 282 282 281 282 281 281 280 280 281 281 281 280 279 281 281 281 280 280 280 278 278 278 278 278 277 270 273 273 274 273 273 273
289 285 283 282 283 278 283 281 283 281 281 280 280 277 279 281 282 281 281 282 280 280 280 279 280 279 279 279 279 279 281 282 280 281 281 280 279 278 279 279 279 279 279 278 277 276 275 275 271 273 273 272 272 271
283 278 281 277 281 280 278 279 279 279 277 278 277 277 279 281 280 280 279 279 278 280 280 280 281 281 280 280 279 279 280 281 279 278 279 280 279 277 277 277 277 276 277 276 275 275 274 274 273 272 272 271 270 270
276 276 278 278 279 279 280 277 278 278 278 277 277 280 281 280 278 278 279 279 279 279 280 281 281 280 280 280 278 278 279 281 280 277 277 278 278 277 276 274 274 274 276 277 276 274 273 273 272 271 270 270 266 267
276 276 277 279 280 281 280 280 281 280 277 276 278 277 278 276 277 276 277 279 279 280 282 283 283 281 280 279 279 279 280 280 279 278 277 276 276 276 278 276 274 274 275 274 274 273 272 271 271 270 270 271 270 269
276 277 275 276 276 279 275 276 275 274 275 278 279 275 275 275 274 274 276 279 282 281 281 281 282 282 280 279 278 277 275 274 274 274 274 273 274 273 273 273 272 271 272 271 271 271 271 271 271 270 269 269 269 269
276 277 276 269 273 273 273 273 274 274 274 277 276 273 272 272 273 274 275 279 280 278 277 276 276 278 277 278 277 277 276 276 273 270 271 271 270 270 272 271 271 271 271 270 268 269 268 269 268 268 267 268 268 268
273 277 274 270 270 270 271 273 272 273 274 275 275 273 272 272 273 276 277 278 279 278 278 277 276 276 274 274 273 273 275 275 275 275 273 272 273 271 271 270 270 270 271 272 271 269 265 268 268 268 267 267 268 267
276 277 273 273 271 272 272 274 275 275 275 274 276 274 272 272 273 274 275 276 278 277 277 276 276 276 275 273 273 272 270 272 271 272 273 273 271 271 271 270 270 271 270 270 269 269 268 268 268 267 267 266 265 264
275 273 272 270 270 272 274 275 275 274 274 274 272 274 273 274 271 272 272 275 277 276 274 276 275 274 276 275 274 273 273 271 271 271 271 271 271 269 269 268 268 269 268 268 268 267 265 265 266 266 266 265 265 263
273 273 273 272 271 271 272 274 272 271 273 272 271 272 271 272 269 270 273 273 275 275 274 274 273 273 272 271 271 271 270 269 268 267 267 267 267 267 268 268 268 267 265 267 267 266 264 264 265 264 264 263 263 262

GFSWCAN_sfc_thetae_108.txt.gz
Theta_e
300 300 300 299 299 299 299 299 299 299 299 298 298 298 298 299 300 301 300 302 296 292 293 295 295 290 291 291 286 290 290 290 289 285 284 284 284 286 286 287 286 283 283 282 284 281 277 286 288 282 284 288 288 288
299 299 299 299 299 299 299 298 299 299 298 299 298 298 298 298 299 300 296 302 301 294 294 298 299 299 297 296 292 292 289 290 291 287 287 286 284 289 286 282 290 282 286 282 281 280 285 287 285 288 289 286 287 287
299 299 299 299 299 298 298 298 298 299 298 299 298 297 297 297 298 300 296 298 297 290 291 294 295 300 302 301 302 290 294 295 292 295 291 289 284 288 283 284 287 289 291 285 284 284 284 286 287 287 288 287 288 288
298 299 299 298 298 298 298 298 297 298 298 298 298 297 296 297 297 299 296 297 295 291 286 292 300 297 302 301 300 300 297 297 296 295 291 288 286 292 287 288 287 288 289 285 283 285 285 285 286 287 286 288 287 288
298 298 298 298 298 298 297 297 296 297 297 297 297 296 296 297 298 299 300 299 299 292 287 291 298 300 301 299 297 298 296 294 292 290 290 287 291 290 291 291 286 289 285 283 281 286 285 284 286 287 286 285 286 285
296 297 297 297 297 297 297 297 297 297 297 297 296 296 296 297 298 298 287 299 300 299 288 286 297 297 298 298 296 296 296 294 293 290 290 292 295 291 286 284 286 287 287 287 284 287 286 286 286 287 285 284 285 284
297 297 297 297 297 297 297 297 297 297 297 297 296 295 296 297 299 292 291 296 301 300 288 286 289 295 297 296 296 295 295 293 293 291 290 290 291 292 289 284 285 285 286 286 288 287 284 286 284 286 286 286 286 284
297 297 297 297 297 297 297 296 296 296 297 296 295 295 296 297 297 294 300 300 300 294 291 285 288 290 296 290 289 294 291 292 292 291 292 289 292 291 284 287 287 286 286 285 286 286 285 286 285 284 285 285 283 281
296 296 296 296 297 297 297 296 296 296 297 295 295 296 296 293 290 294 301 300 301 295 287 286 284 284 295 292 293 292 293 286 293 289 289 290 287 284 287 287 286 286 286 285 285 285 284 283 282 282 282 282 280 278
295 295 296 296 296 296 296 296 296 296 296 295 295 290 285 290 300 299 294 289 290 291 291 287 292 287 292 290 288 287 290 286 284 287 292 286 286 288 289 290 289 288 287 288 284 282 283 281 280 279 279 279 278 277
294 294 295 296 296 296 296 296 296 296 296 293 287 287 296 300 294 289 285 285 286 284 288 290 291 289 295 287 287 291 287 288 281 285 285 283 283 284 287 286 287 286 286 286 285 284 284 283 280 279 278 278 277 275
293 294 294 295 296 296 296 296 296 295 293 293 293 295 294 290 287 285 284 286 285 283 289 287 290 293 294 296 290 290 285 286 279 290 284 280 280 285 285 284 284 284 284 283 283 281 281 280 280 279 277 275 274 273
292 293 294 294 295 296 296 296 295 296 296 295 289 285 286 286 282 280 279 282 284 291 291 292 288 292 293 294 290 287 281 282 290 283 281 281 282 283 283 283 282 282 282 281 280 280 279 278 278 277 275 274 273 270
292 293 293 294 295 296 296 296 296 295 291 286 285 281 282 281 283 286 287 288 294 293 293 293 289 288 291 287 286 281 286 287 280 278 281 282 282 282 282 281 279 278 278 278 276 275 273 272 270 270 270 270 268 267
292 292 293 294 295 295 296 295 296 294 288 284 285 280 283 289 290 289 293 294 295 296 293 289 288 289 285 283 284 284 281 279 281 282 282 282 282 280 279 278 276 275 275 275 274 271 270 270 270 270 270 271 270 267
292 292 292 294 295 295 295 295 291 291 288 285 284 282 286 287 285 286 288 289 297 295 294 292 286 283 282 284 281 280 281 280 284 282 282 282 280 280 278 277 275 276 276 275 273 272 272 271 271 272 272 271 268 269
292 289 294 295 295 295 294 290 290 286 285 283 282 286 284 285 287 287 288 292 298 293 286 289 283 282 288 283 281 286 285 283 282 282 283 281 280 278 277 275 275 276 275 275 275 274 273 275 273 272 271 271 271 271
290 294 295 295 295 292 290 289 287 285 281 284 282 284 285 285 286 286 290 294 294 291 290 287 290 284 283 281 284 284 283 283 284 282 281 280 279 277 277 276 276 277 276 276 276 275 274 273 273 275 275 275 274 274
293 294 295 295 292 290 286 286 288 281 283 284 284 285 286 286 287 290 290 293 293 295 291 289 285 285 287 286 284 284 283 282 280 279 279 279 278 277 276 276 277 277 276 275 275 276 276 276 276 277 277 277 275 276
294 294 294 294 294 289 284 284 290 284 280 283 284 282 284 284 285 286 288 288 289 289 287 285 285 284 284 285 288 286 285 283 280 277 276 277 277 277 276 277 277 277 276 277 278 276 277 276 277 277 276 275 273 274
292 293 294 294 290 290 286 285 285 285 283 282 285 284 283 285 284 284 285 288 286 288 285 285 283 282 284 286 287 286 284 283 281 280 278 276 278 279 278 280 279 279 278 278 278 276 275 277 277 277 276 275 275 274
291 293 288 290 287 286 284 288 285 287 284 283 283 285 282 282 283 284 287 285 287 284 286 285 283 281 282 282 284 285 285 285 284 282 281 279 278 279 279 279 279 279 279 279 278 278 277 277 276 276 275 275 272 274
293 293 288 286 283 283 281 288 283 283 280 281 284 281 281 282 284 286 283 285 282 284 285 284 283 284 282 283 282 283 284 283 282 281 280 282 281 282 281 280 281 280 278 278 278 278 276 270 270 273 274 273 273 273
292 286 284 284 284 279 284 282 284 282 282 281 281 279 280 282 284 282 282 282 281 283 282 282 282 280 280 280 280 281 282 283 281 281 282 281 280 280 280 280 280 280 279 279 277 276 275 275 270 273 273 272 272 272
284 280 282 278 283 280 279 280 280 280 278 280 279 279 280 283 280 281 281 279 280 281 281 282 282 281 279 280 281 281 283 282 281 279 281 281 280 279 278 277 277 277 278 277 275 275 275 275 274 273 272 272 271 270
277 278 279 280 281 281 280 278 279 279 279 279 279 282 283 280 279 279 280 280 280 281 281 282 282 281 281 281 279 279 280 283 281 279 279 280 279 278 276 274 273 273 276 277 276 274 274 274 273 272 271 271 266 268
277 277 278 281 282 282 280 282 283 281 278 277 279 279 279 276 278 275 279 280 281 282 284 284 284 283 281 280 281 281 281 281 280 278 277 277 276 277 278 276 275 274 275 274 274 273 272 272 271 271 271 271 271 271
277 278 276 278 279 281 278 279 278 277 278 280 281 278 277 275 273 275 277 280 283 283 284 284 284 284 281 279 279 278 276 276 275 275 275 274 274 274 273 272 271 272 272 272 271 271 271 270 270 270 270 269 269 269
277 278 277 273 276 276 275 275 276 275 276 278 278 275 273 273 275 276 277 281 282 281 278 277 278 280 279 278 278 277 276 276 273 270 271 270 270 270 272 271 271 271 271 269 269 269 268 268 267 267 268 268 268 268
275 279 275 273 272 272 272 275 273 275 276 277 276 273 272 272 275 278 278 279 279 278 278 278 277 277 275 275 275 275 276 277 277 276 274 272 272 271 271 271 270 271 272 272 270 268 267 268 268 267 266 268 268 267
278 279 276 275 272 273 274 275 276 277 277 276 278 274 271 271 274 275 275 277 280 279 277 276 277 277 276 274 273 271 270 272 272 274 273 273 272 272 271 271 271 271 271 270 269 268 268 267 268 267 267 267 266 265
278 276 274 271 270 273 275 277 276 275 276 274 273 274 274 275 270 272 273 275 278 278 277 277 276 275 276 274 274 274 272 272 272 272 272 272 271 270 270 269 269 270 269 268 268 267 267 266 266 266 266 265 264 263
276 276 275 273 271 273 274 275 274 273 275 273 273 274 272 272 268 271 274 275 277 276 275 274 274 274 273 273 272 271 269 268 267 268 268 268 268 269 269 269 268 268 267 267 267 266 265 265 264 264 264 263 263 261

GFSWCAN_sfc_thetae_111.txt.gz
Theta_e
300 300 300 300 300 300 300 300 300 299 299 299 299 298 299 299 300 297 294 297 293 287 289 293 293 287 287 286 279 285 283 284 282 280 280 280 280 284 284 286 284 281 280 277 279 277 273 285 285 280 285 287 288 287
300 299 299 299 299 300 299 299 299 299 299 299 299 299 299 299 300 299 294 299 297 288 287 293 294 295 293 292 287 287 286 287 286 280 281 283 282 283 282 278 288 279 284 279 280 278 285 286 285 287 287 285 285 286
299 299 299 299 299 299 299 299 299 299 299 299 299 298 298 298 299 298 295 294 292 286 286 288 291 297 299 297 296 285 291 291 289 290 283 285 282 285 279 280 284 287 290 282 282 283 284 285 286 286 287 287 287 286
299 298 299 299 299 299 299 299 298 298 298 299 299 298 297 298 299 299 292 296 294 289 284 288 298 295 299 297 296 295 292 293 291 289 285 286 282 289 283 285 282 286 286 284 282 283 284 285 285 286 286 286 285 285
297 298 298 298 298 298 298 298 298 298 298 298 298 297 297 297 298 296 295 297 297 290 285 284 293 299 298 296 294 294 292 289 286 284 282 281 286 285 286 287 282 285 283 281 278 286 283 282 285 287 284 283 283 282
297 297 298 298 298 298 298 298 297 298 298 298 298 296 296 297 298 292 286 294 296 294 287 281 293 294 296 295 294 292 293 289 287 284 283 286 292 284 280 277 285 285 286 287 282 286 285 285 286 286 283 283 283 281
297 298 298 298 298 298 298 297 297 298 298 298 297 296 296 298 293 289 286 295 300 298 288 282 284 292 295 295 292 289 290 288 287 285 284 285 286 288 277 274 283 285 285 286 287 286 284 285 283 285 285 284 283 281
297 297 296 297 297 297 297 297 297 297 297 297 297 296 297 297 296 290 296 300 299 293 290 283 281 285 292 284 284 289 285 286 286 285 286 284 286 284 278 284 285 285 285 285 285 286 284 285 284 283 284 282 279 278
297 297 296 297 297 297 297 296 297 297 297 296 296 296 294 292 289 290 300 300 299 293 284 283 280 274 290 289 287 287 288 283 287 280 283 284 280 276 283 284 283 285 285 283 284 284 283 280 280 279 279 278 276 275
296 296 296 296 297 297 296 296 297 297 297 297 293 289 284 289 299 299 292 289 289 290 289 284 285 279 287 285 282 285 286 279 276 282 286 278 276 285 288 288 286 285 285 285 281 280 279 277 277 277 276 276 275 273
296 296 296 296 297 297 296 296 296 296 296 289 286 285 294 299 293 288 283 283 284 282 284 284 285 280 289 279 281 286 278 279 274 279 277 275 277 282 282 282 283 283 283 282 281 280 281 279 277 276 275 274 273 272
295 296 296 296 296 296 296 296 296 292 289 290 291 295 294 290 286 283 281 284 281 279 283 280 283 287 284 289 282 283 278 278 274 281 275 270 280 282 282 281 281 281 280 280 279 278 278 278 277 275 274 272 271 271
295 295 295 296 296 296 296 296 296 296 295 291 289 285 284 283 280 276 276 278 275 281 284 282 284 287 286 286 279 283 278 272 280 273 274 276 281 281 281 279 279 279 278 278 277 276 274 274 275 274 272 272 270 267
294 294 295 296 296 296 296 296 296 294 291 283 282 279 278 277 275 277 278 280 282 285 285 284 280 281 281 280 281 279 281 280 277 272 273 279 280 279 279 278 276 273 273 272 271 270 269 268 266 266 264 262 262 259
294 294 294 295 296 296 296 296 296 293 287 282 283 277 275 279 286 285 286 284 285 287 285 281 281 281 282 281 282 281 278 274 274 275 280 280 279 276 274 274 272 271 269 268 267 266 264 263 265 262 261 261 261 259
292 293 291 295 295 296 295 294 291 290 286 283 282 279 282 284 283 285 284 285 287 284 283 283 279 280 280 281 279 278 275 272 276 279 279 279 276 274 273 273 271 270 270 268 267 266 266 264 264 264 262 262 260 260
292 287 294 295 295 295 294 289 288 284 280 280 279 282 281 281 284 285 286 286 287 283 281 279 274 278 280 276 279 278 272 280 279 279 280 279 275 272 271 271 270 270 269 268 267 267 265 266 267 268 265 263 264 266
287 291 295 295 293 292 289 288 283 282 279 279 277 282 280 283 285 285 286 287 287 282 282 280 282 278 272 273 272 277 281 281 281 280 278 278 274 271 272 270 270 270 269 269 269 267 267 265 267 268 271 269 268 269
290 292 295 294 292 287 282 284 286 279 276 279 277 279 281 280 282 284 283 285 287 287 283 280 279 274 275 282 282 281 280 276 277 277 277 276 273 271 270 270 270 270 271 270 271 271 270 270 272 272 272 273 270 271
294 294 294 294 294 286 282 283 286 282 278 278 280 280 281 281 281 284 285 285 285 285 283 278 277 281 282 282 282 283 280 278 275 273 273 273 271 272 271 272 272 273 272 271 274 274 274 273 274 273 271 269 266 265
292 292 294 292 289 287 285 283 282 282 281 279 282 283 280 281 281 282 283 285 283 282 282 280 280 280 278 279 280 283 279 278 275 274 274 273 273 274 274 274 274 273 273 271 270 268 268 269 272 272 265 262 263 263
290 293 289 289 286 285 284 285 284 283 281 281 282 282 280 280 281 282 284 282 283 282 281 278 276 277 278 277 277 282 281 279 279 276 275 275 274 273 274 275 274 273 275 272 273 272 270 271 270 268 266 262 265 265
292 290 286 284 282 281 278 286 281 282 276 278 282 280 279 280 281 284 277 281 277 277 278 277 279 280 278 277 280 281 281 279 277 276 275 276 275 274 275 274 275 272 271 271 273 272 268 267 266 265 264 264 265 264
292 285 282 280 280 273 281 281 284 282 281 280 279 277 279 280 282 279 277 276 274 277 277 279 279 278 279 280 276 277 279 279 277 276 276 277 275 276 276 274 275 274 274 274 273 271 269 266 265 266 265 265 263 263
281 279 281 279 281 278 278 277 278 279 275 277 276 276 277 279 277 277 276 277 273 273 278 279 278 278 275 273 274 275 279 279 277 275 275 277 274 274 274 273 272 272 273 270 267 268 267 267 265 265 265 263 265 263
278 278 278 279 279 279 278 276 277 277 278 274 277 278 278 278 277 275 276 278 278 279 280 280 277 276 276 277 275 275 275 277 278 274 274 276 275 273 270 268 267 267 270 268 269 266 266 267 266 265 264 265 263 262
276 276 278 280 280 281 277 279 281 276 273 275 277 277 277 275 275 272 274 276 279 279 281 281 280 279 277 276 275 274 275 276 275 273 273 273 272 272 271 269 268 267 269 268 267 265 264 264 263 263 262 262 262 264
277 278 275 278 278 278 275 275 274 271 273 277 279 276 275 270 268 270 272 276 280 279 279 279 280 279 276 274 273 272 271 271 271 271 271 270 269 268 266 267 269 269 266 266 265 265 264 264 263 263 262 261 260 260
276 277 276 272 274 273 271 272 273 273 274 275 275 269 267 270 270 271 272 277 279 277 275 274 275 275 274 274 273 273 270 268 266 264 261 260 260 263 263 263 265 265 264 264 267 265 265 262 261 261 260 260 260 260
275 279 273 271 270 269 270 272 269 269 273 271 271 270 269 268 273 274 274 274 275 275 275 275 275 274 273 272 271 271 271 269 267 265 265 263 263 265 264 263 264 264 265 265 263 262 267 263 264 261 260 260 259 255
278 278 274 272 269 270 270 271 273 273 272 272 270 265 265 265 268 271 271 272 277 274 274 274 274 274 273 270 268 265 264 266 265 267 269 269 268 267 267 265 263 264 264 264 263 263 261 260 261 261 261 256 254 254
277 274 270 266 267 269 272 273 274 271 270 266 265 265 267 267 263 266 271 271 274 273 274 274 272 270 270 270 269 267 267 265 264 268 268 268 267 266 264 263 263 264 263 263 262 261 260 259 257 254 253 253 252 251
275 273 270 268 266 267 269 271 271 270 272 270 268 268 267 263 261 265 271 273 272 271 271 271 271 270 268 266 265 264 264 265 266 267 267 266 264 265 263 262 263 262 262 261 260 258 256 255 253 253 252 251 249 248

GFSWCAN_sfc_thetae_117.txt.gz
Theta_e
301 300 300 300 300 300 300 300 300 300 299 299 299 300 300 301 301 295 292 294 289 282 285 289 290 285 284 282 277 282 279 282 279 276 277 277 277 281 282 283 282 279 278 276 278 274 272 283 283 279 282 284 285 285
301 300 300 300 300 300 300 300 300 300 299 299 299 300 301 301 301 297 290 295 292 286 284 289 291 292 291 289 284 286 286 284 283 277 281 279 278 280 280 275 286 277 280 278 278 276 282 284 283 285 285 281 280 283
300 301 300 300 299 299 299 300 300 299 299 299 300 300 300 301 300 297 291 290 288 283 284 286 288 293 294 292 292 283 285 288 285 286 283 281 278 282 277 278 282 284 286 279 279 282 282 283 284 283 282 280 281 282
300 300 300 299 299 299 299 299 299 299 299 299 299 300 301 300 299 296 290 290 288 285 282 287 294 291 295 294 292 291 289 289 287 285 281 280 279 285 281 282 279 281 284 278 279 282 283 284 283 282 281 281 280 281
300 299 299 299 298 298 298 299 299 299 299 299 298 299 299 300 299 294 291 291 291 285 279 283 291 295 295 294 292 291 290 286 283 281 279 279 282 283 283 283 280 283 281 279 276 282 282 282 283 282 279 279 279 278
299 299 299 298 298 298 298 298 298 298 298 299 298 298 299 299 296 289 282 289 292 289 281 277 287 290 294 292 290 289 288 285 283 282 281 282 286 282 277 277 283 285 286 287 284 286 285 285 282 281 278 278 278 278
299 299 298 298 298 298 298 298 298 298 298 298 298 297 297 297 291 286 284 294 295 290 283 275 283 291 294 292 291 286 286 284 283 282 281 281 283 283 272 275 283 285 285 285 286 285 282 283 278 280 279 278 278 276
298 298 298 298 298 298 298 298 298 298 298 298 297 297 297 297 293 288 295 299 296 288 286 278 279 283 289 282 281 285 283 283 283 281 282 282 282 281 275 281 284 285 285 285 285 285 281 281 279 278 278 277 275 274
298 298 297 297 298 298 297 297 298 298 298 297 297 296 291 288 284 289 298 299 295 288 283 275 276 273 286 285 283 283 283 274 282 279 280 281 277 274 282 282 281 284 284 283 282 281 280 278 276 276 276 275 274 273
297 297 297 297 297 297 297 297 297 297 297 297 290 285 281 286 296 297 291 288 286 289 288 282 280 282 284 280 278 278 279 276 275 279 282 276 277 281 284 286 285 283 283 282 278 276 277 276 275 275 275 274 273 272
297 297 297 297 297 297 297 297 297 297 295 287 284 285 290 297 292 288 283 282 283 282 284 283 281 277 284 277 277 279 276 276 275 277 276 273 277 276 281 281 282 283 283 282 280 279 279 278 275 274 273 273 273 272
297 297 297 297 297 297 297 297 297 290 288 287 290 294 293 289 285 281 278 282 281 278 279 279 280 283 280 284 279 280 276 275 273 278 276 270 272 277 278 279 279 279 279 279 279 278 277 276 275 274 273 271 270 270
297 297 297 297 297 297 297 296 295 295 294 292 289 285 283 283 276 273 271 277 277 276 277 278 277 286 282 280 275 279 271 270 276 278 270 273 275 278 278 278 278 277 277 276 276 276 276 274 274 273 271 269 268 266
297 297 297 297 297 297 297 296 296 292 287 280 276 276 277 275 274 275 276 277 279 277 279 279 283 281 280 277 275 270 273 278 273 270 271 272 277 277 278 279 276 274 273 274 273 272 270 269 266 264 263 262 262 260
296 297 297 296 296 296 296 295 294 290 284 279 281 275 277 277 278 283 283 284 284 279 280 279 278 279 274 276 279 273 272 272 272 270 272 271 276 276 275 274 271 270 268 268 266 266 263 263 263 259 256 257 258 255
295 295 293 296 296 296 294 292 290 288 284 281 278 275 280 281 281 282 284 285 284 279 279 280 276 272 272 274 276 274 273 268 271 271 271 275 275 274 273 272 270 269 268 266 265 265 264 262 263 262 259 258 255 256
291 288 295 295 296 294 293 287 284 281 280 279 276 275 273 280 281 283 285 285 284 279 273 277 271 273 278 274 272 276 270 271 272 279 268 271 274 271 269 268 268 267 266 265 264 265 263 264 264 266 263 260 260 262
286 293 295 295 292 290 285 284 281 280 277 274 274 274 276 281 282 283 284 285 286 283 280 278 279 275 272 274 269 271 278 278 279 277 268 266 267 268 270 269 266 267 265 265 266 266 265 264 265 265 265 264 264 264
290 293 294 293 290 285 281 282 284 276 274 274 274 279 280 277 281 284 284 285 286 287 283 279 274 272 272 272 271 270 280 271 276 275 267 264 268 270 267 266 266 265 267 266 268 268 268 267 268 268 268 269 267 268
295 294 294 293 292 284 280 279 283 280 275 276 278 277 277 277 280 281 281 280 285 285 284 278 274 273 274 273 274 274 272 274 274 274 272 266 265 267 268 269 269 267 268 269 269 269 270 269 270 270 269 269 267 266
292 292 293 290 287 286 282 279 279 279 278 276 279 280 277 279 275 276 275 282 277 279 280 274 273 271 271 272 273 274 276 277 273 274 271 269 266 270 269 269 270 270 269 269 269 267 268 269 269 270 264 260 261 263
289 290 288 288 282 283 281 284 281 279 277 278 279 281 274 274 275 272 279 274 274 275 279 276 273 273 274 275 273 275 273 275 274 272 271 272 270 270 270 270 271 268 268 267 270 268 269 269 267 266 262 259 261 261
291 288 282 281 275 275 272 285 279 279 276 277 280 276 275 271 275 282 273 277 274 274 274 275 276 279 276 273 278 277 276 275 272 270 271 270 271 270 271 271 270 268 268 269 272 270 267 265 263 262 262 262 260 258
289 277 273 273 275 271 279 279 282 279 276 276 273 272 276 276 281 276 271 271 272 273 274 277 277 275 276 279 274 274 276 275 273 272 272 272 271 270 272 271 271 271 272 272 271 267 266 265 265 265 260 257 256 258
274 273 278 275 278 273 270 272 274 276 270 273 272 271 275 277 270 271 274 272 271 270 270 273 276 275 272 270 271 272 276 276 273 272 270 272 270 271 270 270 269 270 271 267 263 264 262 261 262 259 259 258 263 260
270 274 276 275 275 274 274 271 272 271 273 273 275 276 274 269 269 270 271 268 275 277 272 269 271 274 275 275 272 272 272 274 275 271 271 274 273 271 267 267 265 267 267 268 267 266 265 262 259 260 260 261 261 260
272 272 276 280 280 279 273 274 276 271 269 268 270 271 271 267 270 267 270 272 272 275 279 280 280 279 277 274 273 272 272 273 272 271 270 269 269 270 271 269 268 267 266 266 264 264 264 262 260 262 263 260 260 260
274 276 273 276 277 278 273 272 272 272 270 273 275 274 271 272 267 267 268 270 273 276 275 274 275 275 273 271 270 270 269 269 269 269 269 268 267 265 266 267 266 266 262 262 262 262 262 262 263 261 259 259 258 257
273 276 277 272 273 272 271 272 272 272 273 272 269 264 262 268 267 267 269 271 274 273 271 270 270 271 270 270 269 269 269 269 271 268 264 263 261 263 262 262 262 262 263 264 267 264 264 262 260 258 259 258 256 251
273 277 273 271 271 270 269 270 269 271 272 272 271 270 268 266 267 270 269 269 269 267 265 268 270 270 269 269 268 268 267 266 268 269 266 262 263 262 258 262 261 261 262 263 263 263 264 258 261 259 257 253 250 249
278 276 271 270 269 270 271 271 273 272 270 268 267 267 267 267 267 267 269 267 265 266 269 269 270 270 270 269 267 267 265 266 264 264 264 265 264 262 261 261 261 262 261 261 258 255 255 256 253 251 250 249 246 244
274 271 269 267 268 270 272 271 269 268 266 265 263 262 262 260 257 262 268 268 265 264 264 267 267 264 265 266 266 265 265 263 263 264 265 265 263 262 262 260 260 261 258 256 257 256 255 252 247 246 245 244 243 242
269 268 268 265 264 265 265 266 266 264 260 260 261 258 254 256 258 260 265 268 265 262 264 263 263 263 263 263 263 263 264 264 265 266 264 263 261 260 259 258 258 258 258 256 254 252 250 248 245 244 242 242 242 241

GFSWCAN_sfc_thetae_120.txt.gz
Theta_e
301 301 301 300 300 300 299 299 300 300 299 299 299 300 301 301 300 295 291 293 289 284 284 289 289 284 284 282 277 280 278 280 278 276 277 277 277 280 279 282 280 277 277 276 278 275 272 283 284 279 282 284 284 281
301 301 300 300 300 300 299 299 300 299 299 299 299 300 301 301 300 297 290 294 292 286 285 289 290 290 290 288 283 283 282 283 282 276 277 278 277 278 280 273 283 277 279 277 277 276 282 283 282 283 282 280 281 281
300 300 300 300 300 299 299 299 299 299 299 299 300 300 301 301 300 296 290 290 288 285 286 287 288 292 292 291 290 283 283 287 284 284 283 278 278 280 277 278 282 283 285 279 279 280 281 281 282 281 281 280 281 280
300 300 300 300 299 299 299 299 299 299 299 299 300 300 301 300 299 296 291 290 288 285 282 286 293 290 294 292 291 290 288 287 285 284 281 279 278 283 279 281 279 281 282 278 279 282 282 281 280 281 280 281 280 279
300 299 299 299 299 299 299 299 299 299 299 299 300 300 300 299 298 294 291 291 291 287 280 284 289 293 293 293 291 290 288 284 282 281 278 279 282 282 282 280 279 282 281 278 272 282 280 280 280 281 279 279 279 277
300 299 299 299 298 298 298 298 298 298 299 299 299 300 299 298 294 289 284 290 293 289 283 278 286 290 293 291 290 288 287 284 282 281 280 281 284 281 274 273 283 285 286 287 282 285 283 282 280 280 278 278 278 277
299 299 299 298 298 298 298 298 297 298 299 299 299 299 297 297 291 286 285 292 294 290 281 278 285 290 293 291 289 284 285 283 282 281 281 281 282 281 272 274 282 283 285 285 285 284 280 280 277 279 278 277 277 276
299 298 298 298 298 298 298 297 297 298 298 298 298 298 297 296 293 291 294 298 294 287 284 277 281 286 290 283 280 283 282 282 282 281 281 282 282 280 274 280 283 285 285 285 285 284 282 279 278 277 277 276 275 274
298 298 298 298 298 297 297 297 297 298 298 297 297 296 290 287 285 290 299 298 293 287 278 274 279 277 285 282 282 282 282 274 281 276 280 280 277 275 280 281 281 284 284 282 281 280 278 277 276 276 276 275 273 273
298 298 298 298 298 297 297 297 297 298 298 296 290 284 276 285 295 297 290 284 283 288 285 277 279 275 282 279 278 277 277 276 274 277 281 276 275 281 283 284 285 283 284 282 278 276 277 276 276 275 275 275 274 273
297 298 297 297 297 297 297 297 297 297 294 287 282 284 289 296 292 288 282 279 280 280 283 281 280 277 283 277 276 278 275 276 274 277 277 272 277 277 280 283 285 283 282 281 280 280 279 278 276 275 274 274 273 272
298 298 297 297 297 297 297 297 296 289 287 287 291 293 293 289 284 279 279 282 280 278 280 279 279 282 279 283 279 279 275 274 272 277 277 273 273 277 279 281 283 282 281 280 279 278 277 277 276 275 273 272 270 269
297 297 297 297 297 297 297 296 295 295 294 292 289 285 280 282 273 271 273 277 278 277 277 278 276 284 279 280 274 278 269 269 276 276 269 273 274 277 278 278 279 278 279 278 277 277 276 275 275 273 271 270 268 266
297 297 297 297 297 297 296 296 296 292 288 280 277 273 271 274 274 275 277 276 277 277 278 277 278 278 277 277 271 270 272 274 265 265 270 272 275 277 277 278 278 275 274 274 273 273 271 270 267 265 264 263 262 260
297 297 297 296 297 296 296 295 293 289 283 278 278 275 276 275 278 281 280 283 283 278 279 277 277 278 272 273 273 272 269 267 270 269 271 271 274 276 275 274 271 270 269 269 268 267 265 264 264 259 256 256 259 256
297 295 292 297 296 296 295 292 289 286 283 278 278 274 278 280 280 282 283 284 282 277 278 279 275 271 271 273 272 269 271 267 270 270 271 271 273 273 272 271 270 269 268 267 266 265 264 263 263 262 257 256 254 255
293 288 296 296 295 294 293 287 283 281 279 277 273 279 279 277 277 283 285 285 282 282 278 276 270 272 277 271 270 273 268 270 270 272 275 269 271 270 269 269 267 267 266 265 264 264 262 262 264 264 263 259 260 260
288 293 296 295 291 289 286 285 281 280 277 274 273 277 275 277 281 282 283 285 285 283 282 278 278 273 267 269 267 271 268 274 276 279 268 265 266 267 269 268 266 267 265 264 265 264 263 263 265 265 265 264 263 263
292 293 294 294 289 284 281 282 282 275 275 275 274 278 278 279 282 283 284 285 286 286 283 277 273 271 271 272 271 268 273 280 276 273 265 263 265 268 266 266 265 264 266 265 267 267 266 266 266 266 267 268 265 266
294 294 294 293 291 282 280 279 283 280 276 276 278 277 277 276 280 281 282 282 285 285 283 279 273 272 274 273 274 274 272 272 272 274 274 265 264 266 266 268 268 267 267 267 268 267 268 268 269 269 268 267 265 265
291 291 292 289 285 284 280 280 279 278 278 276 279 280 277 281 275 273 274 281 282 281 279 278 277 273 271 271 273 273 274 276 273 274 271 266 264 268 268 268 268 269 267 267 267 266 267 267 267 269 262 261 262 261
288 291 287 286 282 282 281 283 280 279 277 278 278 279 276 275 276 276 278 277 276 275 276 274 276 273 274 274 272 274 273 275 274 271 270 270 269 268 269 268 269 267 267 266 269 267 267 268 267 266 261 258 259 260
290 287 282 281 274 275 271 285 279 278 275 277 280 276 277 274 275 280 276 277 273 272 274 274 276 278 275 272 276 276 275 275 271 269 269 268 269 269 270 270 269 267 266 267 269 268 266 264 263 259 259 259 260 258
288 281 275 271 272 267 275 277 281 279 277 277 275 272 275 277 282 278 276 269 271 272 276 277 275 274 276 277 273 273 274 274 272 271 271 271 270 269 270 270 270 270 270 269 269 266 263 259 262 264 261 260 256 257
274 270 270 264 277 275 271 273 275 275 267 273 271 270 274 277 272 273 271 268 271 274 274 275 276 275 272 269 270 271 275 274 272 270 269 271 269 270 269 269 268 268 269 265 261 260 259 263 265 264 263 258 262 258
265 270 275 271 275 273 269 264 267 269 267 270 273 274 272 269 271 271 271 271 269 276 276 277 277 277 276 276 274 272 271 273 273 271 270 271 271 269 267 266 264 265 266 266 267 266 265 264 263 262 259 260 261 260
266 272 275 280 279 278 273 274 275 270 268 269 270 272 272 267 267 268 270 271 270 273 276 278 280 278 276 274 271 271 271 272 271 271 269 268 268 268 268 267 266 267 266 267 266 266 265 263 259 260 262 261 262 260
274 275 272 275 276 277 275 274 273 273 273 274 275 271 270 266 266 265 267 270 272 274 274 273 273 273 272 269 270 269 268 268 268 268 269 268 266 265 266 267 267 267 263 263 261 262 263 264 264 264 263 258 254 255
272 276 277 272 273 272 272 273 274 273 273 274 272 269 265 267 264 264 266 269 271 272 268 265 266 268 269 269 269 269 268 268 270 267 265 264 263 264 263 264 264 263 265 266 268 265 264 263 261 258 255 256 249 248
273 276 273 271 272 269 266 269 267 267 270 271 270 268 267 266 267 268 268 269 268 264 263 265 266 267 267 267 267 267 267 266 266 269 267 265 265 262 260 262 262 262 264 264 263 262 264 257 257 253 252 251 249 248
277 275 271 271 269 268 269 271 270 270 268 266 266 266 266 267 269 269 268 267 266 266 265 266 267 268 270 269 267 266 266 265 264 264 264 264 263 261 260 261 261 262 261 259 258 256 254 251 250 250 250 248 244 243
274 272 270 267 268 270 272 271 270 269 267 268 266 266 265 266 265 266 267 266 266 266 265 265 265 262 264 265 265 264 264 263 263 264 264 264 262 261 262 261 260 259 258 256 255 254 253 250 248 247 245 243 241 241
270 269 269 268 267 268 269 269 268 266 264 265 264 263 261 262 262 262 264 265 263 261 262 261 262 262 262 262 263 263 263 263 263 264 263 262 261 261 259 258 258 257 256 254 251 251 250 248 245 243 242 241 240 240

GFSWCAN_sfc_thetae_123.txt.gz
Theta_e
302 301 301 301 301 300 300 301 300 300 299 299 299 300 301 300 300 295 293 294 291 286 287 291 290 286 285 284 280 283 283 284 283 280 281 280 281 283 282 282 281 278 278 277 279 276 274 283 285 280 282 284 283 282
301 301 300 300 300 300 300 300 300 300 299 299 300 300 301 301 300 297 291 294 293 289 288 291 292 293 292 289 286 286 285 285 285 282 282 283 282 282 282 276 285 279 281 279 279 277 282 283 282 284 286 284 283 282
301 300 300 300 300 299 299 299 299 300 298 299 300 301 301 301 300 296 291 291 291 289 289 290 289 292 294 294 293 286 286 289 287 288 285 284 282 284 280 280 282 284 285 280 280 281 281 282 282 283 284 284 283 282
300 300 300 300 300 299 299 299 299 299 299 300 300 301 301 300 299 296 291 291 291 289 285 288 295 292 295 295 294 292 291 289 288 288 286 284 284 286 284 284 283 284 284 281 280 282 281 281 282 282 282 282 280 280
300 300 299 300 299 299 299 299 298 298 299 300 301 301 300 299 298 295 293 293 293 290 284 287 291 294 294 295 292 292 290 288 286 285 284 284 286 286 286 284 281 284 282 280 279 284 283 281 282 282 281 279 279 278
300 300 299 299 299 299 299 298 297 296 299 300 300 300 299 297 294 292 286 293 294 291 288 283 289 292 293 293 291 290 289 287 287 286 285 285 286 286 282 281 284 286 287 288 284 286 284 283 282 282 280 279 279 278
299 299 299 299 299 298 298 297 297 298 299 300 299 298 298 298 295 288 287 292 296 292 287 284 285 291 293 292 289 287 288 286 287 286 285 285 286 286 281 280 284 286 286 285 285 283 280 281 279 280 280 280 279 277
299 299 299 298 298 298 297 297 297 298 299 299 298 298 298 297 296 292 295 298 295 288 287 282 283 286 291 285 285 286 286 286 285 285 286 286 286 285 282 282 284 286 285 284 285 285 284 281 280 279 279 278 276 275
299 298 298 298 298 298 297 297 297 298 298 298 297 295 291 288 288 292 298 295 294 289 281 281 281 279 288 285 285 285 285 282 284 283 284 285 282 281 284 283 284 285 284 283 282 281 280 279 278 277 277 277 276 275
298 298 297 297 297 297 297 297 297 298 298 295 290 285 280 287 296 295 290 285 285 287 286 280 282 283 285 283 282 282 281 281 280 282 284 282 282 283 285 286 286 286 285 283 280 278 278 278 277 277 277 277 277 276
298 297 297 297 297 297 296 297 298 297 293 287 284 283 289 294 292 287 280 279 282 280 283 282 283 282 286 282 281 282 281 280 277 281 281 279 279 282 284 285 286 286 285 284 284 283 282 281 279 278 277 276 276 275
298 298 298 297 297 297 297 296 296 290 287 288 289 293 293 288 285 280 279 281 280 279 282 281 282 285 284 286 284 281 279 279 276 281 280 276 280 281 284 285 286 285 283 283 283 281 281 280 280 278 277 275 274 273
298 298 297 297 297 297 296 295 295 296 294 292 288 285 282 282 276 274 274 277 278 280 281 282 281 284 283 284 279 281 276 276 280 279 275 279 279 281 282 283 284 284 283 281 280 280 279 278 278 277 274 273 271 269
297 297 297 297 297 296 295 296 296 293 287 281 277 276 275 274 276 276 279 279 280 280 281 281 282 283 281 280 276 276 276 278 273 272 274 280 280 280 280 281 281 280 279 278 277 277 275 274 271 270 269 269 267 265
297 297 297 297 296 296 296 294 293 290 284 279 278 272 276 277 279 281 282 283 283 282 283 282 281 282 277 276 276 276 274 272 274 275 279 280 277 278 278 278 276 275 273 274 274 272 270 268 268 265 265 266 266 262
297 296 294 296 296 295 294 291 288 287 282 279 278 277 280 280 281 283 284 284 283 282 282 283 278 276 276 276 275 274 274 272 276 278 279 277 276 277 276 276 275 273 273 272 271 271 269 267 267 267 263 264 263 263
294 289 296 296 295 294 293 286 285 281 279 278 277 280 280 279 280 284 285 285 283 283 278 279 274 275 279 275 274 276 274 278 279 279 282 277 276 275 274 273 271 271 271 270 269 269 268 267 266 266 266 265 264 265
290 293 295 294 292 290 286 285 282 280 277 276 277 279 280 280 281 283 284 285 286 284 284 279 281 276 272 273 274 278 277 276 280 280 278 273 272 273 274 274 271 271 270 269 269 268 267 266 268 269 269 267 267 267
292 292 294 293 289 285 282 282 283 277 276 277 276 278 281 281 282 284 285 285 286 287 283 280 277 276 277 277 279 278 276 279 280 279 273 269 270 272 271 270 269 269 269 269 270 270 270 270 272 271 271 270 270 271
295 294 293 293 290 283 280 280 284 280 277 278 279 279 279 279 282 282 283 284 285 286 283 280 279 279 279 280 280 282 281 279 277 278 278 273 270 270 271 272 272 271 270 270 271 270 270 270 271 272 272 272 272 272
290 289 291 287 284 283 281 280 279 279 279 277 280 280 278 281 278 277 278 284 283 282 282 282 281 278 275 276 279 278 278 279 279 281 280 274 270 272 271 272 271 272 271 271 271 270 270 272 272 272 272 272 272 273
289 291 284 285 281 281 281 283 280 280 279 280 279 280 277 275 276 277 280 278 278 278 278 278 279 277 278 279 278 277 277 277 275 273 271 271 271 271 271 271 272 271 271 271 272 272 272 272 273 273 272 272 266 270
289 286 282 280 275 274 276 284 278 280 272 276 279 276 276 276 277 281 277 279 277 276 277 277 277 279 277 276 277 277 277 276 275 274 273 273 273 273 273 272 273 271 271 271 273 272 272 269 269 272 271 268 269 269
287 279 274 272 273 269 277 274 280 279 278 277 273 272 275 277 282 279 276 274 274 275 277 279 279 278 278 278 277 276 276 276 274 273 274 273 272 272 273 273 273 273 274 273 273 273 272 271 267 269 268 269 268 270
275 271 270 264 277 270 271 269 277 275 270 274 274 273 277 280 276 275 274 272 275 278 277 278 279 278 278 277 275 275 276 276 275 273 273 274 272 272 272 272 272 273 273 272 271 271 270 269 270 270 269 270 269 268
266 270 267 267 266 269 270 265 270 271 267 273 274 274 275 274 272 271 272 270 271 275 275 276 278 278 277 277 276 275 276 276 275 274 273 274 274 273 271 271 272 273 272 273 271 272 271 270 270 269 269 265 264 267
265 266 275 279 278 278 272 273 274 271 268 270 270 270 270 266 267 269 271 272 271 273 275 276 277 279 278 275 273 272 273 273 273 272 271 270 270 272 273 272 272 273 271 273 273 273 271 269 268 267 266 266 266 266
271 272 269 272 273 276 270 271 268 268 269 273 274 271 268 268 269 270 271 272 272 273 274 273 272 273 273 271 271 271 270 270 270 270 271 270 268 268 268 268 269 269 268 269 269 269 269 268 268 268 266 263 260 259
273 274 274 270 273 274 274 275 275 273 273 275 275 273 269 268 269 268 268 269 271 271 270 271 269 271 270 270 270 271 272 273 272 270 269 268 268 267 267 268 268 269 269 269 269 267 266 266 264 262 260 258 256 255
272 276 273 272 270 272 270 272 269 269 271 271 271 269 268 268 269 270 269 269 269 268 267 268 269 270 269 270 269 268 268 267 269 272 270 269 268 266 266 266 266 266 267 267 265 264 264 262 261 258 258 256 256 255
277 275 271 270 268 268 270 271 271 270 268 268 268 267 266 267 268 268 267 267 268 268 268 268 268 269 271 270 270 269 267 266 265 266 267 266 265 265 265 264 265 265 265 264 262 261 259 258 258 257 255 253 251 253
274 272 270 268 268 271 272 271 270 268 267 267 266 267 266 267 266 266 265 266 269 268 267 268 267 265 265 266 265 265 265 265 265 266 265 265 264 264 264 264 263 263 261 260 259 258 258 257 255 254 253 252 251 250
270 270 270 269 268 269 270 270 269 267 267 267 266 265 264 266 264 264 266 265 264 264 263 263 263 263 263 263 263 263 263 263 263 265 264 263 263 263 262 262 261 260 259 257 257 256 255 253 252 251 251 250 249 249

GFSWCAN_sfc_thetae_126.txt.gz
Theta_e
302 302 301 301 301 300 300 301 300 298 298 299 300 301 301 301 300 301 297 300 300 294 293 294 293 291 290 290 285 289 288 289 289 286 286 286 286 287 286 285 284 283 283 283 284 281 278 285 286 283 285 287 287 286
301 301 301 301 301 300 300 300 300 299 299 299 300 301 301 301 301 300 297 300 302 296 293 297 296 296 295 294 291 290 289 290 291 289 289 290 286 288 286 281 288 283 286 285 282 281 285 286 287 290 290 287 286 286
301 301 300 301 300 300 300 300 300 300 299 300 300 301 301 300 299 301 299 300 300 296 294 294 292 297 300 299 299 291 293 293 292 295 294 292 286 291 284 286 285 286 288 285 283 282 284 285 287 288 289 288 287 286
301 300 300 300 299 299 300 299 299 299 300 300 301 301 300 300 299 300 299 299 302 296 290 290 298 295 298 300 299 299 296 295 295 296 293 292 289 292 288 289 289 289 289 284 281 283 285 285 286 287 286 286 285 285
300 300 300 300 300 299 299 298 298 299 300 301 301 300 300 299 299 301 300 299 299 296 289 290 296 297 298 299 297 297 296 294 294 291 292 290 293 291 292 291 288 290 287 286 286 286 287 285 287 287 284 283 283 282
300 300 300 299 299 299 298 298 297 299 300 301 300 300 298 297 295 300 290 300 300 303 293 287 294 294 296 297 296 295 295 294 295 293 291 293 293 292 288 287 288 290 290 291 288 290 289 287 287 287 284 284 283 282
300 300 299 299 299 299 298 297 296 297 300 300 299 299 299 299 300 294 292 297 298 301 294 287 288 294 296 295 295 294 295 294 294 292 291 292 293 293 290 286 288 290 290 291 291 288 284 285 283 285 284 283 283 282
299 299 299 299 299 298 297 297 296 299 299 300 300 299 299 300 299 295 299 299 299 296 295 287 286 289 294 290 290 294 292 293 292 292 293 291 292 293 285 288 289 290 289 289 289 290 289 287 285 284 283 282 280 279
299 299 299 298 298 297 297 297 298 299 299 298 297 296 298 296 294 295 298 298 301 296 289 289 284 283 293 291 292 292 293 288 293 290 291 291 289 284 288 289 289 289 288 288 289 288 286 284 283 282 282 281 280 279
299 298 298 298 297 297 297 297 298 298 297 295 295 292 286 293 297 297 296 293 293 292 292 287 290 285 291 290 288 288 291 288 285 288 292 288 287 289 290 292 292 291 291 289 286 284 285 283 283 282 282 282 282 280
298 298 298 297 297 297 297 297 297 296 294 293 289 286 292 296 296 291 285 287 287 284 289 288 289 286 292 287 286 290 287 288 282 286 285 285 285 288 291 291 292 292 291 290 291 289 288 286 284 283 282 281 281 280
298 298 298 297 297 297 297 297 296 294 292 293 292 295 295 291 287 284 282 284 284 282 286 287 288 291 290 293 289 288 284 286 278 290 283 281 288 288 290 291 291 291 290 289 290 288 287 286 285 284 283 281 280 279
298 298 297 297 297 297 297 295 294 296 297 295 291 286 287 284 279 279 276 280 281 284 286 288 286 290 290 292 287 287 282 282 288 283 282 286 287 287 290 291 291 291 289 288 288 287 286 285 285 283 281 280 277 275
297 297 297 297 296 296 296 297 296 295 294 287 284 278 281 278 281 282 283 284 285 287 287 289 286 289 289 285 285 282 283 285 279 277 279 289 286 286 289 290 289 287 286 286 285 284 283 281 279 279 277 275 274 270
297 297 297 296 296 295 296 296 294 294 290 284 284 277 280 283 285 285 286 286 286 289 289 287 288 289 285 282 284 282 279 278 280 282 288 290 285 285 285 285 285 284 283 282 282 279 277 275 275 274 274 274 273 269
297 296 294 296 295 295 294 293 294 292 287 284 283 281 283 284 283 285 286 285 288 290 290 290 284 283 281 283 280 279 279 278 284 288 290 288 284 283 284 284 284 283 282 281 280 278 276 274 274 275 273 272 271 270
295 292 296 295 294 293 293 292 290 285 283 281 281 284 284 285 284 285 286 286 290 289 286 286 281 278 284 281 279 284 282 287 290 290 289 284 283 283 283 281 279 279 279 280 278 277 276 276 273 272 271 271 271 271
291 295 295 294 294 293 291 290 286 283 279 282 282 283 284 284 285 286 286 288 290 289 288 283 286 281 280 279 281 287 288 289 288 287 287 283 281 281 282 282 279 279 279 277 277 276 274 272 274 275 276 273 272 272
294 295 295 294 293 290 285 285 287 280 281 283 284 285 284 284 285 287 286 289 292 292 289 287 284 283 284 287 289 290 289 290 289 286 285 278 278 279 279 280 278 278 278 277 277 278 277 277 279 279 277 275 276 276
295 294 293 292 293 288 283 283 288 283 280 283 285 284 284 283 284 285 286 287 288 289 287 286 287 289 290 291 291 292 291 290 288 287 286 283 281 278 279 279 281 280 278 278 278 278 277 277 277 278 277 277 277 277
293 292 292 293 290 289 285 283 282 283 283 282 284 284 282 284 284 285 285 286 286 287 287 290 289 288 284 285 287 289 287 288 289 289 288 285 280 282 280 280 280 280 279 279 279 278 277 279 278 278 278 278 279 280
292 291 291 290 286 285 284 286 283 284 283 282 283 283 281 281 282 283 284 284 284 285 285 286 286 286 285 283 286 285 284 284 282 281 279 280 281 280 280 280 279 279 280 280 280 279 279 279 279 279 279 279 277 279
291 291 287 285 281 281 279 287 281 281 278 279 282 279 280 280 282 285 282 282 282 282 282 283 283 283 283 281 282 282 282 283 285 284 282 283 282 282 282 280 281 280 279 279 280 280 279 278 277 279 279 278 278 277
289 283 280 279 280 277 281 280 282 280 280 279 278 274 277 279 283 282 280 282 282 282 282 281 282 282 282 282 284 283 281 283 282 281 281 281 281 280 281 280 280 281 281 280 279 279 278 278 277 278 278 277 277 277
280 277 279 275 279 277 276 277 278 277 274 275 274 275 279 282 277 277 278 281 281 281 281 282 281 281 282 283 283 281 279 281 281 281 280 280 280 279 278 279 279 279 280 279 278 278 278 278 278 278 276 277 275 274
275 276 276 275 276 276 275 274 276 275 276 275 276 280 281 279 275 275 279 278 279 279 278 279 279 281 281 281 280 280 281 281 282 281 278 279 280 280 279 277 277 277 280 281 280 278 277 277 277 275 275 272 271 273
274 275 279 282 281 279 278 279 280 279 276 276 279 278 278 274 275 277 277 277 278 278 278 279 279 280 281 280 278 277 278 278 278 278 277 277 277 279 280 279 278 279 280 280 280 280 278 276 275 274 273 272 272 272
279 279 276 278 279 281 277 276 277 277 279 280 280 277 275 276 276 276 276 277 277 277 278 277 277 278 278 277 277 277 276 275 275 276 276 275 275 275 275 275 274 274 276 277 278 278 277 276 274 273 270 268 266 267
278 281 280 274 277 279 279 279 280 279 278 280 280 279 275 273 274 274 275 275 276 277 278 278 276 277 276 276 276 277 278 278 277 275 275 274 274 272 274 275 275 275 275 273 272 273 273 272 270 268 266 265 264 263
277 282 279 277 276 277 278 278 277 276 276 276 275 273 273 273 273 274 274 275 276 275 275 276 277 278 276 276 274 274 274 274 275 278 276 275 273 272 273 273 273 273 272 271 269 268 267 267 266 265 264 264 264 262
280 279 277 277 275 276 276 276 276 275 275 274 274 275 273 272 273 272 271 271 274 275 275 274 274 275 276 275 276 275 273 271 271 273 273 272 272 271 271 271 271 271 271 270 268 267 267 266 265 263 261 259 259 259
278 276 275 272 272 274 275 275 275 274 273 273 272 272 271 272 270 270 268 269 274 272 270 272 272 269 270 270 270 269 270 270 270 270 270 270 270 270 270 270 269 269 268 267 266 265 264 263 262 261 259 258 257 256
274 274 273 272 271 271 273 273 272 270 271 271 270 270 270 270 267 267 269 267 267 268 267 267 267 267 267 268 268 268 268 268 268 268 267 267 267 268 268 268 267 266 265 264 264 262 261 260 259 258 257 256 255 255